<?xml version="1.0" encoding="UTF-8" standalone="no" ?>
<gpx xmlns="http://www.topografix.com/GPX/1/1" xmlns:xsi="http://www.w3.org/2001/XMLSchema-instance" xsi:schemaLocation="http://www.topografix.com/GPX/1/1 http://www.topografix.com/GPX/1/1/gpx.xsd" version="1.1" creator="VisuGPX - https://www.visugpx.com">
  <metadata>
    <name>Boucle Merveilles par 3 communes (MERCANTOUR)</name>
  </metadata>
  <trk>
    <name><![CDATA[Tour des merveilles-21647534]]></name>
    <trkseg>
      <trkpt lat="43.99818" lon="7.42777">
        <ele>2032</ele>
        <time>2025-06-13T08:31:49Z</time>
      </trkpt>
      <trkpt lat="43.99819" lon="7.42776">
        <ele>2032</ele>
        <time>2025-06-13T08:31:50Z</time>
      </trkpt>
      <trkpt lat="43.99827" lon="7.42777">
        <ele>2032</ele>
        <time>2025-06-13T08:31:54Z</time>
      </trkpt>
      <trkpt lat="43.9983" lon="7.42785">
        <ele>2031</ele>
        <time>2025-06-13T08:31:57Z</time>
      </trkpt>
      <trkpt lat="43.99838" lon="7.42787">
        <ele>2032</ele>
        <time>2025-06-13T08:32:01Z</time>
      </trkpt>
      <trkpt lat="43.99842" lon="7.428">
        <ele>2032</ele>
        <time>2025-06-13T08:32:06Z</time>
      </trkpt>
      <trkpt lat="43.99847" lon="7.42809">
        <ele>2032</ele>
        <time>2025-06-13T08:32:10Z</time>
      </trkpt>
      <trkpt lat="43.99854" lon="7.42818">
        <ele>2033</ele>
        <time>2025-06-13T08:32:15Z</time>
      </trkpt>
      <trkpt lat="43.99868" lon="7.42844">
        <ele>2035</ele>
        <time>2025-06-13T08:32:27Z</time>
      </trkpt>
      <trkpt lat="43.99886" lon="7.42857">
        <ele>2040</ele>
        <time>2025-06-13T08:32:37Z</time>
      </trkpt>
      <trkpt lat="43.99894" lon="7.4288">
        <ele>2041</ele>
        <time>2025-06-13T08:32:46Z</time>
      </trkpt>
      <trkpt lat="43.99898" lon="7.42884">
        <ele>2043</ele>
        <time>2025-06-13T08:32:48Z</time>
      </trkpt>
      <trkpt lat="43.999" lon="7.42903">
        <ele>2043</ele>
        <time>2025-06-13T08:32:55Z</time>
      </trkpt>
      <trkpt lat="43.99908" lon="7.42927">
        <ele>2044</ele>
        <time>2025-06-13T08:33:05Z</time>
      </trkpt>
      <trkpt lat="43.99927" lon="7.42962">
        <ele>2042</ele>
        <time>2025-06-13T08:33:21Z</time>
      </trkpt>
      <trkpt lat="43.99986" lon="7.43051">
        <ele>2047</ele>
        <time>2025-06-13T08:34:04Z</time>
      </trkpt>
      <trkpt lat="44.00019" lon="7.43122">
        <ele>2044</ele>
        <time>2025-06-13T08:34:35Z</time>
      </trkpt>
      <trkpt lat="44.00032" lon="7.43165">
        <ele>2040</ele>
        <time>2025-06-13T08:34:51Z</time>
      </trkpt>
      <trkpt lat="44.00043" lon="7.43188">
        <ele>2041</ele>
        <time>2025-06-13T08:35:01Z</time>
      </trkpt>
      <trkpt lat="44.00047" lon="7.43216">
        <ele>2043</ele>
        <time>2025-06-13T08:35:12Z</time>
      </trkpt>
      <trkpt lat="44.00054" lon="7.43228">
        <ele>2044</ele>
        <time>2025-06-13T08:35:17Z</time>
      </trkpt>
      <trkpt lat="44.00065" lon="7.43231">
        <ele>2044</ele>
        <time>2025-06-13T08:35:23Z</time>
      </trkpt>
      <trkpt lat="44.00116" lon="7.43198">
        <ele>2032</ele>
        <time>2025-06-13T08:35:51Z</time>
      </trkpt>
      <trkpt lat="44.00153" lon="7.43197">
        <ele>2024</ele>
        <time>2025-06-13T08:36:09Z</time>
      </trkpt>
      <trkpt lat="44.00253" lon="7.43167">
        <ele>1997</ele>
        <time>2025-06-13T08:37:01Z</time>
      </trkpt>
      <trkpt lat="44.00275" lon="7.43159">
        <ele>1993</ele>
        <time>2025-06-13T08:37:12Z</time>
      </trkpt>
      <trkpt lat="44.0032" lon="7.43148">
        <ele>1988</ele>
        <time>2025-06-13T08:37:35Z</time>
      </trkpt>
      <trkpt lat="44.00327" lon="7.43145">
        <ele>1987</ele>
        <time>2025-06-13T08:37:39Z</time>
      </trkpt>
      <trkpt lat="44.00332" lon="7.43143">
        <ele>1986</ele>
        <time>2025-06-13T08:37:41Z</time>
      </trkpt>
      <trkpt lat="44.00352" lon="7.43139">
        <ele>1982</ele>
        <time>2025-06-13T08:37:51Z</time>
      </trkpt>
      <trkpt lat="44.00376" lon="7.43127">
        <ele>1973</ele>
        <time>2025-06-13T08:38:04Z</time>
      </trkpt>
      <trkpt lat="44.00424" lon="7.43122">
        <ele>1965</ele>
        <time>2025-06-13T08:38:28Z</time>
      </trkpt>
      <trkpt lat="44.00474" lon="7.43095">
        <ele>1957</ele>
        <time>2025-06-13T08:38:55Z</time>
      </trkpt>
      <trkpt lat="44.00502" lon="7.43087">
        <ele>1956</ele>
        <time>2025-06-13T08:39:09Z</time>
      </trkpt>
      <trkpt lat="44.00582" lon="7.43043">
        <ele>1968</ele>
        <time>2025-06-13T08:39:52Z</time>
      </trkpt>
      <trkpt lat="44.00588" lon="7.43029">
        <ele>1966</ele>
        <time>2025-06-13T08:39:58Z</time>
      </trkpt>
      <trkpt lat="44.00611" lon="7.43005">
        <ele>1967</ele>
        <time>2025-06-13T08:40:13Z</time>
      </trkpt>
      <trkpt lat="44.00613" lon="7.42987">
        <ele>1962</ele>
        <time>2025-06-13T08:40:19Z</time>
      </trkpt>
      <trkpt lat="44.00637" lon="7.42958">
        <ele>1959</ele>
        <time>2025-06-13T08:40:35Z</time>
      </trkpt>
      <trkpt lat="44.00743" lon="7.42899">
        <ele>1963</ele>
        <time>2025-06-13T08:41:32Z</time>
      </trkpt>
      <trkpt lat="44.00763" lon="7.42883">
        <ele>1960</ele>
        <time>2025-06-13T08:41:44Z</time>
      </trkpt>
      <trkpt lat="44.00805" lon="7.42823">
        <ele>1958</ele>
        <time>2025-06-13T08:42:14Z</time>
      </trkpt>
      <trkpt lat="44.00825" lon="7.42777">
        <ele>1953</ele>
        <time>2025-06-13T08:42:33Z</time>
      </trkpt>
      <trkpt lat="44.00838" lon="7.42757">
        <ele>1953</ele>
        <time>2025-06-13T08:42:43Z</time>
      </trkpt>
      <trkpt lat="44.00848" lon="7.42747">
        <ele>1955</ele>
        <time>2025-06-13T08:42:49Z</time>
      </trkpt>
      <trkpt lat="44.00855" lon="7.42736">
        <ele>1955</ele>
        <time>2025-06-13T08:42:54Z</time>
      </trkpt>
      <trkpt lat="44.00866" lon="7.42715">
        <ele>1952</ele>
        <time>2025-06-13T08:43:04Z</time>
      </trkpt>
      <trkpt lat="44.00866" lon="7.42699">
        <ele>1946</ele>
        <time>2025-06-13T08:43:09Z</time>
      </trkpt>
      <trkpt lat="44.00878" lon="7.4266">
        <ele>1937</ele>
        <time>2025-06-13T08:43:25Z</time>
      </trkpt>
      <trkpt lat="44.00897" lon="7.42651">
        <ele>1944</ele>
        <time>2025-06-13T08:43:35Z</time>
      </trkpt>
      <trkpt lat="44.00923" lon="7.42627">
        <ele>1947</ele>
        <time>2025-06-13T08:43:50Z</time>
      </trkpt>
      <trkpt lat="44.00928" lon="7.42619">
        <ele>1946</ele>
        <time>2025-06-13T08:43:54Z</time>
      </trkpt>
      <trkpt lat="44.00946" lon="7.42611">
        <ele>1952</ele>
        <time>2025-06-13T08:44:04Z</time>
      </trkpt>
      <trkpt lat="44.00965" lon="7.42586">
        <ele>1951</ele>
        <time>2025-06-13T08:44:17Z</time>
      </trkpt>
      <trkpt lat="44.00978" lon="7.42548">
        <ele>1939</ele>
        <time>2025-06-13T08:44:32Z</time>
      </trkpt>
      <trkpt lat="44.01006" lon="7.42536">
        <ele>1946</ele>
        <time>2025-06-13T08:44:47Z</time>
      </trkpt>
      <trkpt lat="44.01024" lon="7.42512">
        <ele>1942</ele>
        <time>2025-06-13T08:44:59Z</time>
      </trkpt>
      <trkpt lat="44.01037" lon="7.42491">
        <ele>1938</ele>
        <time>2025-06-13T08:45:09Z</time>
      </trkpt>
      <trkpt lat="44.01043" lon="7.42462">
        <ele>1926</ele>
        <time>2025-06-13T08:45:20Z</time>
      </trkpt>
      <trkpt lat="44.01052" lon="7.42444">
        <ele>1920</ele>
        <time>2025-06-13T08:45:28Z</time>
      </trkpt>
      <trkpt lat="44.01078" lon="7.42441">
        <ele>1930</ele>
        <time>2025-06-13T08:45:41Z</time>
      </trkpt>
      <trkpt lat="44.01134" lon="7.42402">
        <ele>1930</ele>
        <time>2025-06-13T08:46:12Z</time>
      </trkpt>
      <trkpt lat="44.01151" lon="7.42401">
        <ele>1935</ele>
        <time>2025-06-13T08:46:21Z</time>
      </trkpt>
      <trkpt lat="44.0118" lon="7.42386">
        <ele>1937</ele>
        <time>2025-06-13T08:46:36Z</time>
      </trkpt>
      <trkpt lat="44.0121" lon="7.42361">
        <ele>1934</ele>
        <time>2025-06-13T08:46:54Z</time>
      </trkpt>
      <trkpt lat="44.0123" lon="7.42336">
        <ele>1927</ele>
        <time>2025-06-13T08:47:07Z</time>
      </trkpt>
      <trkpt lat="44.01241" lon="7.42316">
        <ele>1925</ele>
        <time>2025-06-13T08:47:16Z</time>
      </trkpt>
      <trkpt lat="44.01249" lon="7.42297">
        <ele>1923</ele>
        <time>2025-06-13T08:47:24Z</time>
      </trkpt>
      <trkpt lat="44.01259" lon="7.42283">
        <ele>1919</ele>
        <time>2025-06-13T08:47:31Z</time>
      </trkpt>
      <trkpt lat="44.01267" lon="7.42298">
        <ele>1922</ele>
        <time>2025-06-13T08:47:38Z</time>
      </trkpt>
      <trkpt lat="44.01289" lon="7.42308">
        <ele>1922</ele>
        <time>2025-06-13T08:47:50Z</time>
      </trkpt>
      <trkpt lat="44.01297" lon="7.42318">
        <ele>1924</ele>
        <time>2025-06-13T08:47:55Z</time>
      </trkpt>
      <trkpt lat="44.0134" lon="7.42317">
        <ele>1919</ele>
        <time>2025-06-13T08:48:16Z</time>
      </trkpt>
      <trkpt lat="44.01367" lon="7.4232">
        <ele>1916</ele>
        <time>2025-06-13T08:48:30Z</time>
      </trkpt>
      <trkpt lat="44.01406" lon="7.42322">
        <ele>1911</ele>
        <time>2025-06-13T08:48:50Z</time>
      </trkpt>
      <trkpt lat="44.0143" lon="7.42317">
        <ele>1904</ele>
        <time>2025-06-13T08:49:02Z</time>
      </trkpt>
      <trkpt lat="44.01456" lon="7.42311">
        <ele>1897</ele>
        <time>2025-06-13T08:49:15Z</time>
      </trkpt>
      <trkpt lat="44.01487" lon="7.42312">
        <ele>1893</ele>
        <time>2025-06-13T08:49:30Z</time>
      </trkpt>
      <trkpt lat="44.01506" lon="7.42321">
        <ele>1893</ele>
        <time>2025-06-13T08:49:40Z</time>
      </trkpt>
      <trkpt lat="44.01533" lon="7.42312">
        <ele>1881</ele>
        <time>2025-06-13T08:49:54Z</time>
      </trkpt>
      <trkpt lat="44.01548" lon="7.42312">
        <ele>1876</ele>
        <time>2025-06-13T08:50:02Z</time>
      </trkpt>
      <trkpt lat="44.01573" lon="7.42327">
        <ele>1872</ele>
        <time>2025-06-13T08:50:15Z</time>
      </trkpt>
      <trkpt lat="44.0159" lon="7.42318">
        <ele>1864</ele>
        <time>2025-06-13T08:50:25Z</time>
      </trkpt>
      <trkpt lat="44.01602" lon="7.4231">
        <ele>1859</ele>
        <time>2025-06-13T08:50:31Z</time>
      </trkpt>
      <trkpt lat="44.01605" lon="7.42303">
        <ele>1857</ele>
        <time>2025-06-13T08:50:34Z</time>
      </trkpt>
      <trkpt lat="44.01609" lon="7.42293">
        <ele>1854</ele>
        <time>2025-06-13T08:50:38Z</time>
      </trkpt>
      <trkpt lat="44.01616" lon="7.42283">
        <ele>1851</ele>
        <time>2025-06-13T08:50:43Z</time>
      </trkpt>
      <trkpt lat="44.0162" lon="7.4228">
        <ele>1850</ele>
        <time>2025-06-13T08:50:46Z</time>
      </trkpt>
      <trkpt lat="44.01627" lon="7.42268">
        <ele>1847</ele>
        <time>2025-06-13T08:50:51Z</time>
      </trkpt>
      <trkpt lat="44.01654" lon="7.42258">
        <ele>1840</ele>
        <time>2025-06-13T08:51:05Z</time>
      </trkpt>
      <trkpt lat="44.01657" lon="7.42247">
        <ele>1838</ele>
        <time>2025-06-13T08:51:09Z</time>
      </trkpt>
      <trkpt lat="44.01666" lon="7.4223">
        <ele>1834</ele>
        <time>2025-06-13T08:51:17Z</time>
      </trkpt>
      <trkpt lat="44.01668" lon="7.42217">
        <ele>1831</ele>
        <time>2025-06-13T08:51:22Z</time>
      </trkpt>
      <trkpt lat="44.01675" lon="7.42206">
        <ele>1827</ele>
        <time>2025-06-13T08:51:27Z</time>
      </trkpt>
      <trkpt lat="44.01677" lon="7.42192">
        <ele>1825</ele>
        <time>2025-06-13T08:51:32Z</time>
      </trkpt>
      <trkpt lat="44.01715" lon="7.42107">
        <ele>1821</ele>
        <time>2025-06-13T08:52:08Z</time>
      </trkpt>
      <trkpt lat="44.01735" lon="7.42077">
        <ele>1829</ele>
        <time>2025-06-13T08:52:23Z</time>
      </trkpt>
      <trkpt lat="44.01758" lon="7.42063">
        <ele>1835</ele>
        <time>2025-06-13T08:52:35Z</time>
      </trkpt>
      <trkpt lat="44.01811" lon="7.42001">
        <ele>1854</ele>
        <time>2025-06-13T08:53:10Z</time>
      </trkpt>
      <trkpt lat="44.01816" lon="7.41985">
        <ele>1859</ele>
        <time>2025-06-13T08:53:16Z</time>
      </trkpt>
      <trkpt lat="44.01837" lon="7.41957">
        <ele>1872</ele>
        <time>2025-06-13T08:53:31Z</time>
      </trkpt>
      <trkpt lat="44.01886" lon="7.4192">
        <ele>1876</ele>
        <time>2025-06-13T08:53:59Z</time>
      </trkpt>
      <trkpt lat="44.01914" lon="7.41854">
        <ele>1896</ele>
        <time>2025-06-13T08:54:26Z</time>
      </trkpt>
      <trkpt lat="44.01927" lon="7.41823">
        <ele>1905</ele>
        <time>2025-06-13T08:54:39Z</time>
      </trkpt>
      <trkpt lat="44.01957" lon="7.41787">
        <ele>1911</ele>
        <time>2025-06-13T08:54:59Z</time>
      </trkpt>
      <trkpt lat="44.02083" lon="7.41665">
        <ele>1938</ele>
        <time>2025-06-13T08:56:16Z</time>
      </trkpt>
      <trkpt lat="44.02167" lon="7.41602">
        <ele>1946</ele>
        <time>2025-06-13T08:57:04Z</time>
      </trkpt>
      <trkpt lat="44.02355" lon="7.41489">
        <ele>1971</ele>
        <time>2025-06-13T08:58:46Z</time>
      </trkpt>
      <trkpt lat="44.024" lon="7.41466">
        <ele>1977</ele>
        <time>2025-06-13T08:59:10Z</time>
      </trkpt>
      <trkpt lat="44.02446" lon="7.41448">
        <ele>1985</ele>
        <time>2025-06-13T08:59:34Z</time>
      </trkpt>
      <trkpt lat="44.02465" lon="7.41443">
        <ele>1988</ele>
        <time>2025-06-13T08:59:44Z</time>
      </trkpt>
      <trkpt lat="44.0248" lon="7.41442">
        <ele>1989</ele>
        <time>2025-06-13T08:59:51Z</time>
      </trkpt>
      <trkpt lat="44.02497" lon="7.41433">
        <ele>1992</ele>
        <time>2025-06-13T09:00:00Z</time>
      </trkpt>
      <trkpt lat="44.02505" lon="7.41431">
        <ele>1993</ele>
        <time>2025-06-13T09:00:05Z</time>
      </trkpt>
      <trkpt lat="44.02509" lon="7.41431">
        <ele>1993</ele>
        <time>2025-06-13T09:00:07Z</time>
      </trkpt>
      <trkpt lat="44.0251" lon="7.41419">
        <ele>1994</ele>
        <time>2025-06-13T09:00:11Z</time>
      </trkpt>
      <trkpt lat="44.02513" lon="7.41412">
        <ele>1995</ele>
        <time>2025-06-13T09:00:14Z</time>
      </trkpt>
      <trkpt lat="44.02541" lon="7.41417">
        <ele>1996</ele>
        <time>2025-06-13T09:00:28Z</time>
      </trkpt>
      <trkpt lat="44.0256" lon="7.41431">
        <ele>2000</ele>
        <time>2025-06-13T09:00:39Z</time>
      </trkpt>
      <trkpt lat="44.02689" lon="7.41484">
        <ele>2016</ele>
        <time>2025-06-13T09:01:46Z</time>
      </trkpt>
      <trkpt lat="44.02711" lon="7.41505">
        <ele>2020</ele>
        <time>2025-06-13T09:01:59Z</time>
      </trkpt>
      <trkpt lat="44.02778" lon="7.41599">
        <ele>2032</ele>
        <time>2025-06-13T09:02:47Z</time>
      </trkpt>
      <trkpt lat="44.02817" lon="7.41675">
        <ele>2044</ele>
        <time>2025-06-13T09:03:21Z</time>
      </trkpt>
      <trkpt lat="44.02831" lon="7.41686">
        <ele>2043</ele>
        <time>2025-06-13T09:03:29Z</time>
      </trkpt>
      <trkpt lat="44.02862" lon="7.41739">
        <ele>2058</ele>
        <time>2025-06-13T09:03:53Z</time>
      </trkpt>
      <trkpt lat="44.02875" lon="7.41747">
        <ele>2056</ele>
        <time>2025-06-13T09:04:00Z</time>
      </trkpt>
      <trkpt lat="44.02892" lon="7.41769">
        <ele>2059</ele>
        <time>2025-06-13T09:04:12Z</time>
      </trkpt>
      <trkpt lat="44.02903" lon="7.4178">
        <ele>2059</ele>
        <time>2025-06-13T09:04:19Z</time>
      </trkpt>
      <trkpt lat="44.02918" lon="7.41781">
        <ele>2054</ele>
        <time>2025-06-13T09:04:26Z</time>
      </trkpt>
      <trkpt lat="44.02941" lon="7.41813">
        <ele>2059</ele>
        <time>2025-06-13T09:04:43Z</time>
      </trkpt>
      <trkpt lat="44.02952" lon="7.41852">
        <ele>2071</ele>
        <time>2025-06-13T09:04:58Z</time>
      </trkpt>
      <trkpt lat="44.02964" lon="7.41874">
        <ele>2075</ele>
        <time>2025-06-13T09:05:08Z</time>
      </trkpt>
      <trkpt lat="44.02991" lon="7.41894">
        <ele>2073</ele>
        <time>2025-06-13T09:05:23Z</time>
      </trkpt>
      <trkpt lat="44.02995" lon="7.41914">
        <ele>2079</ele>
        <time>2025-06-13T09:05:30Z</time>
      </trkpt>
      <trkpt lat="44.03006" lon="7.41917">
        <ele>2076</ele>
        <time>2025-06-13T09:05:36Z</time>
      </trkpt>
      <trkpt lat="44.03038" lon="7.41965">
        <ele>2080</ele>
        <time>2025-06-13T09:05:59Z</time>
      </trkpt>
      <trkpt lat="44.03053" lon="7.42017">
        <ele>2086</ele>
        <time>2025-06-13T09:06:20Z</time>
      </trkpt>
      <trkpt lat="44.03064" lon="7.42081">
        <ele>2088</ele>
        <time>2025-06-13T09:06:43Z</time>
      </trkpt>
      <trkpt lat="44.03077" lon="7.42126">
        <ele>2088</ele>
        <time>2025-06-13T09:07:01Z</time>
      </trkpt>
      <trkpt lat="44.03099" lon="7.42169">
        <ele>2091</ele>
        <time>2025-06-13T09:07:20Z</time>
      </trkpt>
      <trkpt lat="44.03137" lon="7.42227">
        <ele>2094</ele>
        <time>2025-06-13T09:07:48Z</time>
      </trkpt>
      <trkpt lat="44.03168" lon="7.42298">
        <ele>2098</ele>
        <time>2025-06-13T09:08:18Z</time>
      </trkpt>
      <trkpt lat="44.03175" lon="7.42332">
        <ele>2101</ele>
        <time>2025-06-13T09:08:31Z</time>
      </trkpt>
      <trkpt lat="44.03187" lon="7.42342">
        <ele>2103</ele>
        <time>2025-06-13T09:08:38Z</time>
      </trkpt>
      <trkpt lat="44.03188" lon="7.42376">
        <ele>2095</ele>
        <time>2025-06-13T09:08:50Z</time>
      </trkpt>
      <trkpt lat="44.03193" lon="7.4239">
        <ele>2094</ele>
        <time>2025-06-13T09:08:55Z</time>
      </trkpt>
      <trkpt lat="44.03194" lon="7.42413">
        <ele>2090</ele>
        <time>2025-06-13T09:09:04Z</time>
      </trkpt>
      <trkpt lat="44.03198" lon="7.42425">
        <ele>2089</ele>
        <time>2025-06-13T09:09:08Z</time>
      </trkpt>
      <trkpt lat="44.03204" lon="7.42448">
        <ele>2087</ele>
        <time>2025-06-13T09:09:17Z</time>
      </trkpt>
      <trkpt lat="44.03203" lon="7.4247">
        <ele>2082</ele>
        <time>2025-06-13T09:09:25Z</time>
      </trkpt>
      <trkpt lat="44.03205" lon="7.42514">
        <ele>2074</ele>
        <time>2025-06-13T09:09:41Z</time>
      </trkpt>
      <trkpt lat="44.03214" lon="7.42527">
        <ele>2075</ele>
        <time>2025-06-13T09:09:48Z</time>
      </trkpt>
      <trkpt lat="44.03224" lon="7.42569">
        <ele>2070</ele>
        <time>2025-06-13T09:10:03Z</time>
      </trkpt>
      <trkpt lat="44.03263" lon="7.42592">
        <ele>2073</ele>
        <time>2025-06-13T09:10:25Z</time>
      </trkpt>
      <trkpt lat="44.03305" lon="7.42611">
        <ele>2066</ele>
        <time>2025-06-13T09:10:47Z</time>
      </trkpt>
      <trkpt lat="44.03329" lon="7.42602">
        <ele>2071</ele>
        <time>2025-06-13T09:10:59Z</time>
      </trkpt>
      <trkpt lat="44.03364" lon="7.42588">
        <ele>2074</ele>
        <time>2025-06-13T09:11:17Z</time>
      </trkpt>
      <trkpt lat="44.03384" lon="7.42582">
        <ele>2074</ele>
        <time>2025-06-13T09:11:28Z</time>
      </trkpt>
      <trkpt lat="44.03391" lon="7.42588">
        <ele>2071</ele>
        <time>2025-06-13T09:11:32Z</time>
      </trkpt>
      <trkpt lat="44.0341" lon="7.42584">
        <ele>2071</ele>
        <time>2025-06-13T09:11:41Z</time>
      </trkpt>
      <trkpt lat="44.03426" lon="7.42592">
        <ele>2068</ele>
        <time>2025-06-13T09:11:50Z</time>
      </trkpt>
      <trkpt lat="44.03438" lon="7.42588">
        <ele>2071</ele>
        <time>2025-06-13T09:11:56Z</time>
      </trkpt>
      <trkpt lat="44.0345" lon="7.42601">
        <ele>2068</ele>
        <time>2025-06-13T09:12:04Z</time>
      </trkpt>
      <trkpt lat="44.03484" lon="7.42614">
        <ele>2068</ele>
        <time>2025-06-13T09:12:21Z</time>
      </trkpt>
      <trkpt lat="44.03502" lon="7.42627">
        <ele>2065</ele>
        <time>2025-06-13T09:12:32Z</time>
      </trkpt>
      <trkpt lat="44.03525" lon="7.42656">
        <ele>2061</ele>
        <time>2025-06-13T09:12:47Z</time>
      </trkpt>
      <trkpt lat="44.0354" lon="7.42669">
        <ele>2060</ele>
        <time>2025-06-13T09:12:56Z</time>
      </trkpt>
      <trkpt lat="44.03547" lon="7.42672">
        <ele>2061</ele>
        <time>2025-06-13T09:13:00Z</time>
      </trkpt>
      <trkpt lat="44.03606" lon="7.42689">
        <ele>2073</ele>
        <time>2025-06-13T09:13:30Z</time>
      </trkpt>
      <trkpt lat="44.03642" lon="7.42686">
        <ele>2088</ele>
        <time>2025-06-13T09:13:48Z</time>
      </trkpt>
      <trkpt lat="44.03668" lon="7.42692">
        <ele>2095</ele>
        <time>2025-06-13T09:14:01Z</time>
      </trkpt>
      <trkpt lat="44.03679" lon="7.42702">
        <ele>2096</ele>
        <time>2025-06-13T09:14:08Z</time>
      </trkpt>
      <trkpt lat="44.03689" lon="7.427">
        <ele>2102</ele>
        <time>2025-06-13T09:14:13Z</time>
      </trkpt>
      <trkpt lat="44.03704" lon="7.42729">
        <ele>2097</ele>
        <time>2025-06-13T09:14:25Z</time>
      </trkpt>
      <trkpt lat="44.03748" lon="7.42772">
        <ele>2105</ele>
        <time>2025-06-13T09:14:52Z</time>
      </trkpt>
      <trkpt lat="44.03837" lon="7.42865">
        <ele>2131</ele>
        <time>2025-06-13T09:15:48Z</time>
      </trkpt>
      <trkpt lat="44.03864" lon="7.42884">
        <ele>2139</ele>
        <time>2025-06-13T09:16:03Z</time>
      </trkpt>
      <trkpt lat="44.03889" lon="7.42888">
        <ele>2148</ele>
        <time>2025-06-13T09:16:16Z</time>
      </trkpt>
      <trkpt lat="44.03901" lon="7.42902">
        <ele>2150</ele>
        <time>2025-06-13T09:16:24Z</time>
      </trkpt>
      <trkpt lat="44.03903" lon="7.42927">
        <ele>2150</ele>
        <time>2025-06-13T09:16:33Z</time>
      </trkpt>
      <trkpt lat="44.0389" lon="7.4296">
        <ele>2147</ele>
        <time>2025-06-13T09:16:46Z</time>
      </trkpt>
      <trkpt lat="44.03916" lon="7.42942">
        <ele>2155</ele>
        <time>2025-06-13T09:17:01Z</time>
      </trkpt>
      <trkpt lat="44.03931" lon="7.42938">
        <ele>2161</ele>
        <time>2025-06-13T09:17:08Z</time>
      </trkpt>
      <trkpt lat="44.03946" lon="7.42926">
        <ele>2167</ele>
        <time>2025-06-13T09:17:17Z</time>
      </trkpt>
      <trkpt lat="44.03975" lon="7.42901">
        <ele>2179</ele>
        <time>2025-06-13T09:17:34Z</time>
      </trkpt>
      <trkpt lat="44.03991" lon="7.42896">
        <ele>2186</ele>
        <time>2025-06-13T09:17:42Z</time>
      </trkpt>
      <trkpt lat="44.03999" lon="7.42882">
        <ele>2189</ele>
        <time>2025-06-13T09:17:49Z</time>
      </trkpt>
      <trkpt lat="44.04005" lon="7.42876">
        <ele>2191</ele>
        <time>2025-06-13T09:17:52Z</time>
      </trkpt>
      <trkpt lat="44.04016" lon="7.42866">
        <ele>2195</ele>
        <time>2025-06-13T09:17:59Z</time>
      </trkpt>
      <trkpt lat="44.04032" lon="7.4288">
        <ele>2201</ele>
        <time>2025-06-13T09:18:08Z</time>
      </trkpt>
      <trkpt lat="44.04024" lon="7.42891">
        <ele>2198</ele>
        <time>2025-06-13T09:18:14Z</time>
      </trkpt>
      <trkpt lat="44.04024" lon="7.42907">
        <ele>2198</ele>
        <time>2025-06-13T09:18:20Z</time>
      </trkpt>
      <trkpt lat="44.04038" lon="7.42909">
        <ele>2204</ele>
        <time>2025-06-13T09:18:27Z</time>
      </trkpt>
      <trkpt lat="44.04057" lon="7.42915">
        <ele>2211</ele>
        <time>2025-06-13T09:18:37Z</time>
      </trkpt>
      <trkpt lat="44.04075" lon="7.42907">
        <ele>2218</ele>
        <time>2025-06-13T09:18:46Z</time>
      </trkpt>
      <trkpt lat="44.04086" lon="7.42891">
        <ele>2222</ele>
        <time>2025-06-13T09:18:54Z</time>
      </trkpt>
      <trkpt lat="44.04093" lon="7.4289">
        <ele>2224</ele>
        <time>2025-06-13T09:18:58Z</time>
      </trkpt>
      <trkpt lat="44.04103" lon="7.42881">
        <ele>2229</ele>
        <time>2025-06-13T09:19:04Z</time>
      </trkpt>
      <trkpt lat="44.04095" lon="7.42895">
        <ele>2225</ele>
        <time>2025-06-13T09:19:10Z</time>
      </trkpt>
      <trkpt lat="44.04093" lon="7.42909">
        <ele>2225</ele>
        <time>2025-06-13T09:19:15Z</time>
      </trkpt>
      <trkpt lat="44.04104" lon="7.42901">
        <ele>2229</ele>
        <time>2025-06-13T09:19:21Z</time>
      </trkpt>
      <trkpt lat="44.04121" lon="7.42899">
        <ele>2236</ele>
        <time>2025-06-13T09:19:30Z</time>
      </trkpt>
      <trkpt lat="44.04124" lon="7.42906">
        <ele>2238</ele>
        <time>2025-06-13T09:19:33Z</time>
      </trkpt>
      <trkpt lat="44.04139" lon="7.42897">
        <ele>2244</ele>
        <time>2025-06-13T09:19:41Z</time>
      </trkpt>
      <trkpt lat="44.04142" lon="7.42905">
        <ele>2245</ele>
        <time>2025-06-13T09:19:44Z</time>
      </trkpt>
      <trkpt lat="44.0415" lon="7.42906">
        <ele>2249</ele>
        <time>2025-06-13T09:19:48Z</time>
      </trkpt>
      <trkpt lat="44.04157" lon="7.4292">
        <ele>2252</ele>
        <time>2025-06-13T09:19:54Z</time>
      </trkpt>
      <trkpt lat="44.0416" lon="7.42918">
        <ele>2253</ele>
        <time>2025-06-13T09:19:56Z</time>
      </trkpt>
      <trkpt lat="44.04162" lon="7.42921">
        <ele>2254</ele>
        <time>2025-06-13T09:19:58Z</time>
      </trkpt>
      <trkpt lat="44.04168" lon="7.42917">
        <ele>2256</ele>
        <time>2025-06-13T09:20:01Z</time>
      </trkpt>
      <trkpt lat="44.04176" lon="7.4292">
        <ele>2259</ele>
        <time>2025-06-13T09:20:05Z</time>
      </trkpt>
      <trkpt lat="44.04189" lon="7.42937">
        <ele>2263</ele>
        <time>2025-06-13T09:20:14Z</time>
      </trkpt>
      <trkpt lat="44.04186" lon="7.42944">
        <ele>2263</ele>
        <time>2025-06-13T09:20:17Z</time>
      </trkpt>
      <trkpt lat="44.04194" lon="7.42951">
        <ele>2265</ele>
        <time>2025-06-13T09:20:22Z</time>
      </trkpt>
      <trkpt lat="44.04212" lon="7.42949">
        <ele>2270</ele>
        <time>2025-06-13T09:20:31Z</time>
      </trkpt>
      <trkpt lat="44.04215" lon="7.42964">
        <ele>2272</ele>
        <time>2025-06-13T09:20:36Z</time>
      </trkpt>
      <trkpt lat="44.04231" lon="7.4298">
        <ele>2277</ele>
        <time>2025-06-13T09:20:46Z</time>
      </trkpt>
      <trkpt lat="44.04243" lon="7.43014">
        <ele>2287</ele>
        <time>2025-06-13T09:21:00Z</time>
      </trkpt>
      <trkpt lat="44.04251" lon="7.43044">
        <ele>2300</ele>
        <time>2025-06-13T09:21:11Z</time>
      </trkpt>
      <trkpt lat="44.04261" lon="7.43047">
        <ele>2302</ele>
        <time>2025-06-13T09:21:16Z</time>
      </trkpt>
      <trkpt lat="44.04314" lon="7.43053">
        <ele>2310</ele>
        <time>2025-06-13T09:21:43Z</time>
      </trkpt>
      <trkpt lat="44.04349" lon="7.43063">
        <ele>2317</ele>
        <time>2025-06-13T09:22:01Z</time>
      </trkpt>
      <trkpt lat="44.04372" lon="7.43064">
        <ele>2318</ele>
        <time>2025-06-13T09:22:12Z</time>
      </trkpt>
      <trkpt lat="44.04388" lon="7.4307">
        <ele>2321</ele>
        <time>2025-06-13T09:22:21Z</time>
      </trkpt>
      <trkpt lat="44.04399" lon="7.43069">
        <ele>2322</ele>
        <time>2025-06-13T09:22:26Z</time>
      </trkpt>
      <trkpt lat="44.04404" lon="7.43079">
        <ele>2325</ele>
        <time>2025-06-13T09:22:31Z</time>
      </trkpt>
      <trkpt lat="44.04409" lon="7.4308">
        <ele>2326</ele>
        <time>2025-06-13T09:22:33Z</time>
      </trkpt>
      <trkpt lat="44.04413" lon="7.43079">
        <ele>2325</ele>
        <time>2025-06-13T09:22:35Z</time>
      </trkpt>
      <trkpt lat="44.04417" lon="7.43082">
        <ele>2327</ele>
        <time>2025-06-13T09:22:37Z</time>
      </trkpt>
      <trkpt lat="44.04422" lon="7.43079">
        <ele>2327</ele>
        <time>2025-06-13T09:22:40Z</time>
      </trkpt>
      <trkpt lat="44.04424" lon="7.43088">
        <ele>2331</ele>
        <time>2025-06-13T09:22:43Z</time>
      </trkpt>
      <trkpt lat="44.04445" lon="7.43084">
        <ele>2333</ele>
        <time>2025-06-13T09:22:54Z</time>
      </trkpt>
      <trkpt lat="44.04451" lon="7.43088">
        <ele>2336</ele>
        <time>2025-06-13T09:22:57Z</time>
      </trkpt>
      <trkpt lat="44.04497" lon="7.4309">
        <ele>2346</ele>
        <time>2025-06-13T09:23:20Z</time>
      </trkpt>
      <trkpt lat="44.04536" lon="7.43097">
        <ele>2358</ele>
        <time>2025-06-13T09:23:40Z</time>
      </trkpt>
      <trkpt lat="44.04568" lon="7.43076">
        <ele>2351</ele>
        <time>2025-06-13T09:23:58Z</time>
      </trkpt>
      <trkpt lat="44.04612" lon="7.43074">
        <ele>2365</ele>
        <time>2025-06-13T09:24:20Z</time>
      </trkpt>
      <trkpt lat="44.04622" lon="7.43073">
        <ele>2369</ele>
        <time>2025-06-13T09:24:25Z</time>
      </trkpt>
      <trkpt lat="44.04632" lon="7.43076">
        <ele>2374</ele>
        <time>2025-06-13T09:24:30Z</time>
      </trkpt>
      <trkpt lat="44.04648" lon="7.43088">
        <ele>2386</ele>
        <time>2025-06-13T09:24:39Z</time>
      </trkpt>
      <trkpt lat="44.04654" lon="7.43088">
        <ele>2389</ele>
        <time>2025-06-13T09:24:42Z</time>
      </trkpt>
      <trkpt lat="44.04668" lon="7.43079">
        <ele>2390</ele>
        <time>2025-06-13T09:24:50Z</time>
      </trkpt>
      <trkpt lat="44.04671" lon="7.43081">
        <ele>2392</ele>
        <time>2025-06-13T09:24:51Z</time>
      </trkpt>
      <trkpt lat="44.04679" lon="7.43075">
        <ele>2393</ele>
        <time>2025-06-13T09:24:56Z</time>
      </trkpt>
      <trkpt lat="44.04701" lon="7.43056">
        <ele>2398</ele>
        <time>2025-06-13T09:25:09Z</time>
      </trkpt>
      <trkpt lat="44.04705" lon="7.43064">
        <ele>2403</ele>
        <time>2025-06-13T09:25:13Z</time>
      </trkpt>
      <trkpt lat="44.04716" lon="7.43053">
        <ele>2406</ele>
        <time>2025-06-13T09:25:19Z</time>
      </trkpt>
      <trkpt lat="44.04719" lon="7.43067">
        <ele>2410</ele>
        <time>2025-06-13T09:25:25Z</time>
      </trkpt>
      <trkpt lat="44.04715" lon="7.43079">
        <ele>2411</ele>
        <time>2025-06-13T09:25:29Z</time>
      </trkpt>
      <trkpt lat="44.04724" lon="7.43079">
        <ele>2415</ele>
        <time>2025-06-13T09:25:34Z</time>
      </trkpt>
      <trkpt lat="44.04723" lon="7.43086">
        <ele>2416</ele>
        <time>2025-06-13T09:25:36Z</time>
      </trkpt>
      <trkpt lat="44.04734" lon="7.43082">
        <ele>2420</ele>
        <time>2025-06-13T09:25:42Z</time>
      </trkpt>
      <trkpt lat="44.04738" lon="7.4308">
        <ele>2421</ele>
        <time>2025-06-13T09:25:44Z</time>
      </trkpt>
      <trkpt lat="44.04742" lon="7.43082">
        <ele>2423</ele>
        <time>2025-06-13T09:25:46Z</time>
      </trkpt>
      <trkpt lat="44.04746" lon="7.43076">
        <ele>2424</ele>
        <time>2025-06-13T09:25:49Z</time>
      </trkpt>
      <trkpt lat="44.0475" lon="7.4308">
        <ele>2427</ele>
        <time>2025-06-13T09:25:52Z</time>
      </trkpt>
      <trkpt lat="44.04777" lon="7.43042">
        <ele>2423</ele>
        <time>2025-06-13T09:26:11Z</time>
      </trkpt>
      <trkpt lat="44.04801" lon="7.43037">
        <ele>2422</ele>
        <time>2025-06-13T09:26:23Z</time>
      </trkpt>
      <trkpt lat="44.04812" lon="7.43044">
        <ele>2422</ele>
        <time>2025-06-13T09:26:29Z</time>
      </trkpt>
      <trkpt lat="44.0483" lon="7.43052">
        <ele>2420</ele>
        <time>2025-06-13T09:26:39Z</time>
      </trkpt>
      <trkpt lat="44.04843" lon="7.43069">
        <ele>2416</ele>
        <time>2025-06-13T09:26:48Z</time>
      </trkpt>
      <trkpt lat="44.04863" lon="7.43068">
        <ele>2413</ele>
        <time>2025-06-13T09:26:58Z</time>
      </trkpt>
      <trkpt lat="44.04921" lon="7.43064">
        <ele>2407</ele>
        <time>2025-06-13T09:27:27Z</time>
      </trkpt>
      <trkpt lat="44.0492" lon="7.43075">
        <ele>2406</ele>
        <time>2025-06-13T09:27:31Z</time>
      </trkpt>
      <trkpt lat="44.04921" lon="7.43078">
        <ele>2406</ele>
        <time>2025-06-13T09:27:32Z</time>
      </trkpt>
      <trkpt lat="44.0492" lon="7.43075">
        <ele>2406</ele>
        <time>2025-06-13T09:27:33Z</time>
      </trkpt>
      <trkpt lat="44.04921" lon="7.43064">
        <ele>2407</ele>
        <time>2025-06-13T09:27:37Z</time>
      </trkpt>
      <trkpt lat="44.04918" lon="7.43046">
        <ele>2408</ele>
        <time>2025-06-13T09:27:44Z</time>
      </trkpt>
      <trkpt lat="44.04916" lon="7.43015">
        <ele>2411</ele>
        <time>2025-06-13T09:27:55Z</time>
      </trkpt>
      <trkpt lat="44.04918" lon="7.42974">
        <ele>2416</ele>
        <time>2025-06-13T09:28:10Z</time>
      </trkpt>
      <trkpt lat="44.04935" lon="7.42933">
        <ele>2423</ele>
        <time>2025-06-13T09:28:27Z</time>
      </trkpt>
      <trkpt lat="44.04954" lon="7.42906">
        <ele>2428</ele>
        <time>2025-06-13T09:28:40Z</time>
      </trkpt>
      <trkpt lat="44.04976" lon="7.42883">
        <ele>2434</ele>
        <time>2025-06-13T09:28:54Z</time>
      </trkpt>
      <trkpt lat="44.04977" lon="7.42878">
        <ele>2435</ele>
        <time>2025-06-13T09:28:56Z</time>
      </trkpt>
      <trkpt lat="44.0498" lon="7.42873">
        <ele>2437</ele>
        <time>2025-06-13T09:28:58Z</time>
      </trkpt>
      <trkpt lat="44.0498" lon="7.42866">
        <ele>2438</ele>
        <time>2025-06-13T09:29:01Z</time>
      </trkpt>
      <trkpt lat="44.04984" lon="7.42861">
        <ele>2439</ele>
        <time>2025-06-13T09:29:03Z</time>
      </trkpt>
      <trkpt lat="44.04984" lon="7.42853">
        <ele>2441</ele>
        <time>2025-06-13T09:29:06Z</time>
      </trkpt>
      <trkpt lat="44.04993" lon="7.42843">
        <ele>2442</ele>
        <time>2025-06-13T09:29:12Z</time>
      </trkpt>
      <trkpt lat="44.04995" lon="7.42837">
        <ele>2443</ele>
        <time>2025-06-13T09:29:14Z</time>
      </trkpt>
      <trkpt lat="44.04994" lon="7.42833">
        <ele>2444</ele>
        <time>2025-06-13T09:29:16Z</time>
      </trkpt>
      <trkpt lat="44.04998" lon="7.42831">
        <ele>2445</ele>
        <time>2025-06-13T09:29:18Z</time>
      </trkpt>
      <trkpt lat="44.04995" lon="7.42823">
        <ele>2447</ele>
        <time>2025-06-13T09:29:21Z</time>
      </trkpt>
      <trkpt lat="44.05" lon="7.42817">
        <ele>2449</ele>
        <time>2025-06-13T09:29:25Z</time>
      </trkpt>
      <trkpt lat="44.04994" lon="7.4281">
        <ele>2452</ele>
        <time>2025-06-13T09:29:29Z</time>
      </trkpt>
      <trkpt lat="44.05018" lon="7.42782">
        <ele>2467</ele>
        <time>2025-06-13T09:29:44Z</time>
      </trkpt>
      <trkpt lat="44.05014" lon="7.42776">
        <ele>2468</ele>
        <time>2025-06-13T09:29:47Z</time>
      </trkpt>
      <trkpt lat="44.05029" lon="7.4276">
        <ele>2476</ele>
        <time>2025-06-13T09:29:57Z</time>
      </trkpt>
      <trkpt lat="44.05025" lon="7.42752">
        <ele>2477</ele>
        <time>2025-06-13T09:30:00Z</time>
      </trkpt>
      <trkpt lat="44.05032" lon="7.42749">
        <ele>2479</ele>
        <time>2025-06-13T09:30:04Z</time>
      </trkpt>
      <trkpt lat="44.0504" lon="7.4275">
        <ele>2481</ele>
        <time>2025-06-13T09:30:08Z</time>
      </trkpt>
      <trkpt lat="44.05039" lon="7.42731">
        <ele>2480</ele>
        <time>2025-06-13T09:30:15Z</time>
      </trkpt>
      <trkpt lat="44.05043" lon="7.42729">
        <ele>2481</ele>
        <time>2025-06-13T09:30:17Z</time>
      </trkpt>
      <trkpt lat="44.05047" lon="7.42701">
        <ele>2479</ele>
        <time>2025-06-13T09:30:27Z</time>
      </trkpt>
      <trkpt lat="44.05033" lon="7.42696">
        <ele>2479</ele>
        <time>2025-06-13T09:30:34Z</time>
      </trkpt>
      <trkpt lat="44.0503" lon="7.4268">
        <ele>2480</ele>
        <time>2025-06-13T09:30:40Z</time>
      </trkpt>
      <trkpt lat="44.05024" lon="7.42676">
        <ele>2481</ele>
        <time>2025-06-13T09:30:44Z</time>
      </trkpt>
      <trkpt lat="44.05017" lon="7.42684">
        <ele>2482</ele>
        <time>2025-06-13T09:30:48Z</time>
      </trkpt>
      <trkpt lat="44.05015" lon="7.42684">
        <ele>2482</ele>
        <time>2025-06-13T09:30:49Z</time>
      </trkpt>
      <trkpt lat="44.05014" lon="7.42676">
        <ele>2483</ele>
        <time>2025-06-13T09:30:52Z</time>
      </trkpt>
      <trkpt lat="44.05007" lon="7.42681">
        <ele>2484</ele>
        <time>2025-06-13T09:30:56Z</time>
      </trkpt>
      <trkpt lat="44.04983" lon="7.42684">
        <ele>2486</ele>
        <time>2025-06-13T09:31:08Z</time>
      </trkpt>
      <trkpt lat="44.04987" lon="7.42671">
        <ele>2489</ele>
        <time>2025-06-13T09:31:13Z</time>
      </trkpt>
      <trkpt lat="44.04987" lon="7.42668">
        <ele>2490</ele>
        <time>2025-06-13T09:31:14Z</time>
      </trkpt>
      <trkpt lat="44.04983" lon="7.42666">
        <ele>2491</ele>
        <time>2025-06-13T09:31:16Z</time>
      </trkpt>
      <trkpt lat="44.04988" lon="7.42645">
        <ele>2497</ele>
        <time>2025-06-13T09:31:24Z</time>
      </trkpt>
      <trkpt lat="44.0498" lon="7.42649">
        <ele>2497</ele>
        <time>2025-06-13T09:31:28Z</time>
      </trkpt>
      <trkpt lat="44.04977" lon="7.42647">
        <ele>2499</ele>
        <time>2025-06-13T09:31:30Z</time>
      </trkpt>
      <trkpt lat="44.04981" lon="7.42634">
        <ele>2503</ele>
        <time>2025-06-13T09:31:35Z</time>
      </trkpt>
      <trkpt lat="44.04981" lon="7.42619">
        <ele>2508</ele>
        <time>2025-06-13T09:31:41Z</time>
      </trkpt>
      <trkpt lat="44.04974" lon="7.42619">
        <ele>2510</ele>
        <time>2025-06-13T09:31:44Z</time>
      </trkpt>
      <trkpt lat="44.04968" lon="7.42628">
        <ele>2508</ele>
        <time>2025-06-13T09:31:49Z</time>
      </trkpt>
      <trkpt lat="44.04962" lon="7.42628">
        <ele>2510</ele>
        <time>2025-06-13T09:31:52Z</time>
      </trkpt>
      <trkpt lat="44.04958" lon="7.42627">
        <ele>2511</ele>
        <time>2025-06-13T09:31:54Z</time>
      </trkpt>
      <trkpt lat="44.04959" lon="7.42624">
        <ele>2512</ele>
        <time>2025-06-13T09:31:55Z</time>
      </trkpt>
      <trkpt lat="44.04956" lon="7.42625">
        <ele>2513</ele>
        <time>2025-06-13T09:31:56Z</time>
      </trkpt>
      <trkpt lat="44.04954" lon="7.42625">
        <ele>2513</ele>
        <time>2025-06-13T09:31:57Z</time>
      </trkpt>
      <trkpt lat="44.04953" lon="7.42619">
        <ele>2516</ele>
        <time>2025-06-13T09:32:00Z</time>
      </trkpt>
      <trkpt lat="44.04951" lon="7.4262">
        <ele>2517</ele>
        <time>2025-06-13T09:32:01Z</time>
      </trkpt>
      <trkpt lat="44.0495" lon="7.42617">
        <ele>2518</ele>
        <time>2025-06-13T09:32:02Z</time>
      </trkpt>
      <trkpt lat="44.04954" lon="7.42608">
        <ele>2521</ele>
        <time>2025-06-13T09:32:06Z</time>
      </trkpt>
      <trkpt lat="44.04949" lon="7.4261">
        <ele>2522</ele>
        <time>2025-06-13T09:32:08Z</time>
      </trkpt>
      <trkpt lat="44.04948" lon="7.42608">
        <ele>2523</ele>
        <time>2025-06-13T09:32:09Z</time>
      </trkpt>
      <trkpt lat="44.0495" lon="7.42603">
        <ele>2525</ele>
        <time>2025-06-13T09:32:11Z</time>
      </trkpt>
      <trkpt lat="44.0495" lon="7.426">
        <ele>2526</ele>
        <time>2025-06-13T09:32:12Z</time>
      </trkpt>
      <trkpt lat="44.04949" lon="7.426">
        <ele>2526</ele>
        <time>2025-06-13T09:32:13Z</time>
      </trkpt>
      <trkpt lat="44.04946" lon="7.42601">
        <ele>2527</ele>
        <time>2025-06-13T09:32:14Z</time>
      </trkpt>
      <trkpt lat="44.04945" lon="7.42598">
        <ele>2529</ele>
        <time>2025-06-13T09:32:15Z</time>
      </trkpt>
      <trkpt lat="44.0494" lon="7.42602">
        <ele>2528</ele>
        <time>2025-06-13T09:32:18Z</time>
      </trkpt>
      <trkpt lat="44.04938" lon="7.42601">
        <ele>2530</ele>
        <time>2025-06-13T09:32:19Z</time>
      </trkpt>
      <trkpt lat="44.04938" lon="7.42596">
        <ele>2532</ele>
        <time>2025-06-13T09:32:21Z</time>
      </trkpt>
      <trkpt lat="44.04941" lon="7.42585">
        <ele>2536</ele>
        <time>2025-06-13T09:32:25Z</time>
      </trkpt>
      <trkpt lat="44.04938" lon="7.42573">
        <ele>2541</ele>
        <time>2025-06-13T09:32:30Z</time>
      </trkpt>
      <trkpt lat="44.04934" lon="7.4257">
        <ele>2544</ele>
        <time>2025-06-13T09:32:32Z</time>
      </trkpt>
      <trkpt lat="44.04924" lon="7.42569">
        <ele>2549</ele>
        <time>2025-06-13T09:32:37Z</time>
      </trkpt>
      <trkpt lat="44.04918" lon="7.42566">
        <ele>2552</ele>
        <time>2025-06-13T09:32:40Z</time>
      </trkpt>
      <trkpt lat="44.04918" lon="7.42553">
        <ele>2557</ele>
        <time>2025-06-13T09:32:45Z</time>
      </trkpt>
      <trkpt lat="44.04915" lon="7.42536">
        <ele>2563</ele>
        <time>2025-06-13T09:32:51Z</time>
      </trkpt>
      <trkpt lat="44.04914" lon="7.42521">
        <ele>2568</ele>
        <time>2025-06-13T09:32:57Z</time>
      </trkpt>
      <trkpt lat="44.04909" lon="7.42509">
        <ele>2570</ele>
        <time>2025-06-13T09:33:02Z</time>
      </trkpt>
      <trkpt lat="44.04904" lon="7.4249">
        <ele>2575</ele>
        <time>2025-06-13T09:33:09Z</time>
      </trkpt>
      <trkpt lat="44.049" lon="7.42483">
        <ele>2577</ele>
        <time>2025-06-13T09:33:12Z</time>
      </trkpt>
      <trkpt lat="44.04899" lon="7.42451">
        <ele>2591</ele>
        <time>2025-06-13T09:33:24Z</time>
      </trkpt>
      <trkpt lat="44.04893" lon="7.42437">
        <ele>2595</ele>
        <time>2025-06-13T09:33:30Z</time>
      </trkpt>
      <trkpt lat="44.04896" lon="7.42435">
        <ele>2597</ele>
        <time>2025-06-13T09:33:31Z</time>
      </trkpt>
      <trkpt lat="44.04902" lon="7.42438">
        <ele>2597</ele>
        <time>2025-06-13T09:33:35Z</time>
      </trkpt>
      <trkpt lat="44.04905" lon="7.42434">
        <ele>2600</ele>
        <time>2025-06-13T09:33:37Z</time>
      </trkpt>
      <trkpt lat="44.04905" lon="7.42431">
        <ele>2601</ele>
        <time>2025-06-13T09:33:38Z</time>
      </trkpt>
      <trkpt lat="44.04893" lon="7.42417">
        <ele>2604</ele>
        <time>2025-06-13T09:33:46Z</time>
      </trkpt>
      <trkpt lat="44.04891" lon="7.42413">
        <ele>2605</ele>
        <time>2025-06-13T09:33:47Z</time>
      </trkpt>
      <trkpt lat="44.04894" lon="7.42411">
        <ele>2607</ele>
        <time>2025-06-13T09:33:49Z</time>
      </trkpt>
      <trkpt lat="44.04899" lon="7.4241">
        <ele>2608</ele>
        <time>2025-06-13T09:33:52Z</time>
      </trkpt>
      <trkpt lat="44.04898" lon="7.42408">
        <ele>2609</ele>
        <time>2025-06-13T09:33:52Z</time>
      </trkpt>
      <trkpt lat="44.04892" lon="7.42401">
        <ele>2610</ele>
        <time>2025-06-13T09:33:56Z</time>
      </trkpt>
      <trkpt lat="44.049" lon="7.424">
        <ele>2613</ele>
        <time>2025-06-13T09:34:00Z</time>
      </trkpt>
      <trkpt lat="44.04899" lon="7.42397">
        <ele>2614</ele>
        <time>2025-06-13T09:34:02Z</time>
      </trkpt>
      <trkpt lat="44.04903" lon="7.42395">
        <ele>2615</ele>
        <time>2025-06-13T09:34:04Z</time>
      </trkpt>
      <trkpt lat="44.04901" lon="7.42387">
        <ele>2618</ele>
        <time>2025-06-13T09:34:07Z</time>
      </trkpt>
      <trkpt lat="44.04907" lon="7.42387">
        <ele>2620</ele>
        <time>2025-06-13T09:34:10Z</time>
      </trkpt>
      <trkpt lat="44.049" lon="7.42379">
        <ele>2621</ele>
        <time>2025-06-13T09:34:14Z</time>
      </trkpt>
      <trkpt lat="44.04909" lon="7.42379">
        <ele>2623</ele>
        <time>2025-06-13T09:34:19Z</time>
      </trkpt>
      <trkpt lat="44.04903" lon="7.42364">
        <ele>2628</ele>
        <time>2025-06-13T09:34:25Z</time>
      </trkpt>
      <trkpt lat="44.04907" lon="7.42363">
        <ele>2629</ele>
        <time>2025-06-13T09:34:27Z</time>
      </trkpt>
      <trkpt lat="44.04905" lon="7.42361">
        <ele>2629</ele>
        <time>2025-06-13T09:34:28Z</time>
      </trkpt>
      <trkpt lat="44.04913" lon="7.42359">
        <ele>2632</ele>
        <time>2025-06-13T09:34:32Z</time>
      </trkpt>
      <trkpt lat="44.04908" lon="7.42351">
        <ele>2634</ele>
        <time>2025-06-13T09:34:36Z</time>
      </trkpt>
      <trkpt lat="44.049" lon="7.42348">
        <ele>2633</ele>
        <time>2025-06-13T09:34:40Z</time>
      </trkpt>
      <trkpt lat="44.04903" lon="7.42343">
        <ele>2636</ele>
        <time>2025-06-13T09:34:43Z</time>
      </trkpt>
      <trkpt lat="44.04897" lon="7.42339">
        <ele>2636</ele>
        <time>2025-06-13T09:34:46Z</time>
      </trkpt>
      <trkpt lat="44.04908" lon="7.42331">
        <ele>2642</ele>
        <time>2025-06-13T09:34:52Z</time>
      </trkpt>
      <trkpt lat="44.04903" lon="7.42327">
        <ele>2641</ele>
        <time>2025-06-13T09:34:55Z</time>
      </trkpt>
      <trkpt lat="44.04906" lon="7.42324">
        <ele>2642</ele>
        <time>2025-06-13T09:34:57Z</time>
      </trkpt>
      <trkpt lat="44.04904" lon="7.42321">
        <ele>2642</ele>
        <time>2025-06-13T09:34:58Z</time>
      </trkpt>
      <trkpt lat="44.04907" lon="7.42318">
        <ele>2644</ele>
        <time>2025-06-13T09:35:00Z</time>
      </trkpt>
      <trkpt lat="44.04904" lon="7.42315">
        <ele>2643</ele>
        <time>2025-06-13T09:35:02Z</time>
      </trkpt>
      <trkpt lat="44.04907" lon="7.42309">
        <ele>2645</ele>
        <time>2025-06-13T09:35:05Z</time>
      </trkpt>
      <trkpt lat="44.04906" lon="7.42303">
        <ele>2646</ele>
        <time>2025-06-13T09:35:07Z</time>
      </trkpt>
      <trkpt lat="44.04909" lon="7.42298">
        <ele>2648</ele>
        <time>2025-06-13T09:35:09Z</time>
      </trkpt>
      <trkpt lat="44.04912" lon="7.42289">
        <ele>2651</ele>
        <time>2025-06-13T09:35:13Z</time>
      </trkpt>
      <trkpt lat="44.04909" lon="7.42298">
        <ele>2648</ele>
        <time>2025-06-13T09:35:16Z</time>
      </trkpt>
      <trkpt lat="44.04906" lon="7.42303">
        <ele>2646</ele>
        <time>2025-06-13T09:35:19Z</time>
      </trkpt>
      <trkpt lat="44.04907" lon="7.42309">
        <ele>2645</ele>
        <time>2025-06-13T09:35:21Z</time>
      </trkpt>
      <trkpt lat="44.04904" lon="7.42315">
        <ele>2643</ele>
        <time>2025-06-13T09:35:24Z</time>
      </trkpt>
      <trkpt lat="44.04907" lon="7.42318">
        <ele>2644</ele>
        <time>2025-06-13T09:35:25Z</time>
      </trkpt>
      <trkpt lat="44.04904" lon="7.42321">
        <ele>2642</ele>
        <time>2025-06-13T09:35:27Z</time>
      </trkpt>
      <trkpt lat="44.04906" lon="7.42324">
        <ele>2642</ele>
        <time>2025-06-13T09:35:29Z</time>
      </trkpt>
      <trkpt lat="44.04903" lon="7.42327">
        <ele>2641</ele>
        <time>2025-06-13T09:35:31Z</time>
      </trkpt>
      <trkpt lat="44.04908" lon="7.42331">
        <ele>2642</ele>
        <time>2025-06-13T09:35:33Z</time>
      </trkpt>
      <trkpt lat="44.04897" lon="7.42339">
        <ele>2636</ele>
        <time>2025-06-13T09:35:40Z</time>
      </trkpt>
      <trkpt lat="44.04903" lon="7.42343">
        <ele>2636</ele>
        <time>2025-06-13T09:35:43Z</time>
      </trkpt>
      <trkpt lat="44.049" lon="7.42348">
        <ele>2633</ele>
        <time>2025-06-13T09:35:45Z</time>
      </trkpt>
      <trkpt lat="44.04908" lon="7.42351">
        <ele>2634</ele>
        <time>2025-06-13T09:35:49Z</time>
      </trkpt>
      <trkpt lat="44.04913" lon="7.42359">
        <ele>2632</ele>
        <time>2025-06-13T09:35:53Z</time>
      </trkpt>
      <trkpt lat="44.04905" lon="7.42361">
        <ele>2629</ele>
        <time>2025-06-13T09:35:57Z</time>
      </trkpt>
      <trkpt lat="44.04907" lon="7.42363">
        <ele>2629</ele>
        <time>2025-06-13T09:35:59Z</time>
      </trkpt>
      <trkpt lat="44.04903" lon="7.42364">
        <ele>2628</ele>
        <time>2025-06-13T09:36:01Z</time>
      </trkpt>
      <trkpt lat="44.04909" lon="7.42379">
        <ele>2623</ele>
        <time>2025-06-13T09:36:07Z</time>
      </trkpt>
      <trkpt lat="44.049" lon="7.42379">
        <ele>2621</ele>
        <time>2025-06-13T09:36:11Z</time>
      </trkpt>
      <trkpt lat="44.04907" lon="7.42387">
        <ele>2620</ele>
        <time>2025-06-13T09:36:16Z</time>
      </trkpt>
      <trkpt lat="44.04901" lon="7.42387">
        <ele>2618</ele>
        <time>2025-06-13T09:36:19Z</time>
      </trkpt>
      <trkpt lat="44.04903" lon="7.42395">
        <ele>2615</ele>
        <time>2025-06-13T09:36:22Z</time>
      </trkpt>
      <trkpt lat="44.04899" lon="7.42397">
        <ele>2614</ele>
        <time>2025-06-13T09:36:24Z</time>
      </trkpt>
      <trkpt lat="44.049" lon="7.424">
        <ele>2613</ele>
        <time>2025-06-13T09:36:25Z</time>
      </trkpt>
      <trkpt lat="44.04892" lon="7.42401">
        <ele>2610</ele>
        <time>2025-06-13T09:36:29Z</time>
      </trkpt>
      <trkpt lat="44.04898" lon="7.42408">
        <ele>2609</ele>
        <time>2025-06-13T09:36:33Z</time>
      </trkpt>
      <trkpt lat="44.04899" lon="7.4241">
        <ele>2608</ele>
        <time>2025-06-13T09:36:34Z</time>
      </trkpt>
      <trkpt lat="44.04894" lon="7.42411">
        <ele>2607</ele>
        <time>2025-06-13T09:36:37Z</time>
      </trkpt>
      <trkpt lat="44.04891" lon="7.42413">
        <ele>2605</ele>
        <time>2025-06-13T09:36:38Z</time>
      </trkpt>
      <trkpt lat="44.04893" lon="7.42417">
        <ele>2604</ele>
        <time>2025-06-13T09:36:40Z</time>
      </trkpt>
      <trkpt lat="44.04905" lon="7.42431">
        <ele>2601</ele>
        <time>2025-06-13T09:36:48Z</time>
      </trkpt>
      <trkpt lat="44.04905" lon="7.42434">
        <ele>2600</ele>
        <time>2025-06-13T09:36:49Z</time>
      </trkpt>
      <trkpt lat="44.04902" lon="7.42438">
        <ele>2597</ele>
        <time>2025-06-13T09:36:51Z</time>
      </trkpt>
      <trkpt lat="44.04896" lon="7.42435">
        <ele>2597</ele>
        <time>2025-06-13T09:36:54Z</time>
      </trkpt>
      <trkpt lat="44.04893" lon="7.42437">
        <ele>2595</ele>
        <time>2025-06-13T09:36:56Z</time>
      </trkpt>
      <trkpt lat="44.04899" lon="7.42451">
        <ele>2591</ele>
        <time>2025-06-13T09:37:02Z</time>
      </trkpt>
      <trkpt lat="44.049" lon="7.42483">
        <ele>2577</ele>
        <time>2025-06-13T09:37:13Z</time>
      </trkpt>
      <trkpt lat="44.04904" lon="7.4249">
        <ele>2575</ele>
        <time>2025-06-13T09:37:16Z</time>
      </trkpt>
      <trkpt lat="44.04909" lon="7.42509">
        <ele>2570</ele>
        <time>2025-06-13T09:37:24Z</time>
      </trkpt>
      <trkpt lat="44.04914" lon="7.42521">
        <ele>2568</ele>
        <time>2025-06-13T09:37:29Z</time>
      </trkpt>
      <trkpt lat="44.04915" lon="7.42536">
        <ele>2563</ele>
        <time>2025-06-13T09:37:34Z</time>
      </trkpt>
      <trkpt lat="44.04918" lon="7.42553">
        <ele>2557</ele>
        <time>2025-06-13T09:37:40Z</time>
      </trkpt>
      <trkpt lat="44.04918" lon="7.42566">
        <ele>2552</ele>
        <time>2025-06-13T09:37:45Z</time>
      </trkpt>
      <trkpt lat="44.04924" lon="7.42569">
        <ele>2549</ele>
        <time>2025-06-13T09:37:48Z</time>
      </trkpt>
      <trkpt lat="44.04934" lon="7.4257">
        <ele>2544</ele>
        <time>2025-06-13T09:37:53Z</time>
      </trkpt>
      <trkpt lat="44.04938" lon="7.42573">
        <ele>2541</ele>
        <time>2025-06-13T09:37:56Z</time>
      </trkpt>
      <trkpt lat="44.04941" lon="7.42585">
        <ele>2536</ele>
        <time>2025-06-13T09:38:00Z</time>
      </trkpt>
      <trkpt lat="44.04938" lon="7.42596">
        <ele>2532</ele>
        <time>2025-06-13T09:38:04Z</time>
      </trkpt>
      <trkpt lat="44.04938" lon="7.42601">
        <ele>2530</ele>
        <time>2025-06-13T09:38:06Z</time>
      </trkpt>
      <trkpt lat="44.0494" lon="7.42602">
        <ele>2528</ele>
        <time>2025-06-13T09:38:07Z</time>
      </trkpt>
      <trkpt lat="44.04945" lon="7.42598">
        <ele>2529</ele>
        <time>2025-06-13T09:38:10Z</time>
      </trkpt>
      <trkpt lat="44.04946" lon="7.42601">
        <ele>2527</ele>
        <time>2025-06-13T09:38:11Z</time>
      </trkpt>
      <trkpt lat="44.04949" lon="7.426">
        <ele>2526</ele>
        <time>2025-06-13T09:38:13Z</time>
      </trkpt>
      <trkpt lat="44.0495" lon="7.426">
        <ele>2526</ele>
        <time>2025-06-13T09:38:13Z</time>
      </trkpt>
      <trkpt lat="44.0495" lon="7.42603">
        <ele>2525</ele>
        <time>2025-06-13T09:38:14Z</time>
      </trkpt>
      <trkpt lat="44.04948" lon="7.42608">
        <ele>2523</ele>
        <time>2025-06-13T09:38:16Z</time>
      </trkpt>
      <trkpt lat="44.04949" lon="7.4261">
        <ele>2522</ele>
        <time>2025-06-13T09:38:17Z</time>
      </trkpt>
      <trkpt lat="44.04954" lon="7.42608">
        <ele>2521</ele>
        <time>2025-06-13T09:38:20Z</time>
      </trkpt>
      <trkpt lat="44.0495" lon="7.42617">
        <ele>2518</ele>
        <time>2025-06-13T09:38:24Z</time>
      </trkpt>
      <trkpt lat="44.04951" lon="7.4262">
        <ele>2517</ele>
        <time>2025-06-13T09:38:25Z</time>
      </trkpt>
      <trkpt lat="44.04953" lon="7.42619">
        <ele>2516</ele>
        <time>2025-06-13T09:38:26Z</time>
      </trkpt>
      <trkpt lat="44.04954" lon="7.42625">
        <ele>2513</ele>
        <time>2025-06-13T09:38:28Z</time>
      </trkpt>
      <trkpt lat="44.04956" lon="7.42625">
        <ele>2513</ele>
        <time>2025-06-13T09:38:29Z</time>
      </trkpt>
      <trkpt lat="44.04959" lon="7.42624">
        <ele>2512</ele>
        <time>2025-06-13T09:38:31Z</time>
      </trkpt>
      <trkpt lat="44.04958" lon="7.42627">
        <ele>2511</ele>
        <time>2025-06-13T09:38:32Z</time>
      </trkpt>
      <trkpt lat="44.04962" lon="7.42628">
        <ele>2510</ele>
        <time>2025-06-13T09:38:34Z</time>
      </trkpt>
      <trkpt lat="44.04968" lon="7.42628">
        <ele>2508</ele>
        <time>2025-06-13T09:38:37Z</time>
      </trkpt>
      <trkpt lat="44.04974" lon="7.42619">
        <ele>2510</ele>
        <time>2025-06-13T09:38:41Z</time>
      </trkpt>
      <trkpt lat="44.04981" lon="7.42619">
        <ele>2508</ele>
        <time>2025-06-13T09:38:45Z</time>
      </trkpt>
      <trkpt lat="44.04981" lon="7.42634">
        <ele>2503</ele>
        <time>2025-06-13T09:38:50Z</time>
      </trkpt>
      <trkpt lat="44.04977" lon="7.42647">
        <ele>2499</ele>
        <time>2025-06-13T09:38:55Z</time>
      </trkpt>
      <trkpt lat="44.0498" lon="7.42649">
        <ele>2497</ele>
        <time>2025-06-13T09:38:57Z</time>
      </trkpt>
      <trkpt lat="44.04988" lon="7.42645">
        <ele>2497</ele>
        <time>2025-06-13T09:39:01Z</time>
      </trkpt>
      <trkpt lat="44.04983" lon="7.42666">
        <ele>2491</ele>
        <time>2025-06-13T09:39:09Z</time>
      </trkpt>
      <trkpt lat="44.04987" lon="7.42668">
        <ele>2490</ele>
        <time>2025-06-13T09:39:11Z</time>
      </trkpt>
      <trkpt lat="44.04987" lon="7.42671">
        <ele>2489</ele>
        <time>2025-06-13T09:39:12Z</time>
      </trkpt>
      <trkpt lat="44.04983" lon="7.42684">
        <ele>2486</ele>
        <time>2025-06-13T09:39:18Z</time>
      </trkpt>
      <trkpt lat="44.05007" lon="7.42681">
        <ele>2484</ele>
        <time>2025-06-13T09:39:30Z</time>
      </trkpt>
      <trkpt lat="44.05014" lon="7.42676">
        <ele>2483</ele>
        <time>2025-06-13T09:39:34Z</time>
      </trkpt>
      <trkpt lat="44.05015" lon="7.42684">
        <ele>2482</ele>
        <time>2025-06-13T09:39:36Z</time>
      </trkpt>
      <trkpt lat="44.05017" lon="7.42684">
        <ele>2482</ele>
        <time>2025-06-13T09:39:37Z</time>
      </trkpt>
      <trkpt lat="44.05024" lon="7.42676">
        <ele>2481</ele>
        <time>2025-06-13T09:39:42Z</time>
      </trkpt>
      <trkpt lat="44.0503" lon="7.4268">
        <ele>2480</ele>
        <time>2025-06-13T09:39:45Z</time>
      </trkpt>
      <trkpt lat="44.05033" lon="7.42696">
        <ele>2479</ele>
        <time>2025-06-13T09:39:51Z</time>
      </trkpt>
      <trkpt lat="44.05047" lon="7.42701">
        <ele>2479</ele>
        <time>2025-06-13T09:39:58Z</time>
      </trkpt>
      <trkpt lat="44.05043" lon="7.42729">
        <ele>2481</ele>
        <time>2025-06-13T09:40:09Z</time>
      </trkpt>
      <trkpt lat="44.05039" lon="7.42731">
        <ele>2480</ele>
        <time>2025-06-13T09:40:11Z</time>
      </trkpt>
      <trkpt lat="44.0504" lon="7.4275">
        <ele>2481</ele>
        <time>2025-06-13T09:40:18Z</time>
      </trkpt>
      <trkpt lat="44.05032" lon="7.42749">
        <ele>2479</ele>
        <time>2025-06-13T09:40:22Z</time>
      </trkpt>
      <trkpt lat="44.05025" lon="7.42752">
        <ele>2477</ele>
        <time>2025-06-13T09:40:25Z</time>
      </trkpt>
      <trkpt lat="44.05029" lon="7.4276">
        <ele>2476</ele>
        <time>2025-06-13T09:40:29Z</time>
      </trkpt>
      <trkpt lat="44.05014" lon="7.42776">
        <ele>2468</ele>
        <time>2025-06-13T09:40:38Z</time>
      </trkpt>
      <trkpt lat="44.05018" lon="7.42782">
        <ele>2467</ele>
        <time>2025-06-13T09:40:41Z</time>
      </trkpt>
      <trkpt lat="44.04994" lon="7.4281">
        <ele>2452</ele>
        <time>2025-06-13T09:40:57Z</time>
      </trkpt>
      <trkpt lat="44.05" lon="7.42817">
        <ele>2449</ele>
        <time>2025-06-13T09:41:01Z</time>
      </trkpt>
      <trkpt lat="44.04995" lon="7.42823">
        <ele>2447</ele>
        <time>2025-06-13T09:41:04Z</time>
      </trkpt>
      <trkpt lat="44.04998" lon="7.42831">
        <ele>2445</ele>
        <time>2025-06-13T09:41:07Z</time>
      </trkpt>
      <trkpt lat="44.04994" lon="7.42833">
        <ele>2444</ele>
        <time>2025-06-13T09:41:10Z</time>
      </trkpt>
      <trkpt lat="44.04995" lon="7.42837">
        <ele>2443</ele>
        <time>2025-06-13T09:41:11Z</time>
      </trkpt>
      <trkpt lat="44.04993" lon="7.42843">
        <ele>2442</ele>
        <time>2025-06-13T09:41:14Z</time>
      </trkpt>
      <trkpt lat="44.04984" lon="7.42853">
        <ele>2441</ele>
        <time>2025-06-13T09:41:19Z</time>
      </trkpt>
      <trkpt lat="44.04984" lon="7.42861">
        <ele>2439</ele>
        <time>2025-06-13T09:41:22Z</time>
      </trkpt>
      <trkpt lat="44.0498" lon="7.42866">
        <ele>2438</ele>
        <time>2025-06-13T09:41:25Z</time>
      </trkpt>
      <trkpt lat="44.0498" lon="7.42873">
        <ele>2437</ele>
        <time>2025-06-13T09:41:27Z</time>
      </trkpt>
      <trkpt lat="44.04977" lon="7.42878">
        <ele>2435</ele>
        <time>2025-06-13T09:41:30Z</time>
      </trkpt>
      <trkpt lat="44.04976" lon="7.42883">
        <ele>2434</ele>
        <time>2025-06-13T09:41:32Z</time>
      </trkpt>
      <trkpt lat="44.04954" lon="7.42906">
        <ele>2428</ele>
        <time>2025-06-13T09:41:45Z</time>
      </trkpt>
      <trkpt lat="44.04935" lon="7.42933">
        <ele>2423</ele>
        <time>2025-06-13T09:41:59Z</time>
      </trkpt>
      <trkpt lat="44.04918" lon="7.42974">
        <ele>2416</ele>
        <time>2025-06-13T09:42:16Z</time>
      </trkpt>
      <trkpt lat="44.04916" lon="7.43015">
        <ele>2411</ele>
        <time>2025-06-13T09:42:31Z</time>
      </trkpt>
      <trkpt lat="44.04918" lon="7.43046">
        <ele>2408</ele>
        <time>2025-06-13T09:42:42Z</time>
      </trkpt>
      <trkpt lat="44.04921" lon="7.43064">
        <ele>2407</ele>
        <time>2025-06-13T09:42:49Z</time>
      </trkpt>
      <trkpt lat="44.0492" lon="7.43075">
        <ele>2406</ele>
        <time>2025-06-13T09:42:53Z</time>
      </trkpt>
      <trkpt lat="44.04923" lon="7.43086">
        <ele>2406</ele>
        <time>2025-06-13T09:42:57Z</time>
      </trkpt>
      <trkpt lat="44.04925" lon="7.43096">
        <ele>2405</ele>
        <time>2025-06-13T09:43:01Z</time>
      </trkpt>
      <trkpt lat="44.04928" lon="7.43107">
        <ele>2405</ele>
        <time>2025-06-13T09:43:05Z</time>
      </trkpt>
      <trkpt lat="44.04928" lon="7.43124">
        <ele>2402</ele>
        <time>2025-06-13T09:43:11Z</time>
      </trkpt>
      <trkpt lat="44.04932" lon="7.43133">
        <ele>2402</ele>
        <time>2025-06-13T09:43:15Z</time>
      </trkpt>
      <trkpt lat="44.04931" lon="7.43148">
        <ele>2400</ele>
        <time>2025-06-13T09:43:20Z</time>
      </trkpt>
      <trkpt lat="44.04927" lon="7.43163">
        <ele>2397</ele>
        <time>2025-06-13T09:43:26Z</time>
      </trkpt>
      <trkpt lat="44.04928" lon="7.43169">
        <ele>2396</ele>
        <time>2025-06-13T09:43:28Z</time>
      </trkpt>
      <trkpt lat="44.04927" lon="7.43176">
        <ele>2395</ele>
        <time>2025-06-13T09:43:31Z</time>
      </trkpt>
      <trkpt lat="44.04929" lon="7.43184">
        <ele>2394</ele>
        <time>2025-06-13T09:43:34Z</time>
      </trkpt>
      <trkpt lat="44.04938" lon="7.43192">
        <ele>2394</ele>
        <time>2025-06-13T09:43:39Z</time>
      </trkpt>
      <trkpt lat="44.04943" lon="7.4321">
        <ele>2392</ele>
        <time>2025-06-13T09:43:46Z</time>
      </trkpt>
      <trkpt lat="44.04942" lon="7.43226">
        <ele>2389</ele>
        <time>2025-06-13T09:43:52Z</time>
      </trkpt>
      <trkpt lat="44.04948" lon="7.43246">
        <ele>2386</ele>
        <time>2025-06-13T09:44:00Z</time>
      </trkpt>
      <trkpt lat="44.04949" lon="7.43267">
        <ele>2383</ele>
        <time>2025-06-13T09:44:07Z</time>
      </trkpt>
      <trkpt lat="44.04968" lon="7.43297">
        <ele>2380</ele>
        <time>2025-06-13T09:44:21Z</time>
      </trkpt>
      <trkpt lat="44.04968" lon="7.43308">
        <ele>2379</ele>
        <time>2025-06-13T09:44:25Z</time>
      </trkpt>
      <trkpt lat="44.04972" lon="7.43328">
        <ele>2376</ele>
        <time>2025-06-13T09:44:33Z</time>
      </trkpt>
      <trkpt lat="44.04973" lon="7.43343">
        <ele>2373</ele>
        <time>2025-06-13T09:44:38Z</time>
      </trkpt>
      <trkpt lat="44.04977" lon="7.43344">
        <ele>2373</ele>
        <time>2025-06-13T09:44:40Z</time>
      </trkpt>
      <trkpt lat="44.04982" lon="7.43338">
        <ele>2374</ele>
        <time>2025-06-13T09:44:44Z</time>
      </trkpt>
      <trkpt lat="44.04986" lon="7.43338">
        <ele>2375</ele>
        <time>2025-06-13T09:44:46Z</time>
      </trkpt>
      <trkpt lat="44.04993" lon="7.43343">
        <ele>2374</ele>
        <time>2025-06-13T09:44:50Z</time>
      </trkpt>
      <trkpt lat="44.05" lon="7.43341">
        <ele>2375</ele>
        <time>2025-06-13T09:44:53Z</time>
      </trkpt>
      <trkpt lat="44.05003" lon="7.43344">
        <ele>2375</ele>
        <time>2025-06-13T09:44:55Z</time>
      </trkpt>
      <trkpt lat="44.05009" lon="7.43343">
        <ele>2376</ele>
        <time>2025-06-13T09:44:58Z</time>
      </trkpt>
      <trkpt lat="44.05015" lon="7.43345">
        <ele>2377</ele>
        <time>2025-06-13T09:45:01Z</time>
      </trkpt>
      <trkpt lat="44.05016" lon="7.4336">
        <ele>2374</ele>
        <time>2025-06-13T09:45:07Z</time>
      </trkpt>
      <trkpt lat="44.05014" lon="7.43361">
        <ele>2374</ele>
        <time>2025-06-13T09:45:08Z</time>
      </trkpt>
      <trkpt lat="44.05014" lon="7.43364">
        <ele>2373</ele>
        <time>2025-06-13T09:45:09Z</time>
      </trkpt>
      <trkpt lat="44.05016" lon="7.43369">
        <ele>2372</ele>
        <time>2025-06-13T09:45:11Z</time>
      </trkpt>
      <trkpt lat="44.05014" lon="7.43382">
        <ele>2369</ele>
        <time>2025-06-13T09:45:16Z</time>
      </trkpt>
      <trkpt lat="44.05022" lon="7.4341">
        <ele>2364</ele>
        <time>2025-06-13T09:45:26Z</time>
      </trkpt>
      <trkpt lat="44.05025" lon="7.43433">
        <ele>2360</ele>
        <time>2025-06-13T09:45:35Z</time>
      </trkpt>
      <trkpt lat="44.05024" lon="7.43435">
        <ele>2360</ele>
        <time>2025-06-13T09:45:36Z</time>
      </trkpt>
      <trkpt lat="44.05027" lon="7.43464">
        <ele>2356</ele>
        <time>2025-06-13T09:45:46Z</time>
      </trkpt>
      <trkpt lat="44.0503" lon="7.43474">
        <ele>2354</ele>
        <time>2025-06-13T09:45:50Z</time>
      </trkpt>
      <trkpt lat="44.05029" lon="7.43484">
        <ele>2353</ele>
        <time>2025-06-13T09:45:54Z</time>
      </trkpt>
      <trkpt lat="44.05032" lon="7.43492">
        <ele>2351</ele>
        <time>2025-06-13T09:45:57Z</time>
      </trkpt>
      <trkpt lat="44.05027" lon="7.4351">
        <ele>2349</ele>
        <time>2025-06-13T09:46:04Z</time>
      </trkpt>
      <trkpt lat="44.05033" lon="7.43518">
        <ele>2347</ele>
        <time>2025-06-13T09:46:08Z</time>
      </trkpt>
      <trkpt lat="44.05039" lon="7.4354">
        <ele>2342</ele>
        <time>2025-06-13T09:46:17Z</time>
      </trkpt>
      <trkpt lat="44.05043" lon="7.43545">
        <ele>2341</ele>
        <time>2025-06-13T09:46:19Z</time>
      </trkpt>
      <trkpt lat="44.0504" lon="7.43576">
        <ele>2336</ele>
        <time>2025-06-13T09:46:30Z</time>
      </trkpt>
      <trkpt lat="44.05045" lon="7.43585">
        <ele>2333</ele>
        <time>2025-06-13T09:46:35Z</time>
      </trkpt>
      <trkpt lat="44.05051" lon="7.43579">
        <ele>2333</ele>
        <time>2025-06-13T09:46:38Z</time>
      </trkpt>
      <trkpt lat="44.05061" lon="7.43594">
        <ele>2329</ele>
        <time>2025-06-13T09:46:46Z</time>
      </trkpt>
      <trkpt lat="44.05066" lon="7.43597">
        <ele>2328</ele>
        <time>2025-06-13T09:46:48Z</time>
      </trkpt>
      <trkpt lat="44.05076" lon="7.43611">
        <ele>2324</ele>
        <time>2025-06-13T09:46:55Z</time>
      </trkpt>
      <trkpt lat="44.0508" lon="7.43611">
        <ele>2324</ele>
        <time>2025-06-13T09:46:57Z</time>
      </trkpt>
      <trkpt lat="44.05086" lon="7.43626">
        <ele>2321</ele>
        <time>2025-06-13T09:47:04Z</time>
      </trkpt>
      <trkpt lat="44.05094" lon="7.43627">
        <ele>2322</ele>
        <time>2025-06-13T09:47:08Z</time>
      </trkpt>
      <trkpt lat="44.05097" lon="7.43638">
        <ele>2320</ele>
        <time>2025-06-13T09:47:12Z</time>
      </trkpt>
      <trkpt lat="44.05096" lon="7.43643">
        <ele>2319</ele>
        <time>2025-06-13T09:47:14Z</time>
      </trkpt>
      <trkpt lat="44.05098" lon="7.43657">
        <ele>2317</ele>
        <time>2025-06-13T09:47:19Z</time>
      </trkpt>
      <trkpt lat="44.05102" lon="7.4367">
        <ele>2314</ele>
        <time>2025-06-13T09:47:24Z</time>
      </trkpt>
      <trkpt lat="44.05107" lon="7.43671">
        <ele>2314</ele>
        <time>2025-06-13T09:47:26Z</time>
      </trkpt>
      <trkpt lat="44.05107" lon="7.43677">
        <ele>2313</ele>
        <time>2025-06-13T09:47:29Z</time>
      </trkpt>
      <trkpt lat="44.05109" lon="7.43685">
        <ele>2311</ele>
        <time>2025-06-13T09:47:32Z</time>
      </trkpt>
      <trkpt lat="44.0511" lon="7.43696">
        <ele>2308</ele>
        <time>2025-06-13T09:47:36Z</time>
      </trkpt>
      <trkpt lat="44.05114" lon="7.43699">
        <ele>2308</ele>
        <time>2025-06-13T09:47:38Z</time>
      </trkpt>
      <trkpt lat="44.05114" lon="7.43707">
        <ele>2306</ele>
        <time>2025-06-13T09:47:41Z</time>
      </trkpt>
      <trkpt lat="44.05118" lon="7.43709">
        <ele>2306</ele>
        <time>2025-06-13T09:47:43Z</time>
      </trkpt>
      <trkpt lat="44.05117" lon="7.43716">
        <ele>2304</ele>
        <time>2025-06-13T09:47:46Z</time>
      </trkpt>
      <trkpt lat="44.05123" lon="7.43721">
        <ele>2304</ele>
        <time>2025-06-13T09:47:49Z</time>
      </trkpt>
      <trkpt lat="44.05126" lon="7.4373">
        <ele>2302</ele>
        <time>2025-06-13T09:47:53Z</time>
      </trkpt>
      <trkpt lat="44.05124" lon="7.4374">
        <ele>2299</ele>
        <time>2025-06-13T09:47:56Z</time>
      </trkpt>
      <trkpt lat="44.05121" lon="7.43743">
        <ele>2298</ele>
        <time>2025-06-13T09:47:58Z</time>
      </trkpt>
      <trkpt lat="44.05125" lon="7.43748">
        <ele>2297</ele>
        <time>2025-06-13T09:48:01Z</time>
      </trkpt>
      <trkpt lat="44.05123" lon="7.43752">
        <ele>2297</ele>
        <time>2025-06-13T09:48:03Z</time>
      </trkpt>
      <trkpt lat="44.0513" lon="7.43752">
        <ele>2297</ele>
        <time>2025-06-13T09:48:06Z</time>
      </trkpt>
      <trkpt lat="44.05133" lon="7.43756">
        <ele>2297</ele>
        <time>2025-06-13T09:48:08Z</time>
      </trkpt>
      <trkpt lat="44.05133" lon="7.43762">
        <ele>2297</ele>
        <time>2025-06-13T09:48:10Z</time>
      </trkpt>
      <trkpt lat="44.05135" lon="7.43766">
        <ele>2297</ele>
        <time>2025-06-13T09:48:12Z</time>
      </trkpt>
      <trkpt lat="44.05138" lon="7.43789">
        <ele>2295</ele>
        <time>2025-06-13T09:48:21Z</time>
      </trkpt>
      <trkpt lat="44.05133" lon="7.43829">
        <ele>2290</ele>
        <time>2025-06-13T09:48:35Z</time>
      </trkpt>
      <trkpt lat="44.05132" lon="7.43853">
        <ele>2289</ele>
        <time>2025-06-13T09:48:44Z</time>
      </trkpt>
      <trkpt lat="44.0514" lon="7.43881">
        <ele>2290</ele>
        <time>2025-06-13T09:48:55Z</time>
      </trkpt>
      <trkpt lat="44.05138" lon="7.4389">
        <ele>2289</ele>
        <time>2025-06-13T09:48:58Z</time>
      </trkpt>
      <trkpt lat="44.05137" lon="7.43903">
        <ele>2289</ele>
        <time>2025-06-13T09:49:03Z</time>
      </trkpt>
      <trkpt lat="44.05128" lon="7.43918">
        <ele>2287</ele>
        <time>2025-06-13T09:49:10Z</time>
      </trkpt>
      <trkpt lat="44.05128" lon="7.43943">
        <ele>2286</ele>
        <time>2025-06-13T09:49:19Z</time>
      </trkpt>
      <trkpt lat="44.05116" lon="7.43961">
        <ele>2284</ele>
        <time>2025-06-13T09:49:28Z</time>
      </trkpt>
      <trkpt lat="44.0512" lon="7.43966">
        <ele>2284</ele>
        <time>2025-06-13T09:49:30Z</time>
      </trkpt>
      <trkpt lat="44.05122" lon="7.43978">
        <ele>2284</ele>
        <time>2025-06-13T09:49:35Z</time>
      </trkpt>
      <trkpt lat="44.05127" lon="7.43982">
        <ele>2285</ele>
        <time>2025-06-13T09:49:38Z</time>
      </trkpt>
      <trkpt lat="44.05133" lon="7.43984">
        <ele>2286</ele>
        <time>2025-06-13T09:49:41Z</time>
      </trkpt>
      <trkpt lat="44.05139" lon="7.44028">
        <ele>2284</ele>
        <time>2025-06-13T09:49:57Z</time>
      </trkpt>
      <trkpt lat="44.05141" lon="7.44032">
        <ele>2284</ele>
        <time>2025-06-13T09:49:59Z</time>
      </trkpt>
      <trkpt lat="44.05144" lon="7.44024">
        <ele>2285</ele>
        <time>2025-06-13T09:50:02Z</time>
      </trkpt>
      <trkpt lat="44.05147" lon="7.44022">
        <ele>2286</ele>
        <time>2025-06-13T09:50:03Z</time>
      </trkpt>
      <trkpt lat="44.0515" lon="7.44047">
        <ele>2284</ele>
        <time>2025-06-13T09:50:13Z</time>
      </trkpt>
      <trkpt lat="44.05154" lon="7.44052">
        <ele>2284</ele>
        <time>2025-06-13T09:50:15Z</time>
      </trkpt>
      <trkpt lat="44.05157" lon="7.44049">
        <ele>2284</ele>
        <time>2025-06-13T09:50:17Z</time>
      </trkpt>
      <trkpt lat="44.05161" lon="7.44049">
        <ele>2285</ele>
        <time>2025-06-13T09:50:19Z</time>
      </trkpt>
      <trkpt lat="44.05166" lon="7.44058">
        <ele>2285</ele>
        <time>2025-06-13T09:50:23Z</time>
      </trkpt>
      <trkpt lat="44.05168" lon="7.44066">
        <ele>2284</ele>
        <time>2025-06-13T09:50:26Z</time>
      </trkpt>
      <trkpt lat="44.05167" lon="7.44077">
        <ele>2283</ele>
        <time>2025-06-13T09:50:30Z</time>
      </trkpt>
      <trkpt lat="44.05169" lon="7.44083">
        <ele>2283</ele>
        <time>2025-06-13T09:50:33Z</time>
      </trkpt>
      <trkpt lat="44.05169" lon="7.44132">
        <ele>2278</ele>
        <time>2025-06-13T09:50:50Z</time>
      </trkpt>
      <trkpt lat="44.05179" lon="7.44175">
        <ele>2276</ele>
        <time>2025-06-13T09:51:06Z</time>
      </trkpt>
      <trkpt lat="44.05171" lon="7.44216">
        <ele>2272</ele>
        <time>2025-06-13T09:51:22Z</time>
      </trkpt>
      <trkpt lat="44.05171" lon="7.44237">
        <ele>2271</ele>
        <time>2025-06-13T09:51:29Z</time>
      </trkpt>
      <trkpt lat="44.0517" lon="7.44257">
        <ele>2270</ele>
        <time>2025-06-13T09:51:36Z</time>
      </trkpt>
      <trkpt lat="44.05198" lon="7.44286">
        <ele>2267</ele>
        <time>2025-06-13T09:51:54Z</time>
      </trkpt>
      <trkpt lat="44.05198" lon="7.44297">
        <ele>2266</ele>
        <time>2025-06-13T09:51:58Z</time>
      </trkpt>
      <trkpt lat="44.05201" lon="7.44307">
        <ele>2265</ele>
        <time>2025-06-13T09:52:02Z</time>
      </trkpt>
      <trkpt lat="44.05198" lon="7.44324">
        <ele>2263</ele>
        <time>2025-06-13T09:52:08Z</time>
      </trkpt>
      <trkpt lat="44.05201" lon="7.44332">
        <ele>2262</ele>
        <time>2025-06-13T09:52:11Z</time>
      </trkpt>
      <trkpt lat="44.05206" lon="7.44334">
        <ele>2261</ele>
        <time>2025-06-13T09:52:14Z</time>
      </trkpt>
      <trkpt lat="44.0521" lon="7.44341">
        <ele>2261</ele>
        <time>2025-06-13T09:52:17Z</time>
      </trkpt>
      <trkpt lat="44.05209" lon="7.44355">
        <ele>2261</ele>
        <time>2025-06-13T09:52:22Z</time>
      </trkpt>
      <trkpt lat="44.0521" lon="7.44366">
        <ele>2262</ele>
        <time>2025-06-13T09:52:26Z</time>
      </trkpt>
      <trkpt lat="44.05207" lon="7.4437">
        <ele>2262</ele>
        <time>2025-06-13T09:52:28Z</time>
      </trkpt>
      <trkpt lat="44.05205" lon="7.44376">
        <ele>2262</ele>
        <time>2025-06-13T09:52:31Z</time>
      </trkpt>
      <trkpt lat="44.05206" lon="7.4439">
        <ele>2263</ele>
        <time>2025-06-13T09:52:36Z</time>
      </trkpt>
      <trkpt lat="44.05209" lon="7.44398">
        <ele>2262</ele>
        <time>2025-06-13T09:52:39Z</time>
      </trkpt>
      <trkpt lat="44.05209" lon="7.44402">
        <ele>2263</ele>
        <time>2025-06-13T09:52:40Z</time>
      </trkpt>
      <trkpt lat="44.05207" lon="7.44403">
        <ele>2263</ele>
        <time>2025-06-13T09:52:41Z</time>
      </trkpt>
      <trkpt lat="44.05203" lon="7.44399">
        <ele>2263</ele>
        <time>2025-06-13T09:52:44Z</time>
      </trkpt>
      <trkpt lat="44.05197" lon="7.44396">
        <ele>2264</ele>
        <time>2025-06-13T09:52:47Z</time>
      </trkpt>
      <trkpt lat="44.0519" lon="7.44396">
        <ele>2265</ele>
        <time>2025-06-13T09:52:51Z</time>
      </trkpt>
      <trkpt lat="44.05189" lon="7.44401">
        <ele>2265</ele>
        <time>2025-06-13T09:52:53Z</time>
      </trkpt>
      <trkpt lat="44.05191" lon="7.44416">
        <ele>2265</ele>
        <time>2025-06-13T09:52:58Z</time>
      </trkpt>
      <trkpt lat="44.0519" lon="7.44431">
        <ele>2266</ele>
        <time>2025-06-13T09:53:03Z</time>
      </trkpt>
      <trkpt lat="44.05186" lon="7.44432">
        <ele>2267</ele>
        <time>2025-06-13T09:53:05Z</time>
      </trkpt>
      <trkpt lat="44.05181" lon="7.44429">
        <ele>2268</ele>
        <time>2025-06-13T09:53:08Z</time>
      </trkpt>
      <trkpt lat="44.05177" lon="7.44431">
        <ele>2268</ele>
        <time>2025-06-13T09:53:10Z</time>
      </trkpt>
      <trkpt lat="44.05174" lon="7.44457">
        <ele>2270</ele>
        <time>2025-06-13T09:53:20Z</time>
      </trkpt>
      <trkpt lat="44.05176" lon="7.44464">
        <ele>2270</ele>
        <time>2025-06-13T09:53:22Z</time>
      </trkpt>
      <trkpt lat="44.05183" lon="7.44468">
        <ele>2270</ele>
        <time>2025-06-13T09:53:26Z</time>
      </trkpt>
      <trkpt lat="44.0519" lon="7.44477">
        <ele>2269</ele>
        <time>2025-06-13T09:53:31Z</time>
      </trkpt>
      <trkpt lat="44.05199" lon="7.44481">
        <ele>2268</ele>
        <time>2025-06-13T09:53:36Z</time>
      </trkpt>
      <trkpt lat="44.05205" lon="7.44479">
        <ele>2267</ele>
        <time>2025-06-13T09:53:39Z</time>
      </trkpt>
      <trkpt lat="44.05209" lon="7.44491">
        <ele>2267</ele>
        <time>2025-06-13T09:53:44Z</time>
      </trkpt>
      <trkpt lat="44.05211" lon="7.44503">
        <ele>2267</ele>
        <time>2025-06-13T09:53:48Z</time>
      </trkpt>
      <trkpt lat="44.05218" lon="7.44512">
        <ele>2265</ele>
        <time>2025-06-13T09:53:53Z</time>
      </trkpt>
      <trkpt lat="44.05221" lon="7.44526">
        <ele>2263</ele>
        <time>2025-06-13T09:53:58Z</time>
      </trkpt>
      <trkpt lat="44.05229" lon="7.44539">
        <ele>2261</ele>
        <time>2025-06-13T09:54:04Z</time>
      </trkpt>
      <trkpt lat="44.05241" lon="7.44551">
        <ele>2258</ele>
        <time>2025-06-13T09:54:12Z</time>
      </trkpt>
      <trkpt lat="44.05255" lon="7.44559">
        <ele>2256</ele>
        <time>2025-06-13T09:54:19Z</time>
      </trkpt>
      <trkpt lat="44.05262" lon="7.44562">
        <ele>2256</ele>
        <time>2025-06-13T09:54:23Z</time>
      </trkpt>
      <trkpt lat="44.05265" lon="7.44572">
        <ele>2255</ele>
        <time>2025-06-13T09:54:27Z</time>
      </trkpt>
      <trkpt lat="44.05261" lon="7.4458">
        <ele>2255</ele>
        <time>2025-06-13T09:54:30Z</time>
      </trkpt>
      <trkpt lat="44.05262" lon="7.44588">
        <ele>2254</ele>
        <time>2025-06-13T09:54:33Z</time>
      </trkpt>
      <trkpt lat="44.05265" lon="7.44595">
        <ele>2253</ele>
        <time>2025-06-13T09:54:36Z</time>
      </trkpt>
      <trkpt lat="44.05267" lon="7.44602">
        <ele>2252</ele>
        <time>2025-06-13T09:54:39Z</time>
      </trkpt>
      <trkpt lat="44.05266" lon="7.44609">
        <ele>2251</ele>
        <time>2025-06-13T09:54:41Z</time>
      </trkpt>
      <trkpt lat="44.05269" lon="7.44618">
        <ele>2250</ele>
        <time>2025-06-13T09:54:45Z</time>
      </trkpt>
      <trkpt lat="44.05269" lon="7.44623">
        <ele>2249</ele>
        <time>2025-06-13T09:54:47Z</time>
      </trkpt>
      <trkpt lat="44.05264" lon="7.4463">
        <ele>2249</ele>
        <time>2025-06-13T09:54:50Z</time>
      </trkpt>
      <trkpt lat="44.05268" lon="7.44638">
        <ele>2247</ele>
        <time>2025-06-13T09:54:54Z</time>
      </trkpt>
      <trkpt lat="44.0527" lon="7.44663">
        <ele>2244</ele>
        <time>2025-06-13T09:55:03Z</time>
      </trkpt>
      <trkpt lat="44.05274" lon="7.44665">
        <ele>2243</ele>
        <time>2025-06-13T09:55:05Z</time>
      </trkpt>
      <trkpt lat="44.05277" lon="7.44671">
        <ele>2242</ele>
        <time>2025-06-13T09:55:08Z</time>
      </trkpt>
      <trkpt lat="44.05276" lon="7.44693">
        <ele>2238</ele>
        <time>2025-06-13T09:55:16Z</time>
      </trkpt>
      <trkpt lat="44.05279" lon="7.44698">
        <ele>2236</ele>
        <time>2025-06-13T09:55:18Z</time>
      </trkpt>
      <trkpt lat="44.05276" lon="7.44705">
        <ele>2235</ele>
        <time>2025-06-13T09:55:21Z</time>
      </trkpt>
      <trkpt lat="44.05277" lon="7.44714">
        <ele>2233</ele>
        <time>2025-06-13T09:55:24Z</time>
      </trkpt>
      <trkpt lat="44.05276" lon="7.44718">
        <ele>2233</ele>
        <time>2025-06-13T09:55:26Z</time>
      </trkpt>
      <trkpt lat="44.05267" lon="7.44716">
        <ele>2235</ele>
        <time>2025-06-13T09:55:30Z</time>
      </trkpt>
      <trkpt lat="44.05261" lon="7.44718">
        <ele>2236</ele>
        <time>2025-06-13T09:55:33Z</time>
      </trkpt>
      <trkpt lat="44.05258" lon="7.44721">
        <ele>2236</ele>
        <time>2025-06-13T09:55:35Z</time>
      </trkpt>
      <trkpt lat="44.05258" lon="7.44726">
        <ele>2236</ele>
        <time>2025-06-13T09:55:37Z</time>
      </trkpt>
      <trkpt lat="44.05261" lon="7.44729">
        <ele>2234</ele>
        <time>2025-06-13T09:55:39Z</time>
      </trkpt>
      <trkpt lat="44.05268" lon="7.44727">
        <ele>2233</ele>
        <time>2025-06-13T09:55:42Z</time>
      </trkpt>
      <trkpt lat="44.0527" lon="7.44731">
        <ele>2232</ele>
        <time>2025-06-13T09:55:44Z</time>
      </trkpt>
      <trkpt lat="44.05275" lon="7.44732">
        <ele>2230</ele>
        <time>2025-06-13T09:55:47Z</time>
      </trkpt>
      <trkpt lat="44.05271" lon="7.4474">
        <ele>2230</ele>
        <time>2025-06-13T09:55:50Z</time>
      </trkpt>
      <trkpt lat="44.05274" lon="7.44743">
        <ele>2229</ele>
        <time>2025-06-13T09:55:52Z</time>
      </trkpt>
      <trkpt lat="44.05274" lon="7.4475">
        <ele>2227</ele>
        <time>2025-06-13T09:55:54Z</time>
      </trkpt>
      <trkpt lat="44.05282" lon="7.44748">
        <ele>2226</ele>
        <time>2025-06-13T09:55:59Z</time>
      </trkpt>
      <trkpt lat="44.05284" lon="7.44752">
        <ele>2224</ele>
        <time>2025-06-13T09:56:00Z</time>
      </trkpt>
      <trkpt lat="44.05283" lon="7.44772">
        <ele>2223</ele>
        <time>2025-06-13T09:56:08Z</time>
      </trkpt>
      <trkpt lat="44.05286" lon="7.44777">
        <ele>2221</ele>
        <time>2025-06-13T09:56:10Z</time>
      </trkpt>
      <trkpt lat="44.05292" lon="7.44772">
        <ele>2220</ele>
        <time>2025-06-13T09:56:13Z</time>
      </trkpt>
      <trkpt lat="44.05322" lon="7.44773">
        <ele>2212</ele>
        <time>2025-06-13T09:56:28Z</time>
      </trkpt>
      <trkpt lat="44.05325" lon="7.4478">
        <ele>2210</ele>
        <time>2025-06-13T09:56:31Z</time>
      </trkpt>
      <trkpt lat="44.05339" lon="7.44796">
        <ele>2204</ele>
        <time>2025-06-13T09:56:40Z</time>
      </trkpt>
      <trkpt lat="44.05345" lon="7.44798">
        <ele>2202</ele>
        <time>2025-06-13T09:56:43Z</time>
      </trkpt>
      <trkpt lat="44.05353" lon="7.44805">
        <ele>2198</ele>
        <time>2025-06-13T09:56:48Z</time>
      </trkpt>
      <trkpt lat="44.05371" lon="7.44816">
        <ele>2191</ele>
        <time>2025-06-13T09:56:58Z</time>
      </trkpt>
      <trkpt lat="44.05376" lon="7.4481">
        <ele>2190</ele>
        <time>2025-06-13T09:57:01Z</time>
      </trkpt>
      <trkpt lat="44.05377" lon="7.44819">
        <ele>2188</ele>
        <time>2025-06-13T09:57:05Z</time>
      </trkpt>
      <trkpt lat="44.05386" lon="7.44812">
        <ele>2186</ele>
        <time>2025-06-13T09:57:10Z</time>
      </trkpt>
      <trkpt lat="44.05388" lon="7.44812">
        <ele>2185</ele>
        <time>2025-06-13T09:57:11Z</time>
      </trkpt>
      <trkpt lat="44.05388" lon="7.44823">
        <ele>2184</ele>
        <time>2025-06-13T09:57:15Z</time>
      </trkpt>
      <trkpt lat="44.05384" lon="7.44839">
        <ele>2183</ele>
        <time>2025-06-13T09:57:21Z</time>
      </trkpt>
      <trkpt lat="44.05373" lon="7.44864">
        <ele>2184</ele>
        <time>2025-06-13T09:57:31Z</time>
      </trkpt>
      <trkpt lat="44.05371" lon="7.44881">
        <ele>2183</ele>
        <time>2025-06-13T09:57:38Z</time>
      </trkpt>
      <trkpt lat="44.05363" lon="7.44899">
        <ele>2183</ele>
        <time>2025-06-13T09:57:45Z</time>
      </trkpt>
      <trkpt lat="44.05359" lon="7.44929">
        <ele>2181</ele>
        <time>2025-06-13T09:57:56Z</time>
      </trkpt>
      <trkpt lat="44.05356" lon="7.44946">
        <ele>2180</ele>
        <time>2025-06-13T09:58:02Z</time>
      </trkpt>
      <trkpt lat="44.05358" lon="7.44963">
        <ele>2177</ele>
        <time>2025-06-13T09:58:09Z</time>
      </trkpt>
      <trkpt lat="44.05357" lon="7.44994">
        <ele>2174</ele>
        <time>2025-06-13T09:58:20Z</time>
      </trkpt>
      <trkpt lat="44.05358" lon="7.45001">
        <ele>2173</ele>
        <time>2025-06-13T09:58:22Z</time>
      </trkpt>
      <trkpt lat="44.05358" lon="7.45013">
        <ele>2173</ele>
        <time>2025-06-13T09:58:27Z</time>
      </trkpt>
      <trkpt lat="44.05361" lon="7.45019">
        <ele>2172</ele>
        <time>2025-06-13T09:58:29Z</time>
      </trkpt>
      <trkpt lat="44.05368" lon="7.45025">
        <ele>2171</ele>
        <time>2025-06-13T09:58:33Z</time>
      </trkpt>
      <trkpt lat="44.05369" lon="7.45031">
        <ele>2171</ele>
        <time>2025-06-13T09:58:36Z</time>
      </trkpt>
      <trkpt lat="44.05372" lon="7.45035">
        <ele>2171</ele>
        <time>2025-06-13T09:58:38Z</time>
      </trkpt>
      <trkpt lat="44.05377" lon="7.4505">
        <ele>2170</ele>
        <time>2025-06-13T09:58:44Z</time>
      </trkpt>
      <trkpt lat="44.05376" lon="7.4506">
        <ele>2170</ele>
        <time>2025-06-13T09:58:47Z</time>
      </trkpt>
      <trkpt lat="44.05376" lon="7.4507">
        <ele>2170</ele>
        <time>2025-06-13T09:58:51Z</time>
      </trkpt>
      <trkpt lat="44.05385" lon="7.45077">
        <ele>2170</ele>
        <time>2025-06-13T09:58:56Z</time>
      </trkpt>
      <trkpt lat="44.05398" lon="7.45094">
        <ele>2170</ele>
        <time>2025-06-13T09:59:05Z</time>
      </trkpt>
      <trkpt lat="44.05405" lon="7.45109">
        <ele>2170</ele>
        <time>2025-06-13T09:59:11Z</time>
      </trkpt>
      <trkpt lat="44.05411" lon="7.4512">
        <ele>2170</ele>
        <time>2025-06-13T09:59:16Z</time>
      </trkpt>
      <trkpt lat="44.05413" lon="7.45128">
        <ele>2170</ele>
        <time>2025-06-13T09:59:19Z</time>
      </trkpt>
      <trkpt lat="44.05422" lon="7.45132">
        <ele>2170</ele>
        <time>2025-06-13T09:59:24Z</time>
      </trkpt>
      <trkpt lat="44.0543" lon="7.4513">
        <ele>2170</ele>
        <time>2025-06-13T09:59:28Z</time>
      </trkpt>
      <trkpt lat="44.05442" lon="7.45119">
        <ele>2168</ele>
        <time>2025-06-13T09:59:35Z</time>
      </trkpt>
      <trkpt lat="44.05455" lon="7.45112">
        <ele>2166</ele>
        <time>2025-06-13T09:59:42Z</time>
      </trkpt>
      <trkpt lat="44.05463" lon="7.45111">
        <ele>2166</ele>
        <time>2025-06-13T09:59:46Z</time>
      </trkpt>
      <trkpt lat="44.0547" lon="7.45117">
        <ele>2165</ele>
        <time>2025-06-13T09:59:51Z</time>
      </trkpt>
      <trkpt lat="44.05478" lon="7.45124">
        <ele>2165</ele>
        <time>2025-06-13T09:59:55Z</time>
      </trkpt>
      <trkpt lat="44.05482" lon="7.45135">
        <ele>2165</ele>
        <time>2025-06-13T10:00:00Z</time>
      </trkpt>
      <trkpt lat="44.05502" lon="7.45154">
        <ele>2165</ele>
        <time>2025-06-13T10:00:12Z</time>
      </trkpt>
      <trkpt lat="44.05516" lon="7.45148">
        <ele>2161</ele>
        <time>2025-06-13T10:00:19Z</time>
      </trkpt>
      <trkpt lat="44.05521" lon="7.45144">
        <ele>2160</ele>
        <time>2025-06-13T10:00:22Z</time>
      </trkpt>
      <trkpt lat="44.05532" lon="7.45142">
        <ele>2158</ele>
        <time>2025-06-13T10:00:28Z</time>
      </trkpt>
      <trkpt lat="44.05547" lon="7.45134">
        <ele>2156</ele>
        <time>2025-06-13T10:00:36Z</time>
      </trkpt>
      <trkpt lat="44.0555" lon="7.45153">
        <ele>2154</ele>
        <time>2025-06-13T10:00:43Z</time>
      </trkpt>
      <trkpt lat="44.05549" lon="7.45163">
        <ele>2154</ele>
        <time>2025-06-13T10:00:46Z</time>
      </trkpt>
      <trkpt lat="44.05553" lon="7.45175">
        <ele>2153</ele>
        <time>2025-06-13T10:00:51Z</time>
      </trkpt>
      <trkpt lat="44.05553" lon="7.45187">
        <ele>2152</ele>
        <time>2025-06-13T10:00:55Z</time>
      </trkpt>
      <trkpt lat="44.05557" lon="7.45201">
        <ele>2150</ele>
        <time>2025-06-13T10:01:01Z</time>
      </trkpt>
      <trkpt lat="44.0558" lon="7.45153">
        <ele>2148</ele>
        <time>2025-06-13T10:01:21Z</time>
      </trkpt>
      <trkpt lat="44.05583" lon="7.45155">
        <ele>2147</ele>
        <time>2025-06-13T10:01:23Z</time>
      </trkpt>
      <trkpt lat="44.05586" lon="7.45173">
        <ele>2145</ele>
        <time>2025-06-13T10:01:30Z</time>
      </trkpt>
      <trkpt lat="44.05592" lon="7.45183">
        <ele>2144</ele>
        <time>2025-06-13T10:01:34Z</time>
      </trkpt>
      <trkpt lat="44.05596" lon="7.4519">
        <ele>2143</ele>
        <time>2025-06-13T10:01:38Z</time>
      </trkpt>
      <trkpt lat="44.05602" lon="7.45196">
        <ele>2142</ele>
        <time>2025-06-13T10:01:41Z</time>
      </trkpt>
      <trkpt lat="44.05617" lon="7.45211">
        <ele>2139</ele>
        <time>2025-06-13T10:01:51Z</time>
      </trkpt>
      <trkpt lat="44.05622" lon="7.45213">
        <ele>2139</ele>
        <time>2025-06-13T10:01:53Z</time>
      </trkpt>
      <trkpt lat="44.05626" lon="7.45211">
        <ele>2138</ele>
        <time>2025-06-13T10:01:55Z</time>
      </trkpt>
      <trkpt lat="44.05632" lon="7.45198">
        <ele>2138</ele>
        <time>2025-06-13T10:02:01Z</time>
      </trkpt>
      <trkpt lat="44.05638" lon="7.45191">
        <ele>2138</ele>
        <time>2025-06-13T10:02:05Z</time>
      </trkpt>
      <trkpt lat="44.05642" lon="7.45185">
        <ele>2138</ele>
        <time>2025-06-13T10:02:08Z</time>
      </trkpt>
      <trkpt lat="44.05649" lon="7.45194">
        <ele>2137</ele>
        <time>2025-06-13T10:02:13Z</time>
      </trkpt>
      <trkpt lat="44.05654" lon="7.45196">
        <ele>2136</ele>
        <time>2025-06-13T10:02:15Z</time>
      </trkpt>
      <trkpt lat="44.0566" lon="7.45203">
        <ele>2135</ele>
        <time>2025-06-13T10:02:19Z</time>
      </trkpt>
      <trkpt lat="44.05665" lon="7.45204">
        <ele>2135</ele>
        <time>2025-06-13T10:02:22Z</time>
      </trkpt>
      <trkpt lat="44.05673" lon="7.45198">
        <ele>2133</ele>
        <time>2025-06-13T10:02:26Z</time>
      </trkpt>
      <trkpt lat="44.05678" lon="7.4519">
        <ele>2132</ele>
        <time>2025-06-13T10:02:30Z</time>
      </trkpt>
      <trkpt lat="44.05687" lon="7.45188">
        <ele>2130</ele>
        <time>2025-06-13T10:02:35Z</time>
      </trkpt>
      <trkpt lat="44.05698" lon="7.4516">
        <ele>2127</ele>
        <time>2025-06-13T10:02:46Z</time>
      </trkpt>
      <trkpt lat="44.057" lon="7.45159">
        <ele>2127</ele>
        <time>2025-06-13T10:02:47Z</time>
      </trkpt>
      <trkpt lat="44.05707" lon="7.45151">
        <ele>2125</ele>
        <time>2025-06-13T10:02:52Z</time>
      </trkpt>
      <trkpt lat="44.0571" lon="7.45149">
        <ele>2124</ele>
        <time>2025-06-13T10:02:53Z</time>
      </trkpt>
      <trkpt lat="44.05713" lon="7.4515">
        <ele>2123</ele>
        <time>2025-06-13T10:02:55Z</time>
      </trkpt>
      <trkpt lat="44.05716" lon="7.45154">
        <ele>2122</ele>
        <time>2025-06-13T10:02:57Z</time>
      </trkpt>
      <trkpt lat="44.05717" lon="7.45158">
        <ele>2122</ele>
        <time>2025-06-13T10:02:58Z</time>
      </trkpt>
      <trkpt lat="44.05721" lon="7.45162">
        <ele>2121</ele>
        <time>2025-06-13T10:03:01Z</time>
      </trkpt>
      <trkpt lat="44.05723" lon="7.45168">
        <ele>2121</ele>
        <time>2025-06-13T10:03:03Z</time>
      </trkpt>
      <trkpt lat="44.05723" lon="7.45179">
        <ele>2121</ele>
        <time>2025-06-13T10:03:07Z</time>
      </trkpt>
      <trkpt lat="44.05724" lon="7.45187">
        <ele>2121</ele>
        <time>2025-06-13T10:03:10Z</time>
      </trkpt>
      <trkpt lat="44.05726" lon="7.45189">
        <ele>2120</ele>
        <time>2025-06-13T10:03:11Z</time>
      </trkpt>
      <trkpt lat="44.0573" lon="7.45185">
        <ele>2119</ele>
        <time>2025-06-13T10:03:14Z</time>
      </trkpt>
      <trkpt lat="44.05738" lon="7.45182">
        <ele>2117</ele>
        <time>2025-06-13T10:03:18Z</time>
      </trkpt>
      <trkpt lat="44.05734" lon="7.45201">
        <ele>2119</ele>
        <time>2025-06-13T10:03:25Z</time>
      </trkpt>
      <trkpt lat="44.05746" lon="7.45267">
        <ele>2116</ele>
        <time>2025-06-13T10:03:50Z</time>
      </trkpt>
      <trkpt lat="44.05754" lon="7.45297">
        <ele>2113</ele>
        <time>2025-06-13T10:04:01Z</time>
      </trkpt>
      <trkpt lat="44.05752" lon="7.45305">
        <ele>2113</ele>
        <time>2025-06-13T10:04:04Z</time>
      </trkpt>
      <trkpt lat="44.05751" lon="7.45318">
        <ele>2113</ele>
        <time>2025-06-13T10:04:09Z</time>
      </trkpt>
      <trkpt lat="44.05744" lon="7.45348">
        <ele>2113</ele>
        <time>2025-06-13T10:04:20Z</time>
      </trkpt>
      <trkpt lat="44.05743" lon="7.45354">
        <ele>2113</ele>
        <time>2025-06-13T10:04:22Z</time>
      </trkpt>
      <trkpt lat="44.05745" lon="7.45368">
        <ele>2112</ele>
        <time>2025-06-13T10:04:28Z</time>
      </trkpt>
      <trkpt lat="44.05742" lon="7.45392">
        <ele>2111</ele>
        <time>2025-06-13T10:04:36Z</time>
      </trkpt>
      <trkpt lat="44.05742" lon="7.45398">
        <ele>2111</ele>
        <time>2025-06-13T10:04:38Z</time>
      </trkpt>
      <trkpt lat="44.05742" lon="7.45412">
        <ele>2110</ele>
        <time>2025-06-13T10:04:43Z</time>
      </trkpt>
      <trkpt lat="44.05741" lon="7.45425">
        <ele>2110</ele>
        <time>2025-06-13T10:04:48Z</time>
      </trkpt>
      <trkpt lat="44.05737" lon="7.45437">
        <ele>2110</ele>
        <time>2025-06-13T10:04:53Z</time>
      </trkpt>
      <trkpt lat="44.05734" lon="7.45449">
        <ele>2111</ele>
        <time>2025-06-13T10:04:57Z</time>
      </trkpt>
      <trkpt lat="44.05733" lon="7.45456">
        <ele>2111</ele>
        <time>2025-06-13T10:05:00Z</time>
      </trkpt>
      <trkpt lat="44.05729" lon="7.45479">
        <ele>2111</ele>
        <time>2025-06-13T10:05:09Z</time>
      </trkpt>
      <trkpt lat="44.05728" lon="7.45484">
        <ele>2111</ele>
        <time>2025-06-13T10:05:10Z</time>
      </trkpt>
      <trkpt lat="44.05726" lon="7.45489">
        <ele>2111</ele>
        <time>2025-06-13T10:05:12Z</time>
      </trkpt>
      <trkpt lat="44.05722" lon="7.45495">
        <ele>2112</ele>
        <time>2025-06-13T10:05:15Z</time>
      </trkpt>
      <trkpt lat="44.05715" lon="7.45502">
        <ele>2113</ele>
        <time>2025-06-13T10:05:20Z</time>
      </trkpt>
      <trkpt lat="44.05701" lon="7.45529">
        <ele>2113</ele>
        <time>2025-06-13T10:05:32Z</time>
      </trkpt>
      <trkpt lat="44.05689" lon="7.45541">
        <ele>2113</ele>
        <time>2025-06-13T10:05:39Z</time>
      </trkpt>
      <trkpt lat="44.05669" lon="7.45583">
        <ele>2111</ele>
        <time>2025-06-13T10:05:57Z</time>
      </trkpt>
      <trkpt lat="44.05667" lon="7.45603">
        <ele>2109</ele>
        <time>2025-06-13T10:06:05Z</time>
      </trkpt>
      <trkpt lat="44.05659" lon="7.4563">
        <ele>2108</ele>
        <time>2025-06-13T10:06:15Z</time>
      </trkpt>
      <trkpt lat="44.05659" lon="7.45644">
        <ele>2106</ele>
        <time>2025-06-13T10:06:20Z</time>
      </trkpt>
      <trkpt lat="44.05654" lon="7.45672">
        <ele>2104</ele>
        <time>2025-06-13T10:06:30Z</time>
      </trkpt>
      <trkpt lat="44.05654" lon="7.45681">
        <ele>2104</ele>
        <time>2025-06-13T10:06:34Z</time>
      </trkpt>
      <trkpt lat="44.05651" lon="7.45716">
        <ele>2102</ele>
        <time>2025-06-13T10:06:46Z</time>
      </trkpt>
      <trkpt lat="44.05635" lon="7.45765">
        <ele>2099</ele>
        <time>2025-06-13T10:07:06Z</time>
      </trkpt>
      <trkpt lat="44.05628" lon="7.45786">
        <ele>2099</ele>
        <time>2025-06-13T10:07:14Z</time>
      </trkpt>
      <trkpt lat="44.05628" lon="7.45793">
        <ele>2099</ele>
        <time>2025-06-13T10:07:17Z</time>
      </trkpt>
      <trkpt lat="44.05631" lon="7.45798">
        <ele>2099</ele>
        <time>2025-06-13T10:07:19Z</time>
      </trkpt>
      <trkpt lat="44.05643" lon="7.45829">
        <ele>2100</ele>
        <time>2025-06-13T10:07:32Z</time>
      </trkpt>
      <trkpt lat="44.05642" lon="7.45837">
        <ele>2100</ele>
        <time>2025-06-13T10:07:34Z</time>
      </trkpt>
      <trkpt lat="44.05645" lon="7.45845">
        <ele>2100</ele>
        <time>2025-06-13T10:07:38Z</time>
      </trkpt>
      <trkpt lat="44.05643" lon="7.45876">
        <ele>2099</ele>
        <time>2025-06-13T10:07:49Z</time>
      </trkpt>
      <trkpt lat="44.05647" lon="7.45892">
        <ele>2100</ele>
        <time>2025-06-13T10:07:55Z</time>
      </trkpt>
      <trkpt lat="44.05645" lon="7.45902">
        <ele>2099</ele>
        <time>2025-06-13T10:07:59Z</time>
      </trkpt>
      <trkpt lat="44.05644" lon="7.45927">
        <ele>2099</ele>
        <time>2025-06-13T10:08:08Z</time>
      </trkpt>
      <trkpt lat="44.05642" lon="7.45938">
        <ele>2098</ele>
        <time>2025-06-13T10:08:12Z</time>
      </trkpt>
      <trkpt lat="44.05636" lon="7.45949">
        <ele>2097</ele>
        <time>2025-06-13T10:08:17Z</time>
      </trkpt>
      <trkpt lat="44.05635" lon="7.45974">
        <ele>2096</ele>
        <time>2025-06-13T10:08:26Z</time>
      </trkpt>
      <trkpt lat="44.05636" lon="7.4599">
        <ele>2096</ele>
        <time>2025-06-13T10:08:32Z</time>
      </trkpt>
      <trkpt lat="44.05634" lon="7.46018">
        <ele>2093</ele>
        <time>2025-06-13T10:08:42Z</time>
      </trkpt>
      <trkpt lat="44.05642" lon="7.46028">
        <ele>2092</ele>
        <time>2025-06-13T10:08:47Z</time>
      </trkpt>
      <trkpt lat="44.05646" lon="7.46036">
        <ele>2091</ele>
        <time>2025-06-13T10:08:51Z</time>
      </trkpt>
      <trkpt lat="44.05643" lon="7.46042">
        <ele>2090</ele>
        <time>2025-06-13T10:08:53Z</time>
      </trkpt>
      <trkpt lat="44.05635" lon="7.46049">
        <ele>2089</ele>
        <time>2025-06-13T10:08:58Z</time>
      </trkpt>
      <trkpt lat="44.05635" lon="7.46057">
        <ele>2088</ele>
        <time>2025-06-13T10:09:01Z</time>
      </trkpt>
      <trkpt lat="44.05646" lon="7.46063">
        <ele>2087</ele>
        <time>2025-06-13T10:09:07Z</time>
      </trkpt>
      <trkpt lat="44.05663" lon="7.461">
        <ele>2082</ele>
        <time>2025-06-13T10:09:22Z</time>
      </trkpt>
      <trkpt lat="44.05668" lon="7.46103">
        <ele>2082</ele>
        <time>2025-06-13T10:09:25Z</time>
      </trkpt>
      <trkpt lat="44.05679" lon="7.46107">
        <ele>2082</ele>
        <time>2025-06-13T10:09:31Z</time>
      </trkpt>
      <trkpt lat="44.05683" lon="7.46112">
        <ele>2082</ele>
        <time>2025-06-13T10:09:34Z</time>
      </trkpt>
      <trkpt lat="44.05684" lon="7.46124">
        <ele>2080</ele>
        <time>2025-06-13T10:09:38Z</time>
      </trkpt>
      <trkpt lat="44.0568" lon="7.46128">
        <ele>2080</ele>
        <time>2025-06-13T10:09:40Z</time>
      </trkpt>
      <trkpt lat="44.0567" lon="7.46141">
        <ele>2078</ele>
        <time>2025-06-13T10:09:47Z</time>
      </trkpt>
      <trkpt lat="44.05667" lon="7.46156">
        <ele>2076</ele>
        <time>2025-06-13T10:09:53Z</time>
      </trkpt>
      <trkpt lat="44.05663" lon="7.46166">
        <ele>2075</ele>
        <time>2025-06-13T10:09:57Z</time>
      </trkpt>
      <trkpt lat="44.05664" lon="7.46179">
        <ele>2073</ele>
        <time>2025-06-13T10:10:02Z</time>
      </trkpt>
      <trkpt lat="44.05657" lon="7.46196">
        <ele>2071</ele>
        <time>2025-06-13T10:10:09Z</time>
      </trkpt>
      <trkpt lat="44.05659" lon="7.46216">
        <ele>2069</ele>
        <time>2025-06-13T10:10:16Z</time>
      </trkpt>
      <trkpt lat="44.05669" lon="7.46239">
        <ele>2065</ele>
        <time>2025-06-13T10:10:26Z</time>
      </trkpt>
      <trkpt lat="44.05677" lon="7.46247">
        <ele>2064</ele>
        <time>2025-06-13T10:10:31Z</time>
      </trkpt>
      <trkpt lat="44.05683" lon="7.46247">
        <ele>2063</ele>
        <time>2025-06-13T10:10:34Z</time>
      </trkpt>
      <trkpt lat="44.05693" lon="7.46257">
        <ele>2061</ele>
        <time>2025-06-13T10:10:40Z</time>
      </trkpt>
      <trkpt lat="44.05703" lon="7.46259">
        <ele>2061</ele>
        <time>2025-06-13T10:10:45Z</time>
      </trkpt>
      <trkpt lat="44.05713" lon="7.46258">
        <ele>2060</ele>
        <time>2025-06-13T10:10:50Z</time>
      </trkpt>
      <trkpt lat="44.05738" lon="7.46258">
        <ele>2058</ele>
        <time>2025-06-13T10:11:02Z</time>
      </trkpt>
      <trkpt lat="44.05758" lon="7.46256">
        <ele>2057</ele>
        <time>2025-06-13T10:11:12Z</time>
      </trkpt>
      <trkpt lat="44.05773" lon="7.46258">
        <ele>2056</ele>
        <time>2025-06-13T10:11:20Z</time>
      </trkpt>
      <trkpt lat="44.05783" lon="7.46277">
        <ele>2053</ele>
        <time>2025-06-13T10:11:28Z</time>
      </trkpt>
      <trkpt lat="44.05792" lon="7.46286">
        <ele>2051</ele>
        <time>2025-06-13T10:11:34Z</time>
      </trkpt>
      <trkpt lat="44.05805" lon="7.46298">
        <ele>2049</ele>
        <time>2025-06-13T10:11:42Z</time>
      </trkpt>
      <trkpt lat="44.05809" lon="7.46315">
        <ele>2046</ele>
        <time>2025-06-13T10:11:48Z</time>
      </trkpt>
      <trkpt lat="44.05814" lon="7.46329">
        <ele>2043</ele>
        <time>2025-06-13T10:11:54Z</time>
      </trkpt>
      <trkpt lat="44.05831" lon="7.46348">
        <ele>2041</ele>
        <time>2025-06-13T10:12:05Z</time>
      </trkpt>
      <trkpt lat="44.05843" lon="7.46372">
        <ele>2040</ele>
        <time>2025-06-13T10:12:15Z</time>
      </trkpt>
      <trkpt lat="44.05841" lon="7.46385">
        <ele>2039</ele>
        <time>2025-06-13T10:12:20Z</time>
      </trkpt>
      <trkpt lat="44.05846" lon="7.46393">
        <ele>2039</ele>
        <time>2025-06-13T10:12:24Z</time>
      </trkpt>
      <trkpt lat="44.05871" lon="7.46408">
        <ele>2039</ele>
        <time>2025-06-13T10:12:37Z</time>
      </trkpt>
      <trkpt lat="44.05883" lon="7.46428">
        <ele>2037</ele>
        <time>2025-06-13T10:12:47Z</time>
      </trkpt>
      <trkpt lat="44.05905" lon="7.46478">
        <ele>2033</ele>
        <time>2025-06-13T10:13:08Z</time>
      </trkpt>
      <trkpt lat="44.05916" lon="7.46492">
        <ele>2031</ele>
        <time>2025-06-13T10:13:15Z</time>
      </trkpt>
      <trkpt lat="44.05922" lon="7.46493">
        <ele>2032</ele>
        <time>2025-06-13T10:13:18Z</time>
      </trkpt>
      <trkpt lat="44.05928" lon="7.46501">
        <ele>2033</ele>
        <time>2025-06-13T10:13:23Z</time>
      </trkpt>
      <trkpt lat="44.05931" lon="7.46522">
        <ele>2033</ele>
        <time>2025-06-13T10:13:30Z</time>
      </trkpt>
      <trkpt lat="44.05937" lon="7.4653">
        <ele>2033</ele>
        <time>2025-06-13T10:13:34Z</time>
      </trkpt>
      <trkpt lat="44.05946" lon="7.46561">
        <ele>2032</ele>
        <time>2025-06-13T10:13:46Z</time>
      </trkpt>
      <trkpt lat="44.05953" lon="7.4657">
        <ele>2031</ele>
        <time>2025-06-13T10:13:51Z</time>
      </trkpt>
      <trkpt lat="44.05959" lon="7.46569">
        <ele>2032</ele>
        <time>2025-06-13T10:13:54Z</time>
      </trkpt>
      <trkpt lat="44.05965" lon="7.46577">
        <ele>2031</ele>
        <time>2025-06-13T10:13:58Z</time>
      </trkpt>
      <trkpt lat="44.05979" lon="7.46598">
        <ele>2029</ele>
        <time>2025-06-13T10:14:09Z</time>
      </trkpt>
      <trkpt lat="44.05975" lon="7.46607">
        <ele>2028</ele>
        <time>2025-06-13T10:14:12Z</time>
      </trkpt>
      <trkpt lat="44.05973" lon="7.4662">
        <ele>2026</ele>
        <time>2025-06-13T10:14:17Z</time>
      </trkpt>
      <trkpt lat="44.05984" lon="7.46638">
        <ele>2024</ele>
        <time>2025-06-13T10:14:26Z</time>
      </trkpt>
      <trkpt lat="44.0599" lon="7.46658">
        <ele>2021</ele>
        <time>2025-06-13T10:14:34Z</time>
      </trkpt>
      <trkpt lat="44.05993" lon="7.46671">
        <ele>2019</ele>
        <time>2025-06-13T10:14:38Z</time>
      </trkpt>
      <trkpt lat="44.05998" lon="7.46681">
        <ele>2018</ele>
        <time>2025-06-13T10:14:43Z</time>
      </trkpt>
      <trkpt lat="44.05998" lon="7.46689">
        <ele>2018</ele>
        <time>2025-06-13T10:14:46Z</time>
      </trkpt>
      <trkpt lat="44.06007" lon="7.46704">
        <ele>2018</ele>
        <time>2025-06-13T10:14:53Z</time>
      </trkpt>
      <trkpt lat="44.06013" lon="7.46725">
        <ele>2018</ele>
        <time>2025-06-13T10:15:01Z</time>
      </trkpt>
      <trkpt lat="44.06032" lon="7.46743">
        <ele>2020</ele>
        <time>2025-06-13T10:15:12Z</time>
      </trkpt>
      <trkpt lat="44.06033" lon="7.46757">
        <ele>2019</ele>
        <time>2025-06-13T10:15:17Z</time>
      </trkpt>
      <trkpt lat="44.06031" lon="7.46771">
        <ele>2017</ele>
        <time>2025-06-13T10:15:23Z</time>
      </trkpt>
      <trkpt lat="44.06038" lon="7.46789">
        <ele>2017</ele>
        <time>2025-06-13T10:15:30Z</time>
      </trkpt>
      <trkpt lat="44.06043" lon="7.46806">
        <ele>2016</ele>
        <time>2025-06-13T10:15:37Z</time>
      </trkpt>
      <trkpt lat="44.06049" lon="7.46823">
        <ele>2015</ele>
        <time>2025-06-13T10:15:43Z</time>
      </trkpt>
      <trkpt lat="44.06057" lon="7.46866">
        <ele>2010</ele>
        <time>2025-06-13T10:15:59Z</time>
      </trkpt>
      <trkpt lat="44.06066" lon="7.46869">
        <ele>2011</ele>
        <time>2025-06-13T10:16:04Z</time>
      </trkpt>
      <trkpt lat="44.06086" lon="7.46918">
        <ele>2006</ele>
        <time>2025-06-13T10:16:24Z</time>
      </trkpt>
      <trkpt lat="44.06086" lon="7.46932">
        <ele>2004</ele>
        <time>2025-06-13T10:16:29Z</time>
      </trkpt>
      <trkpt lat="44.06085" lon="7.46943">
        <ele>2003</ele>
        <time>2025-06-13T10:16:33Z</time>
      </trkpt>
      <trkpt lat="44.0609" lon="7.4696">
        <ele>2003</ele>
        <time>2025-06-13T10:16:40Z</time>
      </trkpt>
      <trkpt lat="44.06101" lon="7.4697">
        <ele>2006</ele>
        <time>2025-06-13T10:16:46Z</time>
      </trkpt>
      <trkpt lat="44.06112" lon="7.46986">
        <ele>2008</ele>
        <time>2025-06-13T10:16:54Z</time>
      </trkpt>
      <trkpt lat="44.06115" lon="7.47036">
        <ele>2000</ele>
        <time>2025-06-13T10:17:12Z</time>
      </trkpt>
      <trkpt lat="44.06115" lon="7.47051">
        <ele>1997</ele>
        <time>2025-06-13T10:17:18Z</time>
      </trkpt>
      <trkpt lat="44.06112" lon="7.47067">
        <ele>1994</ele>
        <time>2025-06-13T10:17:24Z</time>
      </trkpt>
      <trkpt lat="44.06113" lon="7.47083">
        <ele>1991</ele>
        <time>2025-06-13T10:17:30Z</time>
      </trkpt>
      <trkpt lat="44.06116" lon="7.47099">
        <ele>1989</ele>
        <time>2025-06-13T10:17:35Z</time>
      </trkpt>
      <trkpt lat="44.06119" lon="7.47106">
        <ele>1989</ele>
        <time>2025-06-13T10:17:38Z</time>
      </trkpt>
      <trkpt lat="44.06127" lon="7.47111">
        <ele>1990</ele>
        <time>2025-06-13T10:17:43Z</time>
      </trkpt>
      <trkpt lat="44.06133" lon="7.47117">
        <ele>1991</ele>
        <time>2025-06-13T10:17:46Z</time>
      </trkpt>
      <trkpt lat="44.06153" lon="7.47143">
        <ele>1991</ele>
        <time>2025-06-13T10:18:00Z</time>
      </trkpt>
      <trkpt lat="44.06154" lon="7.47152">
        <ele>1989</ele>
        <time>2025-06-13T10:18:03Z</time>
      </trkpt>
      <trkpt lat="44.06156" lon="7.47157">
        <ele>1988</ele>
        <time>2025-06-13T10:18:06Z</time>
      </trkpt>
      <trkpt lat="44.06161" lon="7.47168">
        <ele>1986</ele>
        <time>2025-06-13T10:18:10Z</time>
      </trkpt>
      <trkpt lat="44.06162" lon="7.47177">
        <ele>1985</ele>
        <time>2025-06-13T10:18:13Z</time>
      </trkpt>
      <trkpt lat="44.06164" lon="7.47183">
        <ele>1984</ele>
        <time>2025-06-13T10:18:16Z</time>
      </trkpt>
      <trkpt lat="44.06176" lon="7.47195">
        <ele>1987</ele>
        <time>2025-06-13T10:18:23Z</time>
      </trkpt>
      <trkpt lat="44.06185" lon="7.47214">
        <ele>1986</ele>
        <time>2025-06-13T10:18:31Z</time>
      </trkpt>
      <trkpt lat="44.06192" lon="7.47223">
        <ele>1987</ele>
        <time>2025-06-13T10:18:36Z</time>
      </trkpt>
      <trkpt lat="44.062" lon="7.4725">
        <ele>1984</ele>
        <time>2025-06-13T10:18:47Z</time>
      </trkpt>
      <trkpt lat="44.062" lon="7.47267">
        <ele>1980</ele>
        <time>2025-06-13T10:18:53Z</time>
      </trkpt>
      <trkpt lat="44.06203" lon="7.47281">
        <ele>1978</ele>
        <time>2025-06-13T10:18:58Z</time>
      </trkpt>
      <trkpt lat="44.06211" lon="7.47302">
        <ele>1976</ele>
        <time>2025-06-13T10:19:07Z</time>
      </trkpt>
      <trkpt lat="44.0622" lon="7.47327">
        <ele>1974</ele>
        <time>2025-06-13T10:19:17Z</time>
      </trkpt>
      <trkpt lat="44.06225" lon="7.4735">
        <ele>1969</ele>
        <time>2025-06-13T10:19:25Z</time>
      </trkpt>
      <trkpt lat="44.06235" lon="7.47381">
        <ele>1963</ele>
        <time>2025-06-13T10:19:38Z</time>
      </trkpt>
      <trkpt lat="44.06238" lon="7.47421">
        <ele>1952</ele>
        <time>2025-06-13T10:19:52Z</time>
      </trkpt>
      <trkpt lat="44.06245" lon="7.47433">
        <ele>1951</ele>
        <time>2025-06-13T10:19:58Z</time>
      </trkpt>
      <trkpt lat="44.06262" lon="7.47453">
        <ele>1954</ele>
        <time>2025-06-13T10:20:09Z</time>
      </trkpt>
      <trkpt lat="44.06271" lon="7.47474">
        <ele>1953</ele>
        <time>2025-06-13T10:20:17Z</time>
      </trkpt>
      <trkpt lat="44.06274" lon="7.47498">
        <ele>1947</ele>
        <time>2025-06-13T10:20:26Z</time>
      </trkpt>
      <trkpt lat="44.06281" lon="7.47517">
        <ele>1944</ele>
        <time>2025-06-13T10:20:34Z</time>
      </trkpt>
      <trkpt lat="44.06294" lon="7.47533">
        <ele>1946</ele>
        <time>2025-06-13T10:20:43Z</time>
      </trkpt>
      <trkpt lat="44.06296" lon="7.47554">
        <ele>1938</ele>
        <time>2025-06-13T10:20:50Z</time>
      </trkpt>
      <trkpt lat="44.06293" lon="7.47551">
        <ele>1938</ele>
        <time>2025-06-13T10:20:52Z</time>
      </trkpt>
      <trkpt lat="44.06294" lon="7.47558">
        <ele>1936</ele>
        <time>2025-06-13T10:20:55Z</time>
      </trkpt>
      <trkpt lat="44.06293" lon="7.47564">
        <ele>1933</ele>
        <time>2025-06-13T10:20:57Z</time>
      </trkpt>
      <trkpt lat="44.06303" lon="7.47584">
        <ele>1931</ele>
        <time>2025-06-13T10:21:06Z</time>
      </trkpt>
      <trkpt lat="44.06302" lon="7.47608">
        <ele>1922</ele>
        <time>2025-06-13T10:21:14Z</time>
      </trkpt>
      <trkpt lat="44.06301" lon="7.47615">
        <ele>1919</ele>
        <time>2025-06-13T10:21:17Z</time>
      </trkpt>
      <trkpt lat="44.06306" lon="7.47626">
        <ele>1919</ele>
        <time>2025-06-13T10:21:22Z</time>
      </trkpt>
      <trkpt lat="44.06317" lon="7.47643">
        <ele>1920</ele>
        <time>2025-06-13T10:21:30Z</time>
      </trkpt>
      <trkpt lat="44.06326" lon="7.47652">
        <ele>1924</ele>
        <time>2025-06-13T10:21:35Z</time>
      </trkpt>
      <trkpt lat="44.06334" lon="7.47666">
        <ele>1924</ele>
        <time>2025-06-13T10:21:42Z</time>
      </trkpt>
      <trkpt lat="44.06345" lon="7.4768">
        <ele>1923</ele>
        <time>2025-06-13T10:21:49Z</time>
      </trkpt>
      <trkpt lat="44.06359" lon="7.47681">
        <ele>1929</ele>
        <time>2025-06-13T10:21:56Z</time>
      </trkpt>
      <trkpt lat="44.06367" lon="7.47688">
        <ele>1929</ele>
        <time>2025-06-13T10:22:01Z</time>
      </trkpt>
      <trkpt lat="44.06374" lon="7.4769">
        <ele>1931</ele>
        <time>2025-06-13T10:22:04Z</time>
      </trkpt>
      <trkpt lat="44.06384" lon="7.47688">
        <ele>1936</ele>
        <time>2025-06-13T10:22:10Z</time>
      </trkpt>
      <trkpt lat="44.06394" lon="7.47691">
        <ele>1939</ele>
        <time>2025-06-13T10:22:15Z</time>
      </trkpt>
      <trkpt lat="44.06402" lon="7.47695">
        <ele>1941</ele>
        <time>2025-06-13T10:22:19Z</time>
      </trkpt>
      <trkpt lat="44.06411" lon="7.47716">
        <ele>1936</ele>
        <time>2025-06-13T10:22:28Z</time>
      </trkpt>
      <trkpt lat="44.06419" lon="7.47721">
        <ele>1937</ele>
        <time>2025-06-13T10:22:32Z</time>
      </trkpt>
      <trkpt lat="44.06435" lon="7.47723">
        <ele>1940</ele>
        <time>2025-06-13T10:22:40Z</time>
      </trkpt>
      <trkpt lat="44.06445" lon="7.47732">
        <ele>1939</ele>
        <time>2025-06-13T10:22:46Z</time>
      </trkpt>
      <trkpt lat="44.06451" lon="7.4774">
        <ele>1938</ele>
        <time>2025-06-13T10:22:50Z</time>
      </trkpt>
      <trkpt lat="44.06457" lon="7.47749">
        <ele>1936</ele>
        <time>2025-06-13T10:22:55Z</time>
      </trkpt>
      <trkpt lat="44.06467" lon="7.47759">
        <ele>1936</ele>
        <time>2025-06-13T10:23:01Z</time>
      </trkpt>
      <trkpt lat="44.06482" lon="7.47771">
        <ele>1938</ele>
        <time>2025-06-13T10:23:09Z</time>
      </trkpt>
      <trkpt lat="44.06495" lon="7.47791">
        <ele>1935</ele>
        <time>2025-06-13T10:23:19Z</time>
      </trkpt>
      <trkpt lat="44.0651" lon="7.47817">
        <ele>1930</ele>
        <time>2025-06-13T10:23:31Z</time>
      </trkpt>
      <trkpt lat="44.06511" lon="7.47832">
        <ele>1925</ele>
        <time>2025-06-13T10:23:37Z</time>
      </trkpt>
      <trkpt lat="44.0651" lon="7.47858">
        <ele>1920</ele>
        <time>2025-06-13T10:23:46Z</time>
      </trkpt>
      <trkpt lat="44.06512" lon="7.47877">
        <ele>1917</ele>
        <time>2025-06-13T10:23:53Z</time>
      </trkpt>
      <trkpt lat="44.06522" lon="7.47897">
        <ele>1913</ele>
        <time>2025-06-13T10:24:02Z</time>
      </trkpt>
      <trkpt lat="44.06529" lon="7.47909">
        <ele>1911</ele>
        <time>2025-06-13T10:24:07Z</time>
      </trkpt>
      <trkpt lat="44.06536" lon="7.47923">
        <ele>1908</ele>
        <time>2025-06-13T10:24:13Z</time>
      </trkpt>
      <trkpt lat="44.06545" lon="7.47932">
        <ele>1906</ele>
        <time>2025-06-13T10:24:19Z</time>
      </trkpt>
      <trkpt lat="44.06559" lon="7.47943">
        <ele>1905</ele>
        <time>2025-06-13T10:24:27Z</time>
      </trkpt>
      <trkpt lat="44.0658" lon="7.47952">
        <ele>1905</ele>
        <time>2025-06-13T10:24:38Z</time>
      </trkpt>
      <trkpt lat="44.06593" lon="7.47955">
        <ele>1905</ele>
        <time>2025-06-13T10:24:44Z</time>
      </trkpt>
      <trkpt lat="44.0661" lon="7.47971">
        <ele>1903</ele>
        <time>2025-06-13T10:24:55Z</time>
      </trkpt>
      <trkpt lat="44.06622" lon="7.47977">
        <ele>1902</ele>
        <time>2025-06-13T10:25:01Z</time>
      </trkpt>
      <trkpt lat="44.06644" lon="7.47972">
        <ele>1903</ele>
        <time>2025-06-13T10:25:12Z</time>
      </trkpt>
      <trkpt lat="44.06656" lon="7.47978">
        <ele>1901</ele>
        <time>2025-06-13T10:25:19Z</time>
      </trkpt>
      <trkpt lat="44.06668" lon="7.47976">
        <ele>1902</ele>
        <time>2025-06-13T10:25:25Z</time>
      </trkpt>
      <trkpt lat="44.06677" lon="7.47977">
        <ele>1903</ele>
        <time>2025-06-13T10:25:29Z</time>
      </trkpt>
      <trkpt lat="44.06693" lon="7.48003">
        <ele>1898</ele>
        <time>2025-06-13T10:25:42Z</time>
      </trkpt>
      <trkpt lat="44.06714" lon="7.48027">
        <ele>1897</ele>
        <time>2025-06-13T10:25:55Z</time>
      </trkpt>
      <trkpt lat="44.0673" lon="7.48028">
        <ele>1898</ele>
        <time>2025-06-13T10:26:03Z</time>
      </trkpt>
      <trkpt lat="44.0675" lon="7.48011">
        <ele>1902</ele>
        <time>2025-06-13T10:26:15Z</time>
      </trkpt>
      <trkpt lat="44.06754" lon="7.48012">
        <ele>1902</ele>
        <time>2025-06-13T10:26:17Z</time>
      </trkpt>
      <trkpt lat="44.06769" lon="7.48009">
        <ele>1904</ele>
        <time>2025-06-13T10:26:25Z</time>
      </trkpt>
      <trkpt lat="44.06783" lon="7.48016">
        <ele>1905</ele>
        <time>2025-06-13T10:26:32Z</time>
      </trkpt>
      <trkpt lat="44.06795" lon="7.48018">
        <ele>1906</ele>
        <time>2025-06-13T10:26:38Z</time>
      </trkpt>
      <trkpt lat="44.06809" lon="7.48007">
        <ele>1909</ele>
        <time>2025-06-13T10:26:46Z</time>
      </trkpt>
      <trkpt lat="44.06816" lon="7.47994">
        <ele>1912</ele>
        <time>2025-06-13T10:26:52Z</time>
      </trkpt>
      <trkpt lat="44.06828" lon="7.47989">
        <ele>1915</ele>
        <time>2025-06-13T10:26:58Z</time>
      </trkpt>
      <trkpt lat="44.0684" lon="7.48002">
        <ele>1914</ele>
        <time>2025-06-13T10:27:06Z</time>
      </trkpt>
      <trkpt lat="44.06846" lon="7.48013">
        <ele>1914</ele>
        <time>2025-06-13T10:27:11Z</time>
      </trkpt>
      <trkpt lat="44.0686" lon="7.48027">
        <ele>1915</ele>
        <time>2025-06-13T10:27:19Z</time>
      </trkpt>
      <trkpt lat="44.06875" lon="7.48028">
        <ele>1917</ele>
        <time>2025-06-13T10:27:27Z</time>
      </trkpt>
      <trkpt lat="44.06889" lon="7.48027">
        <ele>1919</ele>
        <time>2025-06-13T10:27:34Z</time>
      </trkpt>
      <trkpt lat="44.06894" lon="7.48024">
        <ele>1920</ele>
        <time>2025-06-13T10:27:37Z</time>
      </trkpt>
      <trkpt lat="44.06903" lon="7.48028">
        <ele>1921</ele>
        <time>2025-06-13T10:27:41Z</time>
      </trkpt>
      <trkpt lat="44.06904" lon="7.48032">
        <ele>1921</ele>
        <time>2025-06-13T10:27:43Z</time>
      </trkpt>
      <trkpt lat="44.06912" lon="7.48038">
        <ele>1922</ele>
        <time>2025-06-13T10:27:47Z</time>
      </trkpt>
      <trkpt lat="44.06918" lon="7.48046">
        <ele>1922</ele>
        <time>2025-06-13T10:27:52Z</time>
      </trkpt>
      <trkpt lat="44.0694" lon="7.48066">
        <ele>1924</ele>
        <time>2025-06-13T10:28:05Z</time>
      </trkpt>
      <trkpt lat="44.06954" lon="7.48089">
        <ele>1924</ele>
        <time>2025-06-13T10:28:16Z</time>
      </trkpt>
      <trkpt lat="44.06959" lon="7.481">
        <ele>1923</ele>
        <time>2025-06-13T10:28:20Z</time>
      </trkpt>
      <trkpt lat="44.06966" lon="7.48109">
        <ele>1923</ele>
        <time>2025-06-13T10:28:25Z</time>
      </trkpt>
      <trkpt lat="44.0697" lon="7.48104">
        <ele>1924</ele>
        <time>2025-06-13T10:28:28Z</time>
      </trkpt>
      <trkpt lat="44.06984" lon="7.48091">
        <ele>1929</ele>
        <time>2025-06-13T10:28:36Z</time>
      </trkpt>
      <trkpt lat="44.06998" lon="7.48106">
        <ele>1929</ele>
        <time>2025-06-13T10:28:45Z</time>
      </trkpt>
      <trkpt lat="44.07026" lon="7.48072">
        <ele>1940</ele>
        <time>2025-06-13T10:29:04Z</time>
      </trkpt>
      <trkpt lat="44.0706" lon="7.48067">
        <ele>1947</ele>
        <time>2025-06-13T10:29:21Z</time>
      </trkpt>
      <trkpt lat="44.07077" lon="7.48071">
        <ele>1950</ele>
        <time>2025-06-13T10:29:29Z</time>
      </trkpt>
      <trkpt lat="44.07103" lon="7.48062">
        <ele>1957</ele>
        <time>2025-06-13T10:29:43Z</time>
      </trkpt>
      <trkpt lat="44.07113" lon="7.48066">
        <ele>1958</ele>
        <time>2025-06-13T10:29:48Z</time>
      </trkpt>
      <trkpt lat="44.07113" lon="7.48066">
        <ele>1958</ele>
        <time>2025-06-13T10:29:48Z</time>
      </trkpt>
      <trkpt lat="44.07113" lon="7.48074">
        <ele>1958</ele>
        <time>2025-06-13T10:29:51Z</time>
      </trkpt>
      <trkpt lat="44.07104" lon="7.48105">
        <ele>1954</ele>
        <time>2025-06-13T10:30:03Z</time>
      </trkpt>
      <trkpt lat="44.07121" lon="7.48093">
        <ele>1958</ele>
        <time>2025-06-13T10:30:12Z</time>
      </trkpt>
      <trkpt lat="44.07136" lon="7.4807">
        <ele>1963</ele>
        <time>2025-06-13T10:30:24Z</time>
      </trkpt>
      <trkpt lat="44.07137" lon="7.4805">
        <ele>1965</ele>
        <time>2025-06-13T10:30:31Z</time>
      </trkpt>
      <trkpt lat="44.07144" lon="7.48032">
        <ele>1968</ele>
        <time>2025-06-13T10:30:38Z</time>
      </trkpt>
      <trkpt lat="44.07157" lon="7.4803">
        <ele>1971</ele>
        <time>2025-06-13T10:30:45Z</time>
      </trkpt>
      <trkpt lat="44.07166" lon="7.48022">
        <ele>1973</ele>
        <time>2025-06-13T10:30:50Z</time>
      </trkpt>
      <trkpt lat="44.07176" lon="7.48019">
        <ele>1977</ele>
        <time>2025-06-13T10:30:55Z</time>
      </trkpt>
      <trkpt lat="44.07201" lon="7.47999">
        <ele>1985</ele>
        <time>2025-06-13T10:31:10Z</time>
      </trkpt>
      <trkpt lat="44.07205" lon="7.47988">
        <ele>1987</ele>
        <time>2025-06-13T10:31:14Z</time>
      </trkpt>
      <trkpt lat="44.07213" lon="7.47976">
        <ele>1990</ele>
        <time>2025-06-13T10:31:20Z</time>
      </trkpt>
      <trkpt lat="44.07224" lon="7.47954">
        <ele>1994</ele>
        <time>2025-06-13T10:31:30Z</time>
      </trkpt>
      <trkpt lat="44.0723" lon="7.47956">
        <ele>1995</ele>
        <time>2025-06-13T10:31:33Z</time>
      </trkpt>
      <trkpt lat="44.0724" lon="7.47953">
        <ele>1998</ele>
        <time>2025-06-13T10:31:38Z</time>
      </trkpt>
      <trkpt lat="44.07245" lon="7.47959">
        <ele>1999</ele>
        <time>2025-06-13T10:31:41Z</time>
      </trkpt>
      <trkpt lat="44.07255" lon="7.47959">
        <ele>2001</ele>
        <time>2025-06-13T10:31:46Z</time>
      </trkpt>
      <trkpt lat="44.07259" lon="7.47963">
        <ele>2002</ele>
        <time>2025-06-13T10:31:49Z</time>
      </trkpt>
      <trkpt lat="44.07276" lon="7.4796">
        <ele>2007</ele>
        <time>2025-06-13T10:31:57Z</time>
      </trkpt>
      <trkpt lat="44.07295" lon="7.47969">
        <ele>2013</ele>
        <time>2025-06-13T10:32:07Z</time>
      </trkpt>
      <trkpt lat="44.07327" lon="7.47968">
        <ele>2022</ele>
        <time>2025-06-13T10:32:23Z</time>
      </trkpt>
      <trkpt lat="44.07374" lon="7.47955">
        <ele>2033</ele>
        <time>2025-06-13T10:32:47Z</time>
      </trkpt>
      <trkpt lat="44.07392" lon="7.47951">
        <ele>2038</ele>
        <time>2025-06-13T10:32:56Z</time>
      </trkpt>
      <trkpt lat="44.07399" lon="7.47954">
        <ele>2040</ele>
        <time>2025-06-13T10:33:00Z</time>
      </trkpt>
      <trkpt lat="44.07409" lon="7.47951">
        <ele>2042</ele>
        <time>2025-06-13T10:33:05Z</time>
      </trkpt>
      <trkpt lat="44.07436" lon="7.47933">
        <ele>2048</ele>
        <time>2025-06-13T10:33:20Z</time>
      </trkpt>
      <trkpt lat="44.07442" lon="7.47922">
        <ele>2047</ele>
        <time>2025-06-13T10:33:25Z</time>
      </trkpt>
      <trkpt lat="44.07453" lon="7.47917">
        <ele>2049</ele>
        <time>2025-06-13T10:33:31Z</time>
      </trkpt>
      <trkpt lat="44.07475" lon="7.47904">
        <ele>2056</ele>
        <time>2025-06-13T10:33:43Z</time>
      </trkpt>
      <trkpt lat="44.07491" lon="7.47901">
        <ele>2060</ele>
        <time>2025-06-13T10:33:51Z</time>
      </trkpt>
      <trkpt lat="44.07526" lon="7.47886">
        <ele>2071</ele>
        <time>2025-06-13T10:34:09Z</time>
      </trkpt>
      <trkpt lat="44.0754" lon="7.47879">
        <ele>2075</ele>
        <time>2025-06-13T10:34:17Z</time>
      </trkpt>
      <trkpt lat="44.07619" lon="7.47808">
        <ele>2094</ele>
        <time>2025-06-13T10:35:04Z</time>
      </trkpt>
      <trkpt lat="44.07636" lon="7.47789">
        <ele>2099</ele>
        <time>2025-06-13T10:35:15Z</time>
      </trkpt>
      <trkpt lat="44.07647" lon="7.47774">
        <ele>2102</ele>
        <time>2025-06-13T10:35:22Z</time>
      </trkpt>
      <trkpt lat="44.07666" lon="7.47756">
        <ele>2106</ele>
        <time>2025-06-13T10:35:34Z</time>
      </trkpt>
      <trkpt lat="44.07681" lon="7.47751">
        <ele>2112</ele>
        <time>2025-06-13T10:35:41Z</time>
      </trkpt>
      <trkpt lat="44.07683" lon="7.47744">
        <ele>2113</ele>
        <time>2025-06-13T10:35:44Z</time>
      </trkpt>
      <trkpt lat="44.07682" lon="7.47732">
        <ele>2113</ele>
        <time>2025-06-13T10:35:49Z</time>
      </trkpt>
      <trkpt lat="44.07684" lon="7.47719">
        <ele>2115</ele>
        <time>2025-06-13T10:35:53Z</time>
      </trkpt>
      <trkpt lat="44.07682" lon="7.47715">
        <ele>2114</ele>
        <time>2025-06-13T10:35:55Z</time>
      </trkpt>
      <trkpt lat="44.07683" lon="7.47691">
        <ele>2116</ele>
        <time>2025-06-13T10:36:04Z</time>
      </trkpt>
      <trkpt lat="44.07682" lon="7.47688">
        <ele>2116</ele>
        <time>2025-06-13T10:36:05Z</time>
      </trkpt>
      <trkpt lat="44.07682" lon="7.47688">
        <ele>2116</ele>
        <time>2025-06-13T10:36:05Z</time>
      </trkpt>
      <trkpt lat="44.07678" lon="7.47686">
        <ele>2115</ele>
        <time>2025-06-13T10:36:07Z</time>
      </trkpt>
      <trkpt lat="44.07662" lon="7.4763">
        <ele>2116</ele>
        <time>2025-06-13T10:36:29Z</time>
      </trkpt>
      <trkpt lat="44.07666" lon="7.47604">
        <ele>2121</ele>
        <time>2025-06-13T10:36:38Z</time>
      </trkpt>
      <trkpt lat="44.07672" lon="7.47597">
        <ele>2123</ele>
        <time>2025-06-13T10:36:42Z</time>
      </trkpt>
      <trkpt lat="44.07672" lon="7.47591">
        <ele>2124</ele>
        <time>2025-06-13T10:36:44Z</time>
      </trkpt>
      <trkpt lat="44.07676" lon="7.47587">
        <ele>2126</ele>
        <time>2025-06-13T10:36:47Z</time>
      </trkpt>
      <trkpt lat="44.07677" lon="7.47583">
        <ele>2127</ele>
        <time>2025-06-13T10:36:48Z</time>
      </trkpt>
      <trkpt lat="44.0768" lon="7.47583">
        <ele>2128</ele>
        <time>2025-06-13T10:36:50Z</time>
      </trkpt>
      <trkpt lat="44.07681" lon="7.4758">
        <ele>2128</ele>
        <time>2025-06-13T10:36:51Z</time>
      </trkpt>
      <trkpt lat="44.07686" lon="7.47576">
        <ele>2130</ele>
        <time>2025-06-13T10:36:54Z</time>
      </trkpt>
      <trkpt lat="44.07694" lon="7.47579">
        <ele>2132</ele>
        <time>2025-06-13T10:36:58Z</time>
      </trkpt>
      <trkpt lat="44.07701" lon="7.47577">
        <ele>2134</ele>
        <time>2025-06-13T10:37:02Z</time>
      </trkpt>
      <trkpt lat="44.07701" lon="7.47571">
        <ele>2135</ele>
        <time>2025-06-13T10:37:04Z</time>
      </trkpt>
      <trkpt lat="44.07699" lon="7.47558">
        <ele>2136</ele>
        <time>2025-06-13T10:37:09Z</time>
      </trkpt>
      <trkpt lat="44.07702" lon="7.47558">
        <ele>2137</ele>
        <time>2025-06-13T10:37:10Z</time>
      </trkpt>
      <trkpt lat="44.07702" lon="7.4756">
        <ele>2137</ele>
        <time>2025-06-13T10:37:11Z</time>
      </trkpt>
      <trkpt lat="44.07707" lon="7.47562">
        <ele>2138</ele>
        <time>2025-06-13T10:37:13Z</time>
      </trkpt>
      <trkpt lat="44.07712" lon="7.47555">
        <ele>2141</ele>
        <time>2025-06-13T10:37:17Z</time>
      </trkpt>
      <trkpt lat="44.0772" lon="7.47552">
        <ele>2144</ele>
        <time>2025-06-13T10:37:21Z</time>
      </trkpt>
      <trkpt lat="44.07725" lon="7.47553">
        <ele>2145</ele>
        <time>2025-06-13T10:37:24Z</time>
      </trkpt>
      <trkpt lat="44.07725" lon="7.47546">
        <ele>2147</ele>
        <time>2025-06-13T10:37:26Z</time>
      </trkpt>
      <trkpt lat="44.07723" lon="7.47539">
        <ele>2147</ele>
        <time>2025-06-13T10:37:29Z</time>
      </trkpt>
      <trkpt lat="44.07723" lon="7.47536">
        <ele>2148</ele>
        <time>2025-06-13T10:37:30Z</time>
      </trkpt>
      <trkpt lat="44.07722" lon="7.47528">
        <ele>2149</ele>
        <time>2025-06-13T10:37:33Z</time>
      </trkpt>
      <trkpt lat="44.07737" lon="7.47524">
        <ele>2156</ele>
        <time>2025-06-13T10:37:40Z</time>
      </trkpt>
      <trkpt lat="44.0774" lon="7.47508">
        <ele>2161</ele>
        <time>2025-06-13T10:37:46Z</time>
      </trkpt>
      <trkpt lat="44.07737" lon="7.47501">
        <ele>2161</ele>
        <time>2025-06-13T10:37:49Z</time>
      </trkpt>
      <trkpt lat="44.07736" lon="7.47496">
        <ele>2161</ele>
        <time>2025-06-13T10:37:51Z</time>
      </trkpt>
      <trkpt lat="44.07738" lon="7.47488">
        <ele>2164</ele>
        <time>2025-06-13T10:37:54Z</time>
      </trkpt>
      <trkpt lat="44.07738" lon="7.47484">
        <ele>2165</ele>
        <time>2025-06-13T10:37:56Z</time>
      </trkpt>
      <trkpt lat="44.07739" lon="7.47478">
        <ele>2167</ele>
        <time>2025-06-13T10:37:58Z</time>
      </trkpt>
      <trkpt lat="44.07737" lon="7.47473">
        <ele>2167</ele>
        <time>2025-06-13T10:38:00Z</time>
      </trkpt>
      <trkpt lat="44.07738" lon="7.47468">
        <ele>2168</ele>
        <time>2025-06-13T10:38:02Z</time>
      </trkpt>
      <trkpt lat="44.07738" lon="7.47465">
        <ele>2169</ele>
        <time>2025-06-13T10:38:03Z</time>
      </trkpt>
      <trkpt lat="44.07741" lon="7.47448">
        <ele>2174</ele>
        <time>2025-06-13T10:38:09Z</time>
      </trkpt>
      <trkpt lat="44.07746" lon="7.4744">
        <ele>2179</ele>
        <time>2025-06-13T10:38:13Z</time>
      </trkpt>
      <trkpt lat="44.07754" lon="7.47439">
        <ele>2182</ele>
        <time>2025-06-13T10:38:17Z</time>
      </trkpt>
      <trkpt lat="44.07768" lon="7.47449">
        <ele>2185</ele>
        <time>2025-06-13T10:38:25Z</time>
      </trkpt>
      <trkpt lat="44.07782" lon="7.47442">
        <ele>2191</ele>
        <time>2025-06-13T10:38:32Z</time>
      </trkpt>
      <trkpt lat="44.07834" lon="7.47433">
        <ele>2211</ele>
        <time>2025-06-13T10:38:59Z</time>
      </trkpt>
      <trkpt lat="44.07855" lon="7.47433">
        <ele>2217</ele>
        <time>2025-06-13T10:39:09Z</time>
      </trkpt>
      <trkpt lat="44.07865" lon="7.47426">
        <ele>2222</ele>
        <time>2025-06-13T10:39:15Z</time>
      </trkpt>
      <trkpt lat="44.07854" lon="7.4742">
        <ele>2220</ele>
        <time>2025-06-13T10:39:21Z</time>
      </trkpt>
      <trkpt lat="44.07871" lon="7.4741">
        <ele>2227</ele>
        <time>2025-06-13T10:39:30Z</time>
      </trkpt>
      <trkpt lat="44.07883" lon="7.47399">
        <ele>2233</ele>
        <time>2025-06-13T10:39:37Z</time>
      </trkpt>
      <trkpt lat="44.07887" lon="7.47401">
        <ele>2234</ele>
        <time>2025-06-13T10:39:39Z</time>
      </trkpt>
      <trkpt lat="44.07899" lon="7.47401">
        <ele>2237</ele>
        <time>2025-06-13T10:39:45Z</time>
      </trkpt>
      <trkpt lat="44.07905" lon="7.47399">
        <ele>2239</ele>
        <time>2025-06-13T10:39:48Z</time>
      </trkpt>
      <trkpt lat="44.0791" lon="7.4739">
        <ele>2242</ele>
        <time>2025-06-13T10:39:52Z</time>
      </trkpt>
      <trkpt lat="44.07913" lon="7.47387">
        <ele>2244</ele>
        <time>2025-06-13T10:39:54Z</time>
      </trkpt>
      <trkpt lat="44.07913" lon="7.47387">
        <ele>2244</ele>
        <time>2025-06-13T10:39:54Z</time>
      </trkpt>
      <trkpt lat="44.07943" lon="7.47422">
        <ele>2247</ele>
        <time>2025-06-13T10:40:14Z</time>
      </trkpt>
      <trkpt lat="44.07962" lon="7.47428">
        <ele>2253</ele>
        <time>2025-06-13T10:40:24Z</time>
      </trkpt>
      <trkpt lat="44.08001" lon="7.47478">
        <ele>2266</ele>
        <time>2025-06-13T10:40:50Z</time>
      </trkpt>
      <trkpt lat="44.08014" lon="7.47501">
        <ele>2261</ele>
        <time>2025-06-13T10:41:01Z</time>
      </trkpt>
      <trkpt lat="44.08019" lon="7.47503">
        <ele>2260</ele>
        <time>2025-06-13T10:41:03Z</time>
      </trkpt>
      <trkpt lat="44.08023" lon="7.47508">
        <ele>2259</ele>
        <time>2025-06-13T10:41:06Z</time>
      </trkpt>
      <trkpt lat="44.08038" lon="7.4754">
        <ele>2255</ele>
        <time>2025-06-13T10:41:20Z</time>
      </trkpt>
      <trkpt lat="44.08048" lon="7.47558">
        <ele>2253</ele>
        <time>2025-06-13T10:41:28Z</time>
      </trkpt>
      <trkpt lat="44.08051" lon="7.47554">
        <ele>2252</ele>
        <time>2025-06-13T10:41:30Z</time>
      </trkpt>
      <trkpt lat="44.0805" lon="7.47542">
        <ele>2252</ele>
        <time>2025-06-13T10:41:34Z</time>
      </trkpt>
      <trkpt lat="44.08049" lon="7.47533">
        <ele>2252</ele>
        <time>2025-06-13T10:41:37Z</time>
      </trkpt>
      <trkpt lat="44.08051" lon="7.4753">
        <ele>2251</ele>
        <time>2025-06-13T10:41:39Z</time>
      </trkpt>
      <trkpt lat="44.0805" lon="7.47504">
        <ele>2251</ele>
        <time>2025-06-13T10:41:48Z</time>
      </trkpt>
      <trkpt lat="44.08071" lon="7.4746">
        <ele>2247</ele>
        <time>2025-06-13T10:42:07Z</time>
      </trkpt>
      <trkpt lat="44.08076" lon="7.4743">
        <ele>2247</ele>
        <time>2025-06-13T10:42:18Z</time>
      </trkpt>
      <trkpt lat="44.08087" lon="7.47409">
        <ele>2243</ele>
        <time>2025-06-13T10:42:28Z</time>
      </trkpt>
      <trkpt lat="44.08084" lon="7.47381">
        <ele>2247</ele>
        <time>2025-06-13T10:42:38Z</time>
      </trkpt>
      <trkpt lat="44.08086" lon="7.47339">
        <ele>2247</ele>
        <time>2025-06-13T10:42:53Z</time>
      </trkpt>
      <trkpt lat="44.08091" lon="7.4732">
        <ele>2246</ele>
        <time>2025-06-13T10:43:00Z</time>
      </trkpt>
      <trkpt lat="44.08091" lon="7.47304">
        <ele>2250</ele>
        <time>2025-06-13T10:43:06Z</time>
      </trkpt>
      <trkpt lat="44.081" lon="7.47279">
        <ele>2247</ele>
        <time>2025-06-13T10:43:16Z</time>
      </trkpt>
      <trkpt lat="44.08118" lon="7.47254">
        <ele>2234</ele>
        <time>2025-06-13T10:43:29Z</time>
      </trkpt>
      <trkpt lat="44.08123" lon="7.47236">
        <ele>2232</ele>
        <time>2025-06-13T10:43:36Z</time>
      </trkpt>
      <trkpt lat="44.08122" lon="7.47181">
        <ele>2240</ele>
        <time>2025-06-13T10:43:56Z</time>
      </trkpt>
      <trkpt lat="44.08128" lon="7.47161">
        <ele>2235</ele>
        <time>2025-06-13T10:44:03Z</time>
      </trkpt>
      <trkpt lat="44.08125" lon="7.47142">
        <ele>2241</ele>
        <time>2025-06-13T10:44:10Z</time>
      </trkpt>
      <trkpt lat="44.08128" lon="7.47118">
        <ele>2239</ele>
        <time>2025-06-13T10:44:19Z</time>
      </trkpt>
      <trkpt lat="44.08112" lon="7.47044">
        <ele>2262</ele>
        <time>2025-06-13T10:44:47Z</time>
      </trkpt>
      <trkpt lat="44.08105" lon="7.46942">
        <ele>2264</ele>
        <time>2025-06-13T10:45:24Z</time>
      </trkpt>
      <trkpt lat="44.08117" lon="7.46844">
        <ele>2262</ele>
        <time>2025-06-13T10:45:59Z</time>
      </trkpt>
      <trkpt lat="44.08131" lon="7.46812">
        <ele>2254</ele>
        <time>2025-06-13T10:46:13Z</time>
      </trkpt>
      <trkpt lat="44.08135" lon="7.46794">
        <ele>2253</ele>
        <time>2025-06-13T10:46:20Z</time>
      </trkpt>
      <trkpt lat="44.08129" lon="7.46805">
        <ele>2257</ele>
        <time>2025-06-13T10:46:25Z</time>
      </trkpt>
      <trkpt lat="44.08119" lon="7.46815">
        <ele>2264</ele>
        <time>2025-06-13T10:46:31Z</time>
      </trkpt>
      <trkpt lat="44.08125" lon="7.46795">
        <ele>2262</ele>
        <time>2025-06-13T10:46:39Z</time>
      </trkpt>
      <trkpt lat="44.08124" lon="7.46779">
        <ele>2265</ele>
        <time>2025-06-13T10:46:44Z</time>
      </trkpt>
      <trkpt lat="44.08117" lon="7.46754">
        <ele>2275</ele>
        <time>2025-06-13T10:46:54Z</time>
      </trkpt>
      <trkpt lat="44.08127" lon="7.467">
        <ele>2265</ele>
        <time>2025-06-13T10:47:14Z</time>
      </trkpt>
      <trkpt lat="44.08117" lon="7.46665">
        <ele>2271</ele>
        <time>2025-06-13T10:47:28Z</time>
      </trkpt>
      <trkpt lat="44.08092" lon="7.46607">
        <ele>2275</ele>
        <time>2025-06-13T10:47:52Z</time>
      </trkpt>
      <trkpt lat="44.08087" lon="7.46572">
        <ele>2270</ele>
        <time>2025-06-13T10:48:05Z</time>
      </trkpt>
      <trkpt lat="44.08077" lon="7.46548">
        <ele>2281</ele>
        <time>2025-06-13T10:48:15Z</time>
      </trkpt>
      <trkpt lat="44.0807" lon="7.46541">
        <ele>2292</ele>
        <time>2025-06-13T10:48:19Z</time>
      </trkpt>
      <trkpt lat="44.08057" lon="7.46536">
        <ele>2311</ele>
        <time>2025-06-13T10:48:26Z</time>
      </trkpt>
      <trkpt lat="44.08054" lon="7.46487">
        <ele>2307</ele>
        <time>2025-06-13T10:48:43Z</time>
      </trkpt>
      <trkpt lat="44.08053" lon="7.46451">
        <ele>2300</ele>
        <time>2025-06-13T10:48:56Z</time>
      </trkpt>
      <trkpt lat="44.08046" lon="7.46422">
        <ele>2299</ele>
        <time>2025-06-13T10:49:07Z</time>
      </trkpt>
      <trkpt lat="44.08044" lon="7.46458">
        <ele>2311</ele>
        <time>2025-06-13T10:49:20Z</time>
      </trkpt>
      <trkpt lat="44.08024" lon="7.46407">
        <ele>2314</ele>
        <time>2025-06-13T10:49:41Z</time>
      </trkpt>
      <trkpt lat="44.08019" lon="7.46429">
        <ele>2324</ele>
        <time>2025-06-13T10:49:50Z</time>
      </trkpt>
      <trkpt lat="44.08012" lon="7.46398">
        <ele>2323</ele>
        <time>2025-06-13T10:50:01Z</time>
      </trkpt>
      <trkpt lat="44.08004" lon="7.46377">
        <ele>2327</ele>
        <time>2025-06-13T10:50:10Z</time>
      </trkpt>
      <trkpt lat="44.08003" lon="7.46396">
        <ele>2329</ele>
        <time>2025-06-13T10:50:17Z</time>
      </trkpt>
      <trkpt lat="44.07995" lon="7.46381">
        <ele>2336</ele>
        <time>2025-06-13T10:50:23Z</time>
      </trkpt>
      <trkpt lat="44.07996" lon="7.46406">
        <ele>2338</ele>
        <time>2025-06-13T10:50:32Z</time>
      </trkpt>
      <trkpt lat="44.07985" lon="7.46374">
        <ele>2347</ele>
        <time>2025-06-13T10:50:45Z</time>
      </trkpt>
      <trkpt lat="44.07965" lon="7.4635">
        <ele>2364</ele>
        <time>2025-06-13T10:50:58Z</time>
      </trkpt>
      <trkpt lat="44.07954" lon="7.46329">
        <ele>2368</ele>
        <time>2025-06-13T10:51:08Z</time>
      </trkpt>
      <trkpt lat="44.07955" lon="7.46269">
        <ele>2356</ele>
        <time>2025-06-13T10:51:29Z</time>
      </trkpt>
      <trkpt lat="44.07939" lon="7.46222">
        <ele>2360</ele>
        <time>2025-06-13T10:51:48Z</time>
      </trkpt>
      <trkpt lat="44.07923" lon="7.46187">
        <ele>2364</ele>
        <time>2025-06-13T10:52:03Z</time>
      </trkpt>
      <trkpt lat="44.07911" lon="7.46104">
        <ele>2362</ele>
        <time>2025-06-13T10:52:33Z</time>
      </trkpt>
      <trkpt lat="44.0792" lon="7.46085">
        <ele>2356</ele>
        <time>2025-06-13T10:52:41Z</time>
      </trkpt>
      <trkpt lat="44.07922" lon="7.46065">
        <ele>2356</ele>
        <time>2025-06-13T10:52:49Z</time>
      </trkpt>
      <trkpt lat="44.07952" lon="7.46002">
        <ele>2358</ele>
        <time>2025-06-13T10:53:16Z</time>
      </trkpt>
      <trkpt lat="44.07945" lon="7.45961">
        <ele>2360</ele>
        <time>2025-06-13T10:53:31Z</time>
      </trkpt>
      <trkpt lat="44.07934" lon="7.45939">
        <ele>2362</ele>
        <time>2025-06-13T10:53:41Z</time>
      </trkpt>
      <trkpt lat="44.07938" lon="7.45888">
        <ele>2363</ele>
        <time>2025-06-13T10:53:59Z</time>
      </trkpt>
      <trkpt lat="44.07946" lon="7.45878">
        <ele>2363</ele>
        <time>2025-06-13T10:54:05Z</time>
      </trkpt>
      <trkpt lat="44.07962" lon="7.45872">
        <ele>2363</ele>
        <time>2025-06-13T10:54:13Z</time>
      </trkpt>
      <trkpt lat="44.07984" lon="7.45816">
        <ele>2364</ele>
        <time>2025-06-13T10:54:36Z</time>
      </trkpt>
      <trkpt lat="44.07987" lon="7.458">
        <ele>2365</ele>
        <time>2025-06-13T10:54:42Z</time>
      </trkpt>
      <trkpt lat="44.08026" lon="7.45789">
        <ele>2372</ele>
        <time>2025-06-13T10:55:02Z</time>
      </trkpt>
      <trkpt lat="44.08034" lon="7.45742">
        <ele>2379</ele>
        <time>2025-06-13T10:55:19Z</time>
      </trkpt>
      <trkpt lat="44.0803" lon="7.45728">
        <ele>2380</ele>
        <time>2025-06-13T10:55:24Z</time>
      </trkpt>
      <trkpt lat="44.08033" lon="7.45727">
        <ele>2381</ele>
        <time>2025-06-13T10:55:26Z</time>
      </trkpt>
      <trkpt lat="44.08036" lon="7.45731">
        <ele>2381</ele>
        <time>2025-06-13T10:55:28Z</time>
      </trkpt>
      <trkpt lat="44.08037" lon="7.45728">
        <ele>2382</ele>
        <time>2025-06-13T10:55:29Z</time>
      </trkpt>
      <trkpt lat="44.08036" lon="7.45725">
        <ele>2383</ele>
        <time>2025-06-13T10:55:30Z</time>
      </trkpt>
      <trkpt lat="44.08034" lon="7.45722">
        <ele>2382</ele>
        <time>2025-06-13T10:55:32Z</time>
      </trkpt>
      <trkpt lat="44.08033" lon="7.45718">
        <ele>2383</ele>
        <time>2025-06-13T10:55:33Z</time>
      </trkpt>
      <trkpt lat="44.08036" lon="7.45716">
        <ele>2384</ele>
        <time>2025-06-13T10:55:35Z</time>
      </trkpt>
      <trkpt lat="44.08035" lon="7.45714">
        <ele>2384</ele>
        <time>2025-06-13T10:55:36Z</time>
      </trkpt>
      <trkpt lat="44.08032" lon="7.45711">
        <ele>2384</ele>
        <time>2025-06-13T10:55:38Z</time>
      </trkpt>
      <trkpt lat="44.08032" lon="7.45706">
        <ele>2385</ele>
        <time>2025-06-13T10:55:40Z</time>
      </trkpt>
      <trkpt lat="44.08033" lon="7.45703">
        <ele>2386</ele>
        <time>2025-06-13T10:55:41Z</time>
      </trkpt>
      <trkpt lat="44.08038" lon="7.45702">
        <ele>2388</ele>
        <time>2025-06-13T10:55:43Z</time>
      </trkpt>
      <trkpt lat="44.08041" lon="7.45689">
        <ele>2391</ele>
        <time>2025-06-13T10:55:48Z</time>
      </trkpt>
      <trkpt lat="44.08046" lon="7.4571">
        <ele>2389</ele>
        <time>2025-06-13T10:55:56Z</time>
      </trkpt>
      <trkpt lat="44.08047" lon="7.45693">
        <ele>2393</ele>
        <time>2025-06-13T10:56:02Z</time>
      </trkpt>
      <trkpt lat="44.08043" lon="7.45678">
        <ele>2394</ele>
        <time>2025-06-13T10:56:08Z</time>
      </trkpt>
      <trkpt lat="44.08041" lon="7.45668">
        <ele>2395</ele>
        <time>2025-06-13T10:56:12Z</time>
      </trkpt>
      <trkpt lat="44.08043" lon="7.45666">
        <ele>2397</ele>
        <time>2025-06-13T10:56:13Z</time>
      </trkpt>
      <trkpt lat="44.08059" lon="7.45696">
        <ele>2397</ele>
        <time>2025-06-13T10:56:26Z</time>
      </trkpt>
      <trkpt lat="44.08064" lon="7.45713">
        <ele>2395</ele>
        <time>2025-06-13T10:56:33Z</time>
      </trkpt>
      <trkpt lat="44.08065" lon="7.45691">
        <ele>2400</ele>
        <time>2025-06-13T10:56:41Z</time>
      </trkpt>
      <trkpt lat="44.08061" lon="7.4567">
        <ele>2404</ele>
        <time>2025-06-13T10:56:49Z</time>
      </trkpt>
      <trkpt lat="44.08061" lon="7.45663">
        <ele>2405</ele>
        <time>2025-06-13T10:56:51Z</time>
      </trkpt>
      <trkpt lat="44.08051" lon="7.45628">
        <ele>2408</ele>
        <time>2025-06-13T10:57:05Z</time>
      </trkpt>
      <trkpt lat="44.08052" lon="7.45605">
        <ele>2412</ele>
        <time>2025-06-13T10:57:13Z</time>
      </trkpt>
      <trkpt lat="44.0805" lon="7.45596">
        <ele>2413</ele>
        <time>2025-06-13T10:57:16Z</time>
      </trkpt>
      <trkpt lat="44.08053" lon="7.45567">
        <ele>2420</ele>
        <time>2025-06-13T10:57:27Z</time>
      </trkpt>
      <trkpt lat="44.08048" lon="7.45553">
        <ele>2420</ele>
        <time>2025-06-13T10:57:33Z</time>
      </trkpt>
      <trkpt lat="44.08043" lon="7.45545">
        <ele>2419</ele>
        <time>2025-06-13T10:57:36Z</time>
      </trkpt>
      <trkpt lat="44.08053" lon="7.45547">
        <ele>2424</ele>
        <time>2025-06-13T10:57:41Z</time>
      </trkpt>
      <trkpt lat="44.0804" lon="7.45508">
        <ele>2424</ele>
        <time>2025-06-13T10:57:57Z</time>
      </trkpt>
      <trkpt lat="44.08001" lon="7.4544">
        <ele>2422</ele>
        <time>2025-06-13T10:58:28Z</time>
      </trkpt>
      <trkpt lat="44.07988" lon="7.45421">
        <ele>2425</ele>
        <time>2025-06-13T10:58:38Z</time>
      </trkpt>
      <trkpt lat="44.0799" lon="7.45419">
        <ele>2426</ele>
        <time>2025-06-13T10:58:39Z</time>
      </trkpt>
      <trkpt lat="44.08001" lon="7.45428">
        <ele>2425</ele>
        <time>2025-06-13T10:58:45Z</time>
      </trkpt>
      <trkpt lat="44.07996" lon="7.45416">
        <ele>2428</ele>
        <time>2025-06-13T10:58:50Z</time>
      </trkpt>
      <trkpt lat="44.0799" lon="7.45411">
        <ele>2428</ele>
        <time>2025-06-13T10:58:54Z</time>
      </trkpt>
      <trkpt lat="44.07987" lon="7.454">
        <ele>2431</ele>
        <time>2025-06-13T10:58:58Z</time>
      </trkpt>
      <trkpt lat="44.07979" lon="7.45383">
        <ele>2434</ele>
        <time>2025-06-13T10:59:05Z</time>
      </trkpt>
      <trkpt lat="44.0797" lon="7.4537">
        <ele>2436</ele>
        <time>2025-06-13T10:59:12Z</time>
      </trkpt>
      <trkpt lat="44.07964" lon="7.45356">
        <ele>2438</ele>
        <time>2025-06-13T10:59:18Z</time>
      </trkpt>
      <trkpt lat="44.07955" lon="7.45341">
        <ele>2440</ele>
        <time>2025-06-13T10:59:25Z</time>
      </trkpt>
      <trkpt lat="44.07943" lon="7.45335">
        <ele>2439</ele>
        <time>2025-06-13T10:59:31Z</time>
      </trkpt>
      <trkpt lat="44.07933" lon="7.45327">
        <ele>2439</ele>
        <time>2025-06-13T10:59:37Z</time>
      </trkpt>
      <trkpt lat="44.07924" lon="7.45322">
        <ele>2439</ele>
        <time>2025-06-13T10:59:42Z</time>
      </trkpt>
      <trkpt lat="44.07892" lon="7.45319">
        <ele>2440</ele>
        <time>2025-06-13T10:59:58Z</time>
      </trkpt>
      <trkpt lat="44.07885" lon="7.45313">
        <ele>2442</ele>
        <time>2025-06-13T11:00:02Z</time>
      </trkpt>
      <trkpt lat="44.07884" lon="7.45309">
        <ele>2444</ele>
        <time>2025-06-13T11:00:03Z</time>
      </trkpt>
      <trkpt lat="44.07881" lon="7.45307">
        <ele>2445</ele>
        <time>2025-06-13T11:00:05Z</time>
      </trkpt>
      <trkpt lat="44.07878" lon="7.453">
        <ele>2448</ele>
        <time>2025-06-13T11:00:08Z</time>
      </trkpt>
      <trkpt lat="44.07872" lon="7.45299">
        <ele>2448</ele>
        <time>2025-06-13T11:00:11Z</time>
      </trkpt>
      <trkpt lat="44.0787" lon="7.45301">
        <ele>2448</ele>
        <time>2025-06-13T11:00:12Z</time>
      </trkpt>
      <trkpt lat="44.07864" lon="7.45301">
        <ele>2448</ele>
        <time>2025-06-13T11:00:15Z</time>
      </trkpt>
      <trkpt lat="44.07864" lon="7.45296">
        <ele>2450</ele>
        <time>2025-06-13T11:00:17Z</time>
      </trkpt>
      <trkpt lat="44.07861" lon="7.45296">
        <ele>2450</ele>
        <time>2025-06-13T11:00:19Z</time>
      </trkpt>
      <trkpt lat="44.07851" lon="7.45295">
        <ele>2451</ele>
        <time>2025-06-13T11:00:24Z</time>
      </trkpt>
      <trkpt lat="44.07853" lon="7.45275">
        <ele>2458</ele>
        <time>2025-06-13T11:00:31Z</time>
      </trkpt>
      <trkpt lat="44.07861" lon="7.45263">
        <ele>2462</ele>
        <time>2025-06-13T11:00:37Z</time>
      </trkpt>
      <trkpt lat="44.0787" lon="7.45256">
        <ele>2464</ele>
        <time>2025-06-13T11:00:42Z</time>
      </trkpt>
      <trkpt lat="44.07873" lon="7.45249">
        <ele>2466</ele>
        <time>2025-06-13T11:00:45Z</time>
      </trkpt>
      <trkpt lat="44.07882" lon="7.45248">
        <ele>2466</ele>
        <time>2025-06-13T11:00:49Z</time>
      </trkpt>
      <trkpt lat="44.07885" lon="7.45241">
        <ele>2468</ele>
        <time>2025-06-13T11:00:52Z</time>
      </trkpt>
      <trkpt lat="44.07887" lon="7.4524">
        <ele>2468</ele>
        <time>2025-06-13T11:00:53Z</time>
      </trkpt>
      <trkpt lat="44.07888" lon="7.45234">
        <ele>2470</ele>
        <time>2025-06-13T11:00:55Z</time>
      </trkpt>
      <trkpt lat="44.07895" lon="7.45227">
        <ele>2473</ele>
        <time>2025-06-13T11:01:00Z</time>
      </trkpt>
      <trkpt lat="44.07904" lon="7.45228">
        <ele>2471</ele>
        <time>2025-06-13T11:01:04Z</time>
      </trkpt>
      <trkpt lat="44.07909" lon="7.45225">
        <ele>2472</ele>
        <time>2025-06-13T11:01:07Z</time>
      </trkpt>
      <trkpt lat="44.07913" lon="7.45215">
        <ele>2476</ele>
        <time>2025-06-13T11:01:11Z</time>
      </trkpt>
      <trkpt lat="44.0792" lon="7.4522">
        <ele>2474</ele>
        <time>2025-06-13T11:01:15Z</time>
      </trkpt>
      <trkpt lat="44.07935" lon="7.4521">
        <ele>2479</ele>
        <time>2025-06-13T11:01:23Z</time>
      </trkpt>
      <trkpt lat="44.07944" lon="7.45209">
        <ele>2481</ele>
        <time>2025-06-13T11:01:28Z</time>
      </trkpt>
      <trkpt lat="44.07956" lon="7.45204">
        <ele>2484</ele>
        <time>2025-06-13T11:01:34Z</time>
      </trkpt>
      <trkpt lat="44.07959" lon="7.45206">
        <ele>2484</ele>
        <time>2025-06-13T11:01:36Z</time>
      </trkpt>
      <trkpt lat="44.07973" lon="7.45199">
        <ele>2487</ele>
        <time>2025-06-13T11:01:43Z</time>
      </trkpt>
      <trkpt lat="44.07977" lon="7.45192">
        <ele>2490</ele>
        <time>2025-06-13T11:01:47Z</time>
      </trkpt>
      <trkpt lat="44.07991" lon="7.45185">
        <ele>2493</ele>
        <time>2025-06-13T11:01:54Z</time>
      </trkpt>
      <trkpt lat="44.07998" lon="7.45192">
        <ele>2492</ele>
        <time>2025-06-13T11:01:58Z</time>
      </trkpt>
      <trkpt lat="44.0801" lon="7.45176">
        <ele>2499</ele>
        <time>2025-06-13T11:02:07Z</time>
      </trkpt>
      <trkpt lat="44.08025" lon="7.45166">
        <ele>2505</ele>
        <time>2025-06-13T11:02:15Z</time>
      </trkpt>
      <trkpt lat="44.08041" lon="7.45143">
        <ele>2514</ele>
        <time>2025-06-13T11:02:26Z</time>
      </trkpt>
      <trkpt lat="44.08096" lon="7.45143">
        <ele>2524</ele>
        <time>2025-06-13T11:02:54Z</time>
      </trkpt>
      <trkpt lat="44.08103" lon="7.45158">
        <ele>2522</ele>
        <time>2025-06-13T11:03:00Z</time>
      </trkpt>
      <trkpt lat="44.08137" lon="7.45136">
        <ele>2531</ele>
        <time>2025-06-13T11:03:19Z</time>
      </trkpt>
      <trkpt lat="44.08149" lon="7.45156">
        <ele>2529</ele>
        <time>2025-06-13T11:03:29Z</time>
      </trkpt>
      <trkpt lat="44.0818" lon="7.45148">
        <ele>2530</ele>
        <time>2025-06-13T11:03:44Z</time>
      </trkpt>
      <trkpt lat="44.08189" lon="7.45126">
        <ele>2530</ele>
        <time>2025-06-13T11:03:53Z</time>
      </trkpt>
      <trkpt lat="44.08197" lon="7.45093">
        <ele>2529</ele>
        <time>2025-06-13T11:04:06Z</time>
      </trkpt>
      <trkpt lat="44.0821" lon="7.45063">
        <ele>2528</ele>
        <time>2025-06-13T11:04:19Z</time>
      </trkpt>
      <trkpt lat="44.08213" lon="7.45032">
        <ele>2531</ele>
        <time>2025-06-13T11:04:30Z</time>
      </trkpt>
      <trkpt lat="44.08222" lon="7.44996">
        <ele>2531</ele>
        <time>2025-06-13T11:04:43Z</time>
      </trkpt>
      <trkpt lat="44.08234" lon="7.44972">
        <ele>2529</ele>
        <time>2025-06-13T11:04:54Z</time>
      </trkpt>
      <trkpt lat="44.08234" lon="7.44915">
        <ele>2533</ele>
        <time>2025-06-13T11:05:14Z</time>
      </trkpt>
      <trkpt lat="44.08235" lon="7.44881">
        <ele>2533</ele>
        <time>2025-06-13T11:05:27Z</time>
      </trkpt>
      <trkpt lat="44.08249" lon="7.44843">
        <ele>2531</ele>
        <time>2025-06-13T11:05:42Z</time>
      </trkpt>
      <trkpt lat="44.0824" lon="7.44817">
        <ele>2535</ele>
        <time>2025-06-13T11:05:52Z</time>
      </trkpt>
      <trkpt lat="44.08247" lon="7.44771">
        <ele>2538</ele>
        <time>2025-06-13T11:06:09Z</time>
      </trkpt>
      <trkpt lat="44.08255" lon="7.44752">
        <ele>2540</ele>
        <time>2025-06-13T11:06:17Z</time>
      </trkpt>
      <trkpt lat="44.08276" lon="7.44722">
        <ele>2544</ele>
        <time>2025-06-13T11:06:32Z</time>
      </trkpt>
      <trkpt lat="44.08333" lon="7.44695">
        <ele>2552</ele>
        <time>2025-06-13T11:07:02Z</time>
      </trkpt>
      <trkpt lat="44.08365" lon="7.44705">
        <ele>2546</ele>
        <time>2025-06-13T11:07:19Z</time>
      </trkpt>
      <trkpt lat="44.08393" lon="7.44639">
        <ele>2558</ele>
        <time>2025-06-13T11:07:46Z</time>
      </trkpt>
      <trkpt lat="44.08398" lon="7.4462">
        <ele>2561</ele>
        <time>2025-06-13T11:07:54Z</time>
      </trkpt>
      <trkpt lat="44.08406" lon="7.44607">
        <ele>2563</ele>
        <time>2025-06-13T11:08:00Z</time>
      </trkpt>
      <trkpt lat="44.08455" lon="7.4453">
        <ele>2567</ele>
        <time>2025-06-13T11:08:37Z</time>
      </trkpt>
      <trkpt lat="44.08471" lon="7.44498">
        <ele>2569</ele>
        <time>2025-06-13T11:08:51Z</time>
      </trkpt>
      <trkpt lat="44.08471" lon="7.44477">
        <ele>2566</ele>
        <time>2025-06-13T11:08:58Z</time>
      </trkpt>
      <trkpt lat="44.08477" lon="7.44453">
        <ele>2561</ele>
        <time>2025-06-13T11:09:08Z</time>
      </trkpt>
      <trkpt lat="44.08476" lon="7.44445">
        <ele>2560</ele>
        <time>2025-06-13T11:09:10Z</time>
      </trkpt>
      <trkpt lat="44.08482" lon="7.44429">
        <ele>2557</ele>
        <time>2025-06-13T11:09:17Z</time>
      </trkpt>
      <trkpt lat="44.08482" lon="7.44413">
        <ele>2554</ele>
        <time>2025-06-13T11:09:23Z</time>
      </trkpt>
      <trkpt lat="44.08481" lon="7.44405">
        <ele>2552</ele>
        <time>2025-06-13T11:09:26Z</time>
      </trkpt>
      <trkpt lat="44.08482" lon="7.44394">
        <ele>2547</ele>
        <time>2025-06-13T11:09:30Z</time>
      </trkpt>
      <trkpt lat="44.08476" lon="7.44388">
        <ele>2546</ele>
        <time>2025-06-13T11:09:33Z</time>
      </trkpt>
      <trkpt lat="44.08472" lon="7.44375">
        <ele>2542</ele>
        <time>2025-06-13T11:09:38Z</time>
      </trkpt>
      <trkpt lat="44.08482" lon="7.4435">
        <ele>2531</ele>
        <time>2025-06-13T11:09:49Z</time>
      </trkpt>
      <trkpt lat="44.08496" lon="7.44347">
        <ele>2527</ele>
        <time>2025-06-13T11:09:56Z</time>
      </trkpt>
      <trkpt lat="44.08507" lon="7.44326">
        <ele>2516</ele>
        <time>2025-06-13T11:10:05Z</time>
      </trkpt>
      <trkpt lat="44.08526" lon="7.44304">
        <ele>2501</ele>
        <time>2025-06-13T11:10:17Z</time>
      </trkpt>
      <trkpt lat="44.08532" lon="7.44292">
        <ele>2494</ele>
        <time>2025-06-13T11:10:23Z</time>
      </trkpt>
      <trkpt lat="44.08526" lon="7.44288">
        <ele>2492</ele>
        <time>2025-06-13T11:10:26Z</time>
      </trkpt>
      <trkpt lat="44.08527" lon="7.44284">
        <ele>2490</ele>
        <time>2025-06-13T11:10:28Z</time>
      </trkpt>
      <trkpt lat="44.08502" lon="7.44265">
        <ele>2483</ele>
        <time>2025-06-13T11:10:42Z</time>
      </trkpt>
      <trkpt lat="44.08512" lon="7.4425">
        <ele>2473</ele>
        <time>2025-06-13T11:10:49Z</time>
      </trkpt>
      <trkpt lat="44.08502" lon="7.44235">
        <ele>2469</ele>
        <time>2025-06-13T11:10:57Z</time>
      </trkpt>
      <trkpt lat="44.08509" lon="7.44218">
        <ele>2461</ele>
        <time>2025-06-13T11:11:04Z</time>
      </trkpt>
      <trkpt lat="44.08508" lon="7.44206">
        <ele>2456</ele>
        <time>2025-06-13T11:11:08Z</time>
      </trkpt>
      <trkpt lat="44.08519" lon="7.44192">
        <ele>2448</ele>
        <time>2025-06-13T11:11:15Z</time>
      </trkpt>
      <trkpt lat="44.08519" lon="7.44166">
        <ele>2438</ele>
        <time>2025-06-13T11:11:25Z</time>
      </trkpt>
      <trkpt lat="44.08548" lon="7.4416">
        <ele>2430</ele>
        <time>2025-06-13T11:11:39Z</time>
      </trkpt>
      <trkpt lat="44.08583" lon="7.44121">
        <ele>2410</ele>
        <time>2025-06-13T11:12:02Z</time>
      </trkpt>
      <trkpt lat="44.08618" lon="7.44034">
        <ele>2389</ele>
        <time>2025-06-13T11:12:38Z</time>
      </trkpt>
      <trkpt lat="44.0864" lon="7.43998">
        <ele>2379</ele>
        <time>2025-06-13T11:12:55Z</time>
      </trkpt>
      <trkpt lat="44.08649" lon="7.43917">
        <ele>2370</ele>
        <time>2025-06-13T11:13:24Z</time>
      </trkpt>
      <trkpt lat="44.08644" lon="7.43921">
        <ele>2371</ele>
        <time>2025-06-13T11:13:27Z</time>
      </trkpt>
      <trkpt lat="44.08591" lon="7.43905">
        <ele>2376</ele>
        <time>2025-06-13T11:13:54Z</time>
      </trkpt>
      <trkpt lat="44.08558" lon="7.43917">
        <ele>2384</ele>
        <time>2025-06-13T11:14:11Z</time>
      </trkpt>
      <trkpt lat="44.08545" lon="7.43894">
        <ele>2387</ele>
        <time>2025-06-13T11:14:22Z</time>
      </trkpt>
      <trkpt lat="44.08533" lon="7.43879">
        <ele>2389</ele>
        <time>2025-06-13T11:14:30Z</time>
      </trkpt>
      <trkpt lat="44.08522" lon="7.43876">
        <ele>2392</ele>
        <time>2025-06-13T11:14:35Z</time>
      </trkpt>
      <trkpt lat="44.08517" lon="7.43871">
        <ele>2393</ele>
        <time>2025-06-13T11:14:38Z</time>
      </trkpt>
      <trkpt lat="44.08517" lon="7.43856">
        <ele>2392</ele>
        <time>2025-06-13T11:14:44Z</time>
      </trkpt>
      <trkpt lat="44.08519" lon="7.43852">
        <ele>2392</ele>
        <time>2025-06-13T11:14:46Z</time>
      </trkpt>
      <trkpt lat="44.08517" lon="7.43842">
        <ele>2392</ele>
        <time>2025-06-13T11:14:49Z</time>
      </trkpt>
      <trkpt lat="44.0851" lon="7.43827">
        <ele>2393</ele>
        <time>2025-06-13T11:14:56Z</time>
      </trkpt>
      <trkpt lat="44.08505" lon="7.43822">
        <ele>2395</ele>
        <time>2025-06-13T11:14:59Z</time>
      </trkpt>
      <trkpt lat="44.08502" lon="7.43814">
        <ele>2396</ele>
        <time>2025-06-13T11:15:02Z</time>
      </trkpt>
      <trkpt lat="44.08486" lon="7.43792">
        <ele>2400</ele>
        <time>2025-06-13T11:15:13Z</time>
      </trkpt>
      <trkpt lat="44.0847" lon="7.43757">
        <ele>2404</ele>
        <time>2025-06-13T11:15:28Z</time>
      </trkpt>
      <trkpt lat="44.0846" lon="7.43742">
        <ele>2408</ele>
        <time>2025-06-13T11:15:36Z</time>
      </trkpt>
      <trkpt lat="44.08454" lon="7.43737">
        <ele>2411</ele>
        <time>2025-06-13T11:15:39Z</time>
      </trkpt>
      <trkpt lat="44.08454" lon="7.43727">
        <ele>2413</ele>
        <time>2025-06-13T11:15:43Z</time>
      </trkpt>
      <trkpt lat="44.08429" lon="7.43727">
        <ele>2418</ele>
        <time>2025-06-13T11:15:55Z</time>
      </trkpt>
      <trkpt lat="44.08425" lon="7.43721">
        <ele>2420</ele>
        <time>2025-06-13T11:15:58Z</time>
      </trkpt>
      <trkpt lat="44.08413" lon="7.43725">
        <ele>2422</ele>
        <time>2025-06-13T11:16:04Z</time>
      </trkpt>
      <trkpt lat="44.08409" lon="7.43735">
        <ele>2420</ele>
        <time>2025-06-13T11:16:08Z</time>
      </trkpt>
      <trkpt lat="44.08403" lon="7.43732">
        <ele>2422</ele>
        <time>2025-06-13T11:16:12Z</time>
      </trkpt>
      <trkpt lat="44.08399" lon="7.43745">
        <ele>2420</ele>
        <time>2025-06-13T11:16:17Z</time>
      </trkpt>
      <trkpt lat="44.08377" lon="7.43757">
        <ele>2422</ele>
        <time>2025-06-13T11:16:29Z</time>
      </trkpt>
      <trkpt lat="44.08361" lon="7.4377">
        <ele>2425</ele>
        <time>2025-06-13T11:16:38Z</time>
      </trkpt>
      <trkpt lat="44.08355" lon="7.43791">
        <ele>2426</ele>
        <time>2025-06-13T11:16:46Z</time>
      </trkpt>
      <trkpt lat="44.08342" lon="7.43809">
        <ele>2429</ele>
        <time>2025-06-13T11:16:55Z</time>
      </trkpt>
      <trkpt lat="44.08343" lon="7.43824">
        <ele>2429</ele>
        <time>2025-06-13T11:17:01Z</time>
      </trkpt>
      <trkpt lat="44.08333" lon="7.43824">
        <ele>2431</ele>
        <time>2025-06-13T11:17:06Z</time>
      </trkpt>
      <trkpt lat="44.08336" lon="7.43836">
        <ele>2431</ele>
        <time>2025-06-13T11:17:10Z</time>
      </trkpt>
      <trkpt lat="44.08302" lon="7.43835">
        <ele>2444</ele>
        <time>2025-06-13T11:17:27Z</time>
      </trkpt>
      <trkpt lat="44.08298" lon="7.43829">
        <ele>2445</ele>
        <time>2025-06-13T11:17:30Z</time>
      </trkpt>
      <trkpt lat="44.0829" lon="7.43832">
        <ele>2449</ele>
        <time>2025-06-13T11:17:34Z</time>
      </trkpt>
      <trkpt lat="44.08272" lon="7.43833">
        <ele>2456</ele>
        <time>2025-06-13T11:17:43Z</time>
      </trkpt>
      <trkpt lat="44.08255" lon="7.43828">
        <ele>2463</ele>
        <time>2025-06-13T11:17:52Z</time>
      </trkpt>
      <trkpt lat="44.08239" lon="7.4382">
        <ele>2468</ele>
        <time>2025-06-13T11:18:00Z</time>
      </trkpt>
      <trkpt lat="44.08232" lon="7.43807">
        <ele>2470</ele>
        <time>2025-06-13T11:18:06Z</time>
      </trkpt>
      <trkpt lat="44.08226" lon="7.438">
        <ele>2471</ele>
        <time>2025-06-13T11:18:10Z</time>
      </trkpt>
      <trkpt lat="44.0822" lon="7.43787">
        <ele>2473</ele>
        <time>2025-06-13T11:18:16Z</time>
      </trkpt>
      <trkpt lat="44.08217" lon="7.43787">
        <ele>2474</ele>
        <time>2025-06-13T11:18:17Z</time>
      </trkpt>
      <trkpt lat="44.08213" lon="7.43784">
        <ele>2475</ele>
        <time>2025-06-13T11:18:20Z</time>
      </trkpt>
      <trkpt lat="44.08213" lon="7.43792">
        <ele>2476</ele>
        <time>2025-06-13T11:18:22Z</time>
      </trkpt>
      <trkpt lat="44.08215" lon="7.43799">
        <ele>2475</ele>
        <time>2025-06-13T11:18:25Z</time>
      </trkpt>
      <trkpt lat="44.08214" lon="7.43807">
        <ele>2476</ele>
        <time>2025-06-13T11:18:28Z</time>
      </trkpt>
      <trkpt lat="44.08217" lon="7.43815">
        <ele>2476</ele>
        <time>2025-06-13T11:18:31Z</time>
      </trkpt>
      <trkpt lat="44.08213" lon="7.43848">
        <ele>2483</ele>
        <time>2025-06-13T11:18:43Z</time>
      </trkpt>
      <trkpt lat="44.08219" lon="7.43863">
        <ele>2485</ele>
        <time>2025-06-13T11:18:49Z</time>
      </trkpt>
      <trkpt lat="44.08217" lon="7.43867">
        <ele>2487</ele>
        <time>2025-06-13T11:18:51Z</time>
      </trkpt>
      <trkpt lat="44.08188" lon="7.43849">
        <ele>2492</ele>
        <time>2025-06-13T11:19:07Z</time>
      </trkpt>
      <trkpt lat="44.08156" lon="7.43841">
        <ele>2502</ele>
        <time>2025-06-13T11:19:23Z</time>
      </trkpt>
      <trkpt lat="44.08168" lon="7.43916">
        <ele>2516</ele>
        <time>2025-06-13T11:19:51Z</time>
      </trkpt>
      <trkpt lat="44.08138" lon="7.43905">
        <ele>2526</ele>
        <time>2025-06-13T11:20:07Z</time>
      </trkpt>
      <trkpt lat="44.08103" lon="7.43899">
        <ele>2539</ele>
        <time>2025-06-13T11:20:24Z</time>
      </trkpt>
      <trkpt lat="44.08088" lon="7.43898">
        <ele>2545</ele>
        <time>2025-06-13T11:20:32Z</time>
      </trkpt>
      <trkpt lat="44.08086" lon="7.43896">
        <ele>2545</ele>
        <time>2025-06-13T11:20:33Z</time>
      </trkpt>
      <trkpt lat="44.08084" lon="7.43896">
        <ele>2546</ele>
        <time>2025-06-13T11:20:34Z</time>
      </trkpt>
      <trkpt lat="44.08081" lon="7.43894">
        <ele>2545</ele>
        <time>2025-06-13T11:20:36Z</time>
      </trkpt>
      <trkpt lat="44.08078" lon="7.43894">
        <ele>2544</ele>
        <time>2025-06-13T11:20:37Z</time>
      </trkpt>
      <trkpt lat="44.08073" lon="7.43891">
        <ele>2542</ele>
        <time>2025-06-13T11:20:40Z</time>
      </trkpt>
      <trkpt lat="44.08067" lon="7.43887">
        <ele>2540</ele>
        <time>2025-06-13T11:20:43Z</time>
      </trkpt>
      <trkpt lat="44.08062" lon="7.43877">
        <ele>2536</ele>
        <time>2025-06-13T11:20:48Z</time>
      </trkpt>
      <trkpt lat="44.0806" lon="7.43872">
        <ele>2535</ele>
        <time>2025-06-13T11:20:50Z</time>
      </trkpt>
      <trkpt lat="44.08059" lon="7.43861">
        <ele>2532</ele>
        <time>2025-06-13T11:20:54Z</time>
      </trkpt>
      <trkpt lat="44.08055" lon="7.43853">
        <ele>2530</ele>
        <time>2025-06-13T11:20:57Z</time>
      </trkpt>
      <trkpt lat="44.08052" lon="7.43847">
        <ele>2528</ele>
        <time>2025-06-13T11:21:00Z</time>
      </trkpt>
      <trkpt lat="44.08047" lon="7.43844">
        <ele>2526</ele>
        <time>2025-06-13T11:21:02Z</time>
      </trkpt>
      <trkpt lat="44.08044" lon="7.43843">
        <ele>2526</ele>
        <time>2025-06-13T11:21:04Z</time>
      </trkpt>
      <trkpt lat="44.08041" lon="7.43836">
        <ele>2524</ele>
        <time>2025-06-13T11:21:07Z</time>
      </trkpt>
      <trkpt lat="44.08035" lon="7.43827">
        <ele>2523</ele>
        <time>2025-06-13T11:21:11Z</time>
      </trkpt>
      <trkpt lat="44.08034" lon="7.43826">
        <ele>2523</ele>
        <time>2025-06-13T11:21:12Z</time>
      </trkpt>
      <trkpt lat="44.08031" lon="7.43829">
        <ele>2522</ele>
        <time>2025-06-13T11:21:14Z</time>
      </trkpt>
      <trkpt lat="44.08029" lon="7.43833">
        <ele>2521</ele>
        <time>2025-06-13T11:21:16Z</time>
      </trkpt>
      <trkpt lat="44.08027" lon="7.43833">
        <ele>2520</ele>
        <time>2025-06-13T11:21:17Z</time>
      </trkpt>
      <trkpt lat="44.08024" lon="7.43827">
        <ele>2520</ele>
        <time>2025-06-13T11:21:19Z</time>
      </trkpt>
      <trkpt lat="44.08023" lon="7.4382">
        <ele>2521</ele>
        <time>2025-06-13T11:21:22Z</time>
      </trkpt>
      <trkpt lat="44.08017" lon="7.43817">
        <ele>2521</ele>
        <time>2025-06-13T11:21:25Z</time>
      </trkpt>
      <trkpt lat="44.08017" lon="7.43813">
        <ele>2521</ele>
        <time>2025-06-13T11:21:26Z</time>
      </trkpt>
      <trkpt lat="44.08019" lon="7.4381">
        <ele>2522</ele>
        <time>2025-06-13T11:21:28Z</time>
      </trkpt>
      <trkpt lat="44.08019" lon="7.43798">
        <ele>2524</ele>
        <time>2025-06-13T11:21:32Z</time>
      </trkpt>
      <trkpt lat="44.08003" lon="7.43771">
        <ele>2528</ele>
        <time>2025-06-13T11:21:45Z</time>
      </trkpt>
      <trkpt lat="44.08" lon="7.43774">
        <ele>2527</ele>
        <time>2025-06-13T11:21:47Z</time>
      </trkpt>
      <trkpt lat="44.07997" lon="7.43753">
        <ele>2530</ele>
        <time>2025-06-13T11:21:54Z</time>
      </trkpt>
      <trkpt lat="44.07989" lon="7.43742">
        <ele>2529</ele>
        <time>2025-06-13T11:22:00Z</time>
      </trkpt>
      <trkpt lat="44.07981" lon="7.43734">
        <ele>2528</ele>
        <time>2025-06-13T11:22:05Z</time>
      </trkpt>
      <trkpt lat="44.07974" lon="7.43731">
        <ele>2525</ele>
        <time>2025-06-13T11:22:08Z</time>
      </trkpt>
      <trkpt lat="44.07972" lon="7.43731">
        <ele>2524</ele>
        <time>2025-06-13T11:22:09Z</time>
      </trkpt>
      <trkpt lat="44.07972" lon="7.43734">
        <ele>2523</ele>
        <time>2025-06-13T11:22:11Z</time>
      </trkpt>
      <trkpt lat="44.07977" lon="7.43749">
        <ele>2520</ele>
        <time>2025-06-13T11:22:17Z</time>
      </trkpt>
      <trkpt lat="44.07976" lon="7.43749">
        <ele>2520</ele>
        <time>2025-06-13T11:22:17Z</time>
      </trkpt>
      <trkpt lat="44.0797" lon="7.43746">
        <ele>2518</ele>
        <time>2025-06-13T11:22:20Z</time>
      </trkpt>
      <trkpt lat="44.07971" lon="7.43752">
        <ele>2517</ele>
        <time>2025-06-13T11:22:22Z</time>
      </trkpt>
      <trkpt lat="44.07972" lon="7.43757">
        <ele>2516</ele>
        <time>2025-06-13T11:22:24Z</time>
      </trkpt>
      <trkpt lat="44.07972" lon="7.43787">
        <ele>2509</ele>
        <time>2025-06-13T11:22:35Z</time>
      </trkpt>
      <trkpt lat="44.07971" lon="7.43787">
        <ele>2509</ele>
        <time>2025-06-13T11:22:36Z</time>
      </trkpt>
      <trkpt lat="44.07968" lon="7.43783">
        <ele>2508</ele>
        <time>2025-06-13T11:22:38Z</time>
      </trkpt>
      <trkpt lat="44.07962" lon="7.4377">
        <ele>2508</ele>
        <time>2025-06-13T11:22:43Z</time>
      </trkpt>
      <trkpt lat="44.07958" lon="7.4377">
        <ele>2506</ele>
        <time>2025-06-13T11:22:45Z</time>
      </trkpt>
      <trkpt lat="44.07952" lon="7.4375">
        <ele>2507</ele>
        <time>2025-06-13T11:22:53Z</time>
      </trkpt>
      <trkpt lat="44.07949" lon="7.43752">
        <ele>2505</ele>
        <time>2025-06-13T11:22:55Z</time>
      </trkpt>
      <trkpt lat="44.07949" lon="7.43763">
        <ele>2503</ele>
        <time>2025-06-13T11:22:59Z</time>
      </trkpt>
      <trkpt lat="44.0793" lon="7.43746">
        <ele>2497</ele>
        <time>2025-06-13T11:23:10Z</time>
      </trkpt>
      <trkpt lat="44.07928" lon="7.43741">
        <ele>2498</ele>
        <time>2025-06-13T11:23:12Z</time>
      </trkpt>
      <trkpt lat="44.07892" lon="7.4371">
        <ele>2488</ele>
        <time>2025-06-13T11:23:33Z</time>
      </trkpt>
      <trkpt lat="44.07891" lon="7.43711">
        <ele>2487</ele>
        <time>2025-06-13T11:23:34Z</time>
      </trkpt>
      <trkpt lat="44.07907" lon="7.43763">
        <ele>2480</ele>
        <time>2025-06-13T11:23:54Z</time>
      </trkpt>
      <trkpt lat="44.07906" lon="7.43765">
        <ele>2479</ele>
        <time>2025-06-13T11:23:55Z</time>
      </trkpt>
      <trkpt lat="44.07863" lon="7.43728">
        <ele>2464</ele>
        <time>2025-06-13T11:24:20Z</time>
      </trkpt>
      <trkpt lat="44.07865" lon="7.43742">
        <ele>2461</ele>
        <time>2025-06-13T11:24:25Z</time>
      </trkpt>
      <trkpt lat="44.07868" lon="7.43763">
        <ele>2458</ele>
        <time>2025-06-13T11:24:33Z</time>
      </trkpt>
      <trkpt lat="44.07873" lon="7.4377">
        <ele>2459</ele>
        <time>2025-06-13T11:24:37Z</time>
      </trkpt>
      <trkpt lat="44.07872" lon="7.43773">
        <ele>2458</ele>
        <time>2025-06-13T11:24:38Z</time>
      </trkpt>
      <trkpt lat="44.07867" lon="7.4377">
        <ele>2456</ele>
        <time>2025-06-13T11:24:41Z</time>
      </trkpt>
      <trkpt lat="44.07864" lon="7.4377">
        <ele>2454</ele>
        <time>2025-06-13T11:24:42Z</time>
      </trkpt>
      <trkpt lat="44.07863" lon="7.43768">
        <ele>2454</ele>
        <time>2025-06-13T11:24:43Z</time>
      </trkpt>
      <trkpt lat="44.07856" lon="7.43766">
        <ele>2450</ele>
        <time>2025-06-13T11:24:47Z</time>
      </trkpt>
      <trkpt lat="44.07843" lon="7.43745">
        <ele>2447</ele>
        <time>2025-06-13T11:24:56Z</time>
      </trkpt>
      <trkpt lat="44.07834" lon="7.43738">
        <ele>2444</ele>
        <time>2025-06-13T11:25:02Z</time>
      </trkpt>
      <trkpt lat="44.07831" lon="7.43733">
        <ele>2444</ele>
        <time>2025-06-13T11:25:04Z</time>
      </trkpt>
      <trkpt lat="44.07826" lon="7.43733">
        <ele>2441</ele>
        <time>2025-06-13T11:25:06Z</time>
      </trkpt>
      <trkpt lat="44.07823" lon="7.43735">
        <ele>2439</ele>
        <time>2025-06-13T11:25:08Z</time>
      </trkpt>
      <trkpt lat="44.07825" lon="7.4374">
        <ele>2439</ele>
        <time>2025-06-13T11:25:10Z</time>
      </trkpt>
      <trkpt lat="44.07826" lon="7.43749">
        <ele>2437</ele>
        <time>2025-06-13T11:25:13Z</time>
      </trkpt>
      <trkpt lat="44.07824" lon="7.43749">
        <ele>2436</ele>
        <time>2025-06-13T11:25:14Z</time>
      </trkpt>
      <trkpt lat="44.07821" lon="7.43745">
        <ele>2436</ele>
        <time>2025-06-13T11:25:17Z</time>
      </trkpt>
      <trkpt lat="44.07821" lon="7.4375">
        <ele>2434</ele>
        <time>2025-06-13T11:25:18Z</time>
      </trkpt>
      <trkpt lat="44.07826" lon="7.43762">
        <ele>2435</ele>
        <time>2025-06-13T11:25:23Z</time>
      </trkpt>
      <trkpt lat="44.07828" lon="7.43778">
        <ele>2433</ele>
        <time>2025-06-13T11:25:29Z</time>
      </trkpt>
      <trkpt lat="44.07832" lon="7.43784">
        <ele>2433</ele>
        <time>2025-06-13T11:25:32Z</time>
      </trkpt>
      <trkpt lat="44.07836" lon="7.43802">
        <ele>2432</ele>
        <time>2025-06-13T11:25:39Z</time>
      </trkpt>
      <trkpt lat="44.07836" lon="7.43806">
        <ele>2431</ele>
        <time>2025-06-13T11:25:40Z</time>
      </trkpt>
      <trkpt lat="44.07834" lon="7.43807">
        <ele>2430</ele>
        <time>2025-06-13T11:25:41Z</time>
      </trkpt>
      <trkpt lat="44.07825" lon="7.43807">
        <ele>2427</ele>
        <time>2025-06-13T11:25:46Z</time>
      </trkpt>
      <trkpt lat="44.0782" lon="7.43804">
        <ele>2425</ele>
        <time>2025-06-13T11:25:49Z</time>
      </trkpt>
      <trkpt lat="44.0781" lon="7.43793">
        <ele>2423</ele>
        <time>2025-06-13T11:25:55Z</time>
      </trkpt>
      <trkpt lat="44.07802" lon="7.43774">
        <ele>2422</ele>
        <time>2025-06-13T11:26:03Z</time>
      </trkpt>
      <trkpt lat="44.07793" lon="7.43764">
        <ele>2420</ele>
        <time>2025-06-13T11:26:09Z</time>
      </trkpt>
      <trkpt lat="44.07792" lon="7.43758">
        <ele>2420</ele>
        <time>2025-06-13T11:26:11Z</time>
      </trkpt>
      <trkpt lat="44.07787" lon="7.43751">
        <ele>2419</ele>
        <time>2025-06-13T11:26:14Z</time>
      </trkpt>
      <trkpt lat="44.07771" lon="7.43745">
        <ele>2413</ele>
        <time>2025-06-13T11:26:23Z</time>
      </trkpt>
      <trkpt lat="44.07766" lon="7.43747">
        <ele>2410</ele>
        <time>2025-06-13T11:26:25Z</time>
      </trkpt>
      <trkpt lat="44.07759" lon="7.43743">
        <ele>2408</ele>
        <time>2025-06-13T11:26:29Z</time>
      </trkpt>
      <trkpt lat="44.07755" lon="7.43745">
        <ele>2405</ele>
        <time>2025-06-13T11:26:31Z</time>
      </trkpt>
      <trkpt lat="44.0775" lon="7.4374">
        <ele>2404</ele>
        <time>2025-06-13T11:26:34Z</time>
      </trkpt>
      <trkpt lat="44.07749" lon="7.43742">
        <ele>2403</ele>
        <time>2025-06-13T11:26:35Z</time>
      </trkpt>
      <trkpt lat="44.07746" lon="7.4375">
        <ele>2401</ele>
        <time>2025-06-13T11:26:38Z</time>
      </trkpt>
      <trkpt lat="44.07746" lon="7.43754">
        <ele>2401</ele>
        <time>2025-06-13T11:26:40Z</time>
      </trkpt>
      <trkpt lat="44.07741" lon="7.4376">
        <ele>2400</ele>
        <time>2025-06-13T11:26:43Z</time>
      </trkpt>
      <trkpt lat="44.07736" lon="7.43761">
        <ele>2399</ele>
        <time>2025-06-13T11:26:46Z</time>
      </trkpt>
      <trkpt lat="44.07731" lon="7.4377">
        <ele>2398</ele>
        <time>2025-06-13T11:26:50Z</time>
      </trkpt>
      <trkpt lat="44.07727" lon="7.43776">
        <ele>2397</ele>
        <time>2025-06-13T11:26:53Z</time>
      </trkpt>
      <trkpt lat="44.0772" lon="7.43783">
        <ele>2396</ele>
        <time>2025-06-13T11:26:57Z</time>
      </trkpt>
      <trkpt lat="44.07691" lon="7.43798">
        <ele>2391</ele>
        <time>2025-06-13T11:27:13Z</time>
      </trkpt>
      <trkpt lat="44.07677" lon="7.43801">
        <ele>2389</ele>
        <time>2025-06-13T11:27:20Z</time>
      </trkpt>
      <trkpt lat="44.07644" lon="7.43817">
        <ele>2386</ele>
        <time>2025-06-13T11:27:37Z</time>
      </trkpt>
      <trkpt lat="44.07638" lon="7.4382">
        <ele>2385</ele>
        <time>2025-06-13T11:27:40Z</time>
      </trkpt>
      <trkpt lat="44.07633" lon="7.43827">
        <ele>2384</ele>
        <time>2025-06-13T11:27:44Z</time>
      </trkpt>
      <trkpt lat="44.07627" lon="7.43832">
        <ele>2383</ele>
        <time>2025-06-13T11:27:47Z</time>
      </trkpt>
      <trkpt lat="44.07622" lon="7.43833">
        <ele>2383</ele>
        <time>2025-06-13T11:27:50Z</time>
      </trkpt>
      <trkpt lat="44.07622" lon="7.43833">
        <ele>2383</ele>
        <time>2025-06-13T11:27:50Z</time>
      </trkpt>
      <trkpt lat="44.07617" lon="7.43829">
        <ele>2383</ele>
        <time>2025-06-13T11:27:53Z</time>
      </trkpt>
      <trkpt lat="44.07614" lon="7.43829">
        <ele>2383</ele>
        <time>2025-06-13T11:27:54Z</time>
      </trkpt>
      <trkpt lat="44.07612" lon="7.43825">
        <ele>2383</ele>
        <time>2025-06-13T11:27:56Z</time>
      </trkpt>
      <trkpt lat="44.07607" lon="7.4382">
        <ele>2383</ele>
        <time>2025-06-13T11:27:59Z</time>
      </trkpt>
      <trkpt lat="44.07602" lon="7.43821">
        <ele>2383</ele>
        <time>2025-06-13T11:28:02Z</time>
      </trkpt>
      <trkpt lat="44.0759" lon="7.4383">
        <ele>2381</ele>
        <time>2025-06-13T11:28:08Z</time>
      </trkpt>
      <trkpt lat="44.07581" lon="7.43831">
        <ele>2380</ele>
        <time>2025-06-13T11:28:13Z</time>
      </trkpt>
      <trkpt lat="44.07569" lon="7.43835">
        <ele>2380</ele>
        <time>2025-06-13T11:28:19Z</time>
      </trkpt>
      <trkpt lat="44.07555" lon="7.43846">
        <ele>2380</ele>
        <time>2025-06-13T11:28:27Z</time>
      </trkpt>
      <trkpt lat="44.07549" lon="7.43856">
        <ele>2380</ele>
        <time>2025-06-13T11:28:32Z</time>
      </trkpt>
      <trkpt lat="44.07546" lon="7.43857">
        <ele>2380</ele>
        <time>2025-06-13T11:28:33Z</time>
      </trkpt>
      <trkpt lat="44.07538" lon="7.4386">
        <ele>2380</ele>
        <time>2025-06-13T11:28:38Z</time>
      </trkpt>
      <trkpt lat="44.07531" lon="7.43861">
        <ele>2379</ele>
        <time>2025-06-13T11:28:41Z</time>
      </trkpt>
      <trkpt lat="44.07528" lon="7.4386">
        <ele>2379</ele>
        <time>2025-06-13T11:28:43Z</time>
      </trkpt>
      <trkpt lat="44.0752" lon="7.43861">
        <ele>2379</ele>
        <time>2025-06-13T11:28:47Z</time>
      </trkpt>
      <trkpt lat="44.07502" lon="7.43872">
        <ele>2378</ele>
        <time>2025-06-13T11:28:57Z</time>
      </trkpt>
      <trkpt lat="44.07502" lon="7.43872">
        <ele>2378</ele>
        <time>2025-06-13T11:28:57Z</time>
      </trkpt>
      <trkpt lat="44.07463" lon="7.43891">
        <ele>2375</ele>
        <time>2025-06-13T11:29:17Z</time>
      </trkpt>
      <trkpt lat="44.07447" lon="7.43891">
        <ele>2373</ele>
        <time>2025-06-13T11:29:25Z</time>
      </trkpt>
      <trkpt lat="44.07442" lon="7.43895">
        <ele>2372</ele>
        <time>2025-06-13T11:29:28Z</time>
      </trkpt>
      <trkpt lat="44.07437" lon="7.43902">
        <ele>2371</ele>
        <time>2025-06-13T11:29:32Z</time>
      </trkpt>
      <trkpt lat="44.0743" lon="7.43904">
        <ele>2370</ele>
        <time>2025-06-13T11:29:35Z</time>
      </trkpt>
      <trkpt lat="44.07421" lon="7.43911">
        <ele>2368</ele>
        <time>2025-06-13T11:29:40Z</time>
      </trkpt>
      <trkpt lat="44.07412" lon="7.43912">
        <ele>2366</ele>
        <time>2025-06-13T11:29:45Z</time>
      </trkpt>
      <trkpt lat="44.07407" lon="7.43915">
        <ele>2365</ele>
        <time>2025-06-13T11:29:48Z</time>
      </trkpt>
      <trkpt lat="44.07401" lon="7.4392">
        <ele>2363</ele>
        <time>2025-06-13T11:29:51Z</time>
      </trkpt>
      <trkpt lat="44.07389" lon="7.43928">
        <ele>2362</ele>
        <time>2025-06-13T11:29:58Z</time>
      </trkpt>
      <trkpt lat="44.07373" lon="7.43935">
        <ele>2359</ele>
        <time>2025-06-13T11:30:06Z</time>
      </trkpt>
      <trkpt lat="44.07371" lon="7.43932">
        <ele>2358</ele>
        <time>2025-06-13T11:30:08Z</time>
      </trkpt>
      <trkpt lat="44.07366" lon="7.4393">
        <ele>2357</ele>
        <time>2025-06-13T11:30:10Z</time>
      </trkpt>
      <trkpt lat="44.07348" lon="7.43957">
        <ele>2354</ele>
        <time>2025-06-13T11:30:23Z</time>
      </trkpt>
      <trkpt lat="44.07346" lon="7.43964">
        <ele>2354</ele>
        <time>2025-06-13T11:30:26Z</time>
      </trkpt>
      <trkpt lat="44.07338" lon="7.43973">
        <ele>2351</ele>
        <time>2025-06-13T11:30:31Z</time>
      </trkpt>
      <trkpt lat="44.07325" lon="7.43977">
        <ele>2348</ele>
        <time>2025-06-13T11:30:38Z</time>
      </trkpt>
      <trkpt lat="44.07319" lon="7.4398">
        <ele>2346</ele>
        <time>2025-06-13T11:30:41Z</time>
      </trkpt>
      <trkpt lat="44.07305" lon="7.43983">
        <ele>2343</ele>
        <time>2025-06-13T11:30:48Z</time>
      </trkpt>
      <trkpt lat="44.07296" lon="7.43965">
        <ele>2341</ele>
        <time>2025-06-13T11:30:56Z</time>
      </trkpt>
      <trkpt lat="44.07292" lon="7.43964">
        <ele>2340</ele>
        <time>2025-06-13T11:30:58Z</time>
      </trkpt>
      <trkpt lat="44.07267" lon="7.43983">
        <ele>2333</ele>
        <time>2025-06-13T11:31:12Z</time>
      </trkpt>
      <trkpt lat="44.07261" lon="7.43984">
        <ele>2332</ele>
        <time>2025-06-13T11:31:15Z</time>
      </trkpt>
      <trkpt lat="44.0725" lon="7.43982">
        <ele>2329</ele>
        <time>2025-06-13T11:31:21Z</time>
      </trkpt>
      <trkpt lat="44.07241" lon="7.43973">
        <ele>2328</ele>
        <time>2025-06-13T11:31:27Z</time>
      </trkpt>
      <trkpt lat="44.07236" lon="7.4397">
        <ele>2328</ele>
        <time>2025-06-13T11:31:29Z</time>
      </trkpt>
      <trkpt lat="44.07223" lon="7.43973">
        <ele>2326</ele>
        <time>2025-06-13T11:31:36Z</time>
      </trkpt>
      <trkpt lat="44.07217" lon="7.43976">
        <ele>2325</ele>
        <time>2025-06-13T11:31:39Z</time>
      </trkpt>
      <trkpt lat="44.07213" lon="7.43974">
        <ele>2325</ele>
        <time>2025-06-13T11:31:41Z</time>
      </trkpt>
      <trkpt lat="44.0721" lon="7.43975">
        <ele>2325</ele>
        <time>2025-06-13T11:31:43Z</time>
      </trkpt>
      <trkpt lat="44.07191" lon="7.43975">
        <ele>2322</ele>
        <time>2025-06-13T11:31:52Z</time>
      </trkpt>
      <trkpt lat="44.07185" lon="7.43972">
        <ele>2322</ele>
        <time>2025-06-13T11:31:55Z</time>
      </trkpt>
      <trkpt lat="44.0718" lon="7.43974">
        <ele>2321</ele>
        <time>2025-06-13T11:31:58Z</time>
      </trkpt>
      <trkpt lat="44.07178" lon="7.43972">
        <ele>2321</ele>
        <time>2025-06-13T11:31:59Z</time>
      </trkpt>
      <trkpt lat="44.07164" lon="7.43978">
        <ele>2319</ele>
        <time>2025-06-13T11:32:07Z</time>
      </trkpt>
      <trkpt lat="44.0715" lon="7.43982">
        <ele>2319</ele>
        <time>2025-06-13T11:32:14Z</time>
      </trkpt>
      <trkpt lat="44.07145" lon="7.43987">
        <ele>2318</ele>
        <time>2025-06-13T11:32:17Z</time>
      </trkpt>
      <trkpt lat="44.07129" lon="7.43999">
        <ele>2315</ele>
        <time>2025-06-13T11:32:26Z</time>
      </trkpt>
      <trkpt lat="44.07119" lon="7.44009">
        <ele>2315</ele>
        <time>2025-06-13T11:32:32Z</time>
      </trkpt>
      <trkpt lat="44.0711" lon="7.44029">
        <ele>2315</ele>
        <time>2025-06-13T11:32:41Z</time>
      </trkpt>
      <trkpt lat="44.07111" lon="7.44036">
        <ele>2315</ele>
        <time>2025-06-13T11:32:43Z</time>
      </trkpt>
      <trkpt lat="44.0711" lon="7.44039">
        <ele>2315</ele>
        <time>2025-06-13T11:32:44Z</time>
      </trkpt>
      <trkpt lat="44.07107" lon="7.44041">
        <ele>2315</ele>
        <time>2025-06-13T11:32:46Z</time>
      </trkpt>
      <trkpt lat="44.07098" lon="7.44041">
        <ele>2314</ele>
        <time>2025-06-13T11:32:51Z</time>
      </trkpt>
      <trkpt lat="44.07096" lon="7.44043">
        <ele>2314</ele>
        <time>2025-06-13T11:32:52Z</time>
      </trkpt>
      <trkpt lat="44.07096" lon="7.44043">
        <ele>2314</ele>
        <time>2025-06-13T11:32:52Z</time>
      </trkpt>
      <trkpt lat="44.07094" lon="7.44045">
        <ele>2314</ele>
        <time>2025-06-13T11:32:53Z</time>
      </trkpt>
      <trkpt lat="44.07093" lon="7.44052">
        <ele>2314</ele>
        <time>2025-06-13T11:32:56Z</time>
      </trkpt>
      <trkpt lat="44.07084" lon="7.44058">
        <ele>2313</ele>
        <time>2025-06-13T11:33:01Z</time>
      </trkpt>
      <trkpt lat="44.07057" lon="7.44067">
        <ele>2311</ele>
        <time>2025-06-13T11:33:14Z</time>
      </trkpt>
      <trkpt lat="44.07054" lon="7.44074">
        <ele>2311</ele>
        <time>2025-06-13T11:33:17Z</time>
      </trkpt>
      <trkpt lat="44.07046" lon="7.44077">
        <ele>2310</ele>
        <time>2025-06-13T11:33:22Z</time>
      </trkpt>
      <trkpt lat="44.07041" lon="7.44082">
        <ele>2309</ele>
        <time>2025-06-13T11:33:25Z</time>
      </trkpt>
      <trkpt lat="44.07037" lon="7.44083">
        <ele>2308</ele>
        <time>2025-06-13T11:33:27Z</time>
      </trkpt>
      <trkpt lat="44.07025" lon="7.4409">
        <ele>2308</ele>
        <time>2025-06-13T11:33:33Z</time>
      </trkpt>
      <trkpt lat="44.07023" lon="7.44093">
        <ele>2308</ele>
        <time>2025-06-13T11:33:35Z</time>
      </trkpt>
      <trkpt lat="44.07015" lon="7.44103">
        <ele>2309</ele>
        <time>2025-06-13T11:33:40Z</time>
      </trkpt>
      <trkpt lat="44.07007" lon="7.44106">
        <ele>2308</ele>
        <time>2025-06-13T11:33:44Z</time>
      </trkpt>
      <trkpt lat="44.06994" lon="7.44109">
        <ele>2308</ele>
        <time>2025-06-13T11:33:51Z</time>
      </trkpt>
      <trkpt lat="44.0699" lon="7.44107">
        <ele>2308</ele>
        <time>2025-06-13T11:33:53Z</time>
      </trkpt>
      <trkpt lat="44.06973" lon="7.44118">
        <ele>2308</ele>
        <time>2025-06-13T11:34:02Z</time>
      </trkpt>
      <trkpt lat="44.06962" lon="7.44123">
        <ele>2307</ele>
        <time>2025-06-13T11:34:08Z</time>
      </trkpt>
      <trkpt lat="44.06954" lon="7.44128">
        <ele>2307</ele>
        <time>2025-06-13T11:34:12Z</time>
      </trkpt>
      <trkpt lat="44.06947" lon="7.44139">
        <ele>2306</ele>
        <time>2025-06-13T11:34:18Z</time>
      </trkpt>
      <trkpt lat="44.06939" lon="7.44144">
        <ele>2305</ele>
        <time>2025-06-13T11:34:22Z</time>
      </trkpt>
      <trkpt lat="44.06929" lon="7.44159">
        <ele>2303</ele>
        <time>2025-06-13T11:34:29Z</time>
      </trkpt>
      <trkpt lat="44.06915" lon="7.44175">
        <ele>2304</ele>
        <time>2025-06-13T11:34:39Z</time>
      </trkpt>
      <trkpt lat="44.06909" lon="7.44181">
        <ele>2306</ele>
        <time>2025-06-13T11:34:42Z</time>
      </trkpt>
      <trkpt lat="44.06882" lon="7.44185">
        <ele>2307</ele>
        <time>2025-06-13T11:34:56Z</time>
      </trkpt>
      <trkpt lat="44.06859" lon="7.44185">
        <ele>2306</ele>
        <time>2025-06-13T11:35:07Z</time>
      </trkpt>
      <trkpt lat="44.06851" lon="7.44184">
        <ele>2306</ele>
        <time>2025-06-13T11:35:11Z</time>
      </trkpt>
      <trkpt lat="44.06825" lon="7.44178">
        <ele>2303</ele>
        <time>2025-06-13T11:35:25Z</time>
      </trkpt>
      <trkpt lat="44.06802" lon="7.44182">
        <ele>2302</ele>
        <time>2025-06-13T11:35:36Z</time>
      </trkpt>
      <trkpt lat="44.06756" lon="7.44205">
        <ele>2300</ele>
        <time>2025-06-13T11:36:01Z</time>
      </trkpt>
      <trkpt lat="44.06749" lon="7.44208">
        <ele>2299</ele>
        <time>2025-06-13T11:36:04Z</time>
      </trkpt>
      <trkpt lat="44.06744" lon="7.44207">
        <ele>2298</ele>
        <time>2025-06-13T11:36:07Z</time>
      </trkpt>
      <trkpt lat="44.06737" lon="7.44202">
        <ele>2296</ele>
        <time>2025-06-13T11:36:11Z</time>
      </trkpt>
      <trkpt lat="44.06729" lon="7.44201">
        <ele>2294</ele>
        <time>2025-06-13T11:36:15Z</time>
      </trkpt>
      <trkpt lat="44.06711" lon="7.4422">
        <ele>2290</ele>
        <time>2025-06-13T11:36:26Z</time>
      </trkpt>
      <trkpt lat="44.06705" lon="7.44223">
        <ele>2288</ele>
        <time>2025-06-13T11:36:29Z</time>
      </trkpt>
      <trkpt lat="44.067" lon="7.44219">
        <ele>2286</ele>
        <time>2025-06-13T11:36:32Z</time>
      </trkpt>
      <trkpt lat="44.06674" lon="7.44225">
        <ele>2279</ele>
        <time>2025-06-13T11:36:45Z</time>
      </trkpt>
      <trkpt lat="44.06666" lon="7.44243">
        <ele>2275</ele>
        <time>2025-06-13T11:36:53Z</time>
      </trkpt>
      <trkpt lat="44.06644" lon="7.44245">
        <ele>2267</ele>
        <time>2025-06-13T11:37:04Z</time>
      </trkpt>
      <trkpt lat="44.06644" lon="7.44239">
        <ele>2267</ele>
        <time>2025-06-13T11:37:06Z</time>
      </trkpt>
      <trkpt lat="44.06641" lon="7.44242">
        <ele>2266</ele>
        <time>2025-06-13T11:37:08Z</time>
      </trkpt>
      <trkpt lat="44.06634" lon="7.4424">
        <ele>2263</ele>
        <time>2025-06-13T11:37:12Z</time>
      </trkpt>
      <trkpt lat="44.06628" lon="7.44244">
        <ele>2260</ele>
        <time>2025-06-13T11:37:15Z</time>
      </trkpt>
      <trkpt lat="44.06625" lon="7.44244">
        <ele>2259</ele>
        <time>2025-06-13T11:37:16Z</time>
      </trkpt>
      <trkpt lat="44.06623" lon="7.44249">
        <ele>2258</ele>
        <time>2025-06-13T11:37:18Z</time>
      </trkpt>
      <trkpt lat="44.06619" lon="7.4425">
        <ele>2256</ele>
        <time>2025-06-13T11:37:20Z</time>
      </trkpt>
      <trkpt lat="44.06616" lon="7.44246">
        <ele>2256</ele>
        <time>2025-06-13T11:37:23Z</time>
      </trkpt>
      <trkpt lat="44.06609" lon="7.44253">
        <ele>2253</ele>
        <time>2025-06-13T11:37:27Z</time>
      </trkpt>
      <trkpt lat="44.06603" lon="7.44262">
        <ele>2254</ele>
        <time>2025-06-13T11:37:31Z</time>
      </trkpt>
      <trkpt lat="44.06596" lon="7.44269">
        <ele>2254</ele>
        <time>2025-06-13T11:37:36Z</time>
      </trkpt>
      <trkpt lat="44.06596" lon="7.44255">
        <ele>2249</ele>
        <time>2025-06-13T11:37:41Z</time>
      </trkpt>
      <trkpt lat="44.06592" lon="7.44246">
        <ele>2246</ele>
        <time>2025-06-13T11:37:44Z</time>
      </trkpt>
      <trkpt lat="44.06592" lon="7.44246">
        <ele>2246</ele>
        <time>2025-06-13T11:37:44Z</time>
      </trkpt>
      <trkpt lat="44.06589" lon="7.4423">
        <ele>2248</ele>
        <time>2025-06-13T11:37:50Z</time>
      </trkpt>
      <trkpt lat="44.06586" lon="7.44223">
        <ele>2248</ele>
        <time>2025-06-13T11:37:53Z</time>
      </trkpt>
      <trkpt lat="44.06576" lon="7.44218">
        <ele>2247</ele>
        <time>2025-06-13T11:37:59Z</time>
      </trkpt>
      <trkpt lat="44.06574" lon="7.44206">
        <ele>2248</ele>
        <time>2025-06-13T11:38:03Z</time>
      </trkpt>
      <trkpt lat="44.06559" lon="7.44194">
        <ele>2248</ele>
        <time>2025-06-13T11:38:12Z</time>
      </trkpt>
      <trkpt lat="44.06546" lon="7.44192">
        <ele>2245</ele>
        <time>2025-06-13T11:38:18Z</time>
      </trkpt>
      <trkpt lat="44.06507" lon="7.44223">
        <ele>2231</ele>
        <time>2025-06-13T11:38:41Z</time>
      </trkpt>
      <trkpt lat="44.06499" lon="7.44228">
        <ele>2229</ele>
        <time>2025-06-13T11:38:45Z</time>
      </trkpt>
      <trkpt lat="44.06489" lon="7.4423">
        <ele>2229</ele>
        <time>2025-06-13T11:38:50Z</time>
      </trkpt>
      <trkpt lat="44.06484" lon="7.44235">
        <ele>2229</ele>
        <time>2025-06-13T11:38:53Z</time>
      </trkpt>
      <trkpt lat="44.06483" lon="7.4424">
        <ele>2228</ele>
        <time>2025-06-13T11:38:55Z</time>
      </trkpt>
      <trkpt lat="44.06483" lon="7.44253">
        <ele>2226</ele>
        <time>2025-06-13T11:39:00Z</time>
      </trkpt>
      <trkpt lat="44.06481" lon="7.44261">
        <ele>2226</ele>
        <time>2025-06-13T11:39:03Z</time>
      </trkpt>
      <trkpt lat="44.06477" lon="7.44271">
        <ele>2227</ele>
        <time>2025-06-13T11:39:07Z</time>
      </trkpt>
      <trkpt lat="44.06473" lon="7.44285">
        <ele>2228</ele>
        <time>2025-06-13T11:39:12Z</time>
      </trkpt>
      <trkpt lat="44.0647" lon="7.44301">
        <ele>2228</ele>
        <time>2025-06-13T11:39:18Z</time>
      </trkpt>
      <trkpt lat="44.06466" lon="7.44305">
        <ele>2228</ele>
        <time>2025-06-13T11:39:21Z</time>
      </trkpt>
      <trkpt lat="44.06452" lon="7.44303">
        <ele>2227</ele>
        <time>2025-06-13T11:39:28Z</time>
      </trkpt>
      <trkpt lat="44.06443" lon="7.443">
        <ele>2227</ele>
        <time>2025-06-13T11:39:32Z</time>
      </trkpt>
      <trkpt lat="44.06428" lon="7.44314">
        <ele>2225</ele>
        <time>2025-06-13T11:39:41Z</time>
      </trkpt>
      <trkpt lat="44.06423" lon="7.44309">
        <ele>2225</ele>
        <time>2025-06-13T11:39:45Z</time>
      </trkpt>
      <trkpt lat="44.0641" lon="7.44311">
        <ele>2224</ele>
        <time>2025-06-13T11:39:51Z</time>
      </trkpt>
      <trkpt lat="44.06391" lon="7.44319">
        <ele>2222</ele>
        <time>2025-06-13T11:40:01Z</time>
      </trkpt>
      <trkpt lat="44.06379" lon="7.44321">
        <ele>2220</ele>
        <time>2025-06-13T11:40:07Z</time>
      </trkpt>
      <trkpt lat="44.06371" lon="7.44325">
        <ele>2219</ele>
        <time>2025-06-13T11:40:11Z</time>
      </trkpt>
      <trkpt lat="44.06365" lon="7.44323">
        <ele>2219</ele>
        <time>2025-06-13T11:40:14Z</time>
      </trkpt>
      <trkpt lat="44.0635" lon="7.4433">
        <ele>2216</ele>
        <time>2025-06-13T11:40:22Z</time>
      </trkpt>
      <trkpt lat="44.0633" lon="7.44333">
        <ele>2213</ele>
        <time>2025-06-13T11:40:32Z</time>
      </trkpt>
      <trkpt lat="44.06326" lon="7.4433">
        <ele>2213</ele>
        <time>2025-06-13T11:40:35Z</time>
      </trkpt>
      <trkpt lat="44.06325" lon="7.44326">
        <ele>2214</ele>
        <time>2025-06-13T11:40:36Z</time>
      </trkpt>
      <trkpt lat="44.06327" lon="7.44321">
        <ele>2216</ele>
        <time>2025-06-13T11:40:38Z</time>
      </trkpt>
      <trkpt lat="44.06326" lon="7.44316">
        <ele>2217</ele>
        <time>2025-06-13T11:40:40Z</time>
      </trkpt>
      <trkpt lat="44.06319" lon="7.44306">
        <ele>2219</ele>
        <time>2025-06-13T11:40:45Z</time>
      </trkpt>
      <trkpt lat="44.06297" lon="7.44302">
        <ele>2219</ele>
        <time>2025-06-13T11:40:56Z</time>
      </trkpt>
      <trkpt lat="44.06288" lon="7.44301">
        <ele>2218</ele>
        <time>2025-06-13T11:41:01Z</time>
      </trkpt>
      <trkpt lat="44.06281" lon="7.44295">
        <ele>2219</ele>
        <time>2025-06-13T11:41:05Z</time>
      </trkpt>
      <trkpt lat="44.06266" lon="7.44291">
        <ele>2219</ele>
        <time>2025-06-13T11:41:13Z</time>
      </trkpt>
      <trkpt lat="44.06259" lon="7.44283">
        <ele>2221</ele>
        <time>2025-06-13T11:41:17Z</time>
      </trkpt>
      <trkpt lat="44.06257" lon="7.44274">
        <ele>2223</ele>
        <time>2025-06-13T11:41:20Z</time>
      </trkpt>
      <trkpt lat="44.06247" lon="7.4427">
        <ele>2223</ele>
        <time>2025-06-13T11:41:26Z</time>
      </trkpt>
      <trkpt lat="44.06246" lon="7.44262">
        <ele>2225</ele>
        <time>2025-06-13T11:41:29Z</time>
      </trkpt>
      <trkpt lat="44.06243" lon="7.44259">
        <ele>2226</ele>
        <time>2025-06-13T11:41:30Z</time>
      </trkpt>
      <trkpt lat="44.06236" lon="7.44259">
        <ele>2226</ele>
        <time>2025-06-13T11:41:34Z</time>
      </trkpt>
      <trkpt lat="44.06232" lon="7.44262">
        <ele>2225</ele>
        <time>2025-06-13T11:41:36Z</time>
      </trkpt>
      <trkpt lat="44.0623" lon="7.44268">
        <ele>2223</ele>
        <time>2025-06-13T11:41:39Z</time>
      </trkpt>
      <trkpt lat="44.06224" lon="7.44273">
        <ele>2222</ele>
        <time>2025-06-13T11:41:42Z</time>
      </trkpt>
      <trkpt lat="44.06223" lon="7.44278">
        <ele>2220</ele>
        <time>2025-06-13T11:41:44Z</time>
      </trkpt>
      <trkpt lat="44.0622" lon="7.44286">
        <ele>2218</ele>
        <time>2025-06-13T11:41:47Z</time>
      </trkpt>
      <trkpt lat="44.06214" lon="7.44288">
        <ele>2217</ele>
        <time>2025-06-13T11:41:50Z</time>
      </trkpt>
      <trkpt lat="44.06211" lon="7.44295">
        <ele>2215</ele>
        <time>2025-06-13T11:41:53Z</time>
      </trkpt>
      <trkpt lat="44.06208" lon="7.44297">
        <ele>2215</ele>
        <time>2025-06-13T11:41:55Z</time>
      </trkpt>
      <trkpt lat="44.06205" lon="7.44302">
        <ele>2213</ele>
        <time>2025-06-13T11:41:57Z</time>
      </trkpt>
      <trkpt lat="44.06203" lon="7.44302">
        <ele>2213</ele>
        <time>2025-06-13T11:41:58Z</time>
      </trkpt>
      <trkpt lat="44.06198" lon="7.44317">
        <ele>2209</ele>
        <time>2025-06-13T11:42:04Z</time>
      </trkpt>
      <trkpt lat="44.06189" lon="7.44324">
        <ele>2206</ele>
        <time>2025-06-13T11:42:09Z</time>
      </trkpt>
      <trkpt lat="44.06182" lon="7.44324">
        <ele>2206</ele>
        <time>2025-06-13T11:42:13Z</time>
      </trkpt>
      <trkpt lat="44.06177" lon="7.44321">
        <ele>2206</ele>
        <time>2025-06-13T11:42:16Z</time>
      </trkpt>
      <trkpt lat="44.06167" lon="7.4432">
        <ele>2206</ele>
        <time>2025-06-13T11:42:21Z</time>
      </trkpt>
      <trkpt lat="44.06156" lon="7.44299">
        <ele>2210</ele>
        <time>2025-06-13T11:42:30Z</time>
      </trkpt>
      <trkpt lat="44.06155" lon="7.44302">
        <ele>2209</ele>
        <time>2025-06-13T11:42:31Z</time>
      </trkpt>
      <trkpt lat="44.06154" lon="7.4431">
        <ele>2206</ele>
        <time>2025-06-13T11:42:34Z</time>
      </trkpt>
      <trkpt lat="44.06153" lon="7.44312">
        <ele>2205</ele>
        <time>2025-06-13T11:42:35Z</time>
      </trkpt>
      <trkpt lat="44.06152" lon="7.4432">
        <ele>2203</ele>
        <time>2025-06-13T11:42:38Z</time>
      </trkpt>
      <trkpt lat="44.06154" lon="7.44328">
        <ele>2201</ele>
        <time>2025-06-13T11:42:41Z</time>
      </trkpt>
      <trkpt lat="44.06151" lon="7.44329">
        <ele>2200</ele>
        <time>2025-06-13T11:42:42Z</time>
      </trkpt>
      <trkpt lat="44.06145" lon="7.44321">
        <ele>2201</ele>
        <time>2025-06-13T11:42:47Z</time>
      </trkpt>
      <trkpt lat="44.06137" lon="7.44317">
        <ele>2200</ele>
        <time>2025-06-13T11:42:51Z</time>
      </trkpt>
      <trkpt lat="44.06129" lon="7.44316">
        <ele>2199</ele>
        <time>2025-06-13T11:42:55Z</time>
      </trkpt>
      <trkpt lat="44.06104" lon="7.44324">
        <ele>2191</ele>
        <time>2025-06-13T11:43:08Z</time>
      </trkpt>
      <trkpt lat="44.06079" lon="7.44326">
        <ele>2185</ele>
        <time>2025-06-13T11:43:20Z</time>
      </trkpt>
      <trkpt lat="44.06072" lon="7.44328">
        <ele>2183</ele>
        <time>2025-06-13T11:43:24Z</time>
      </trkpt>
      <trkpt lat="44.06066" lon="7.44325">
        <ele>2183</ele>
        <time>2025-06-13T11:43:27Z</time>
      </trkpt>
      <trkpt lat="44.06063" lon="7.44325">
        <ele>2183</ele>
        <time>2025-06-13T11:43:28Z</time>
      </trkpt>
      <trkpt lat="44.06053" lon="7.44322">
        <ele>2183</ele>
        <time>2025-06-13T11:43:34Z</time>
      </trkpt>
      <trkpt lat="44.06044" lon="7.44325">
        <ele>2180</ele>
        <time>2025-06-13T11:43:38Z</time>
      </trkpt>
      <trkpt lat="44.06039" lon="7.44329">
        <ele>2178</ele>
        <time>2025-06-13T11:43:41Z</time>
      </trkpt>
      <trkpt lat="44.06032" lon="7.44328">
        <ele>2177</ele>
        <time>2025-06-13T11:43:45Z</time>
      </trkpt>
      <trkpt lat="44.06023" lon="7.44316">
        <ele>2180</ele>
        <time>2025-06-13T11:43:51Z</time>
      </trkpt>
      <trkpt lat="44.06019" lon="7.44304">
        <ele>2184</ele>
        <time>2025-06-13T11:43:56Z</time>
      </trkpt>
      <trkpt lat="44.06015" lon="7.44291">
        <ele>2188</ele>
        <time>2025-06-13T11:44:01Z</time>
      </trkpt>
      <trkpt lat="44.06012" lon="7.44283">
        <ele>2190</ele>
        <time>2025-06-13T11:44:04Z</time>
      </trkpt>
      <trkpt lat="44.06008" lon="7.44271">
        <ele>2193</ele>
        <time>2025-06-13T11:44:09Z</time>
      </trkpt>
      <trkpt lat="44.06004" lon="7.44259">
        <ele>2197</ele>
        <time>2025-06-13T11:44:13Z</time>
      </trkpt>
      <trkpt lat="44.05989" lon="7.44245">
        <ele>2198</ele>
        <time>2025-06-13T11:44:23Z</time>
      </trkpt>
      <trkpt lat="44.05977" lon="7.44243">
        <ele>2196</ele>
        <time>2025-06-13T11:44:29Z</time>
      </trkpt>
      <trkpt lat="44.05968" lon="7.44232">
        <ele>2197</ele>
        <time>2025-06-13T11:44:35Z</time>
      </trkpt>
      <trkpt lat="44.05954" lon="7.44221">
        <ele>2196</ele>
        <time>2025-06-13T11:44:43Z</time>
      </trkpt>
      <trkpt lat="44.05943" lon="7.4421">
        <ele>2196</ele>
        <time>2025-06-13T11:44:49Z</time>
      </trkpt>
      <trkpt lat="44.05899" lon="7.44179">
        <ele>2194</ele>
        <time>2025-06-13T11:45:14Z</time>
      </trkpt>
      <trkpt lat="44.05882" lon="7.44177">
        <ele>2192</ele>
        <time>2025-06-13T11:45:23Z</time>
      </trkpt>
      <trkpt lat="44.05871" lon="7.44171">
        <ele>2191</ele>
        <time>2025-06-13T11:45:29Z</time>
      </trkpt>
      <trkpt lat="44.05865" lon="7.44152">
        <ele>2193</ele>
        <time>2025-06-13T11:45:36Z</time>
      </trkpt>
      <trkpt lat="44.05862" lon="7.44153">
        <ele>2193</ele>
        <time>2025-06-13T11:45:38Z</time>
      </trkpt>
      <trkpt lat="44.05855" lon="7.44141">
        <ele>2194</ele>
        <time>2025-06-13T11:45:43Z</time>
      </trkpt>
      <trkpt lat="44.05851" lon="7.44143">
        <ele>2193</ele>
        <time>2025-06-13T11:45:45Z</time>
      </trkpt>
      <trkpt lat="44.05847" lon="7.44158">
        <ele>2190</ele>
        <time>2025-06-13T11:45:51Z</time>
      </trkpt>
      <trkpt lat="44.05836" lon="7.44176">
        <ele>2185</ele>
        <time>2025-06-13T11:45:59Z</time>
      </trkpt>
      <trkpt lat="44.05835" lon="7.4419">
        <ele>2183</ele>
        <time>2025-06-13T11:46:05Z</time>
      </trkpt>
      <trkpt lat="44.05829" lon="7.44208">
        <ele>2182</ele>
        <time>2025-06-13T11:46:12Z</time>
      </trkpt>
      <trkpt lat="44.05829" lon="7.44221">
        <ele>2180</ele>
        <time>2025-06-13T11:46:16Z</time>
      </trkpt>
      <trkpt lat="44.05826" lon="7.44236">
        <ele>2178</ele>
        <time>2025-06-13T11:46:22Z</time>
      </trkpt>
      <trkpt lat="44.05823" lon="7.44243">
        <ele>2178</ele>
        <time>2025-06-13T11:46:25Z</time>
      </trkpt>
      <trkpt lat="44.05822" lon="7.44263">
        <ele>2175</ele>
        <time>2025-06-13T11:46:32Z</time>
      </trkpt>
      <trkpt lat="44.05819" lon="7.44272">
        <ele>2174</ele>
        <time>2025-06-13T11:46:36Z</time>
      </trkpt>
      <trkpt lat="44.0582" lon="7.44278">
        <ele>2173</ele>
        <time>2025-06-13T11:46:38Z</time>
      </trkpt>
      <trkpt lat="44.05822" lon="7.44287">
        <ele>2171</ele>
        <time>2025-06-13T11:46:41Z</time>
      </trkpt>
      <trkpt lat="44.05823" lon="7.44292">
        <ele>2170</ele>
        <time>2025-06-13T11:46:43Z</time>
      </trkpt>
      <trkpt lat="44.05828" lon="7.44305">
        <ele>2167</ele>
        <time>2025-06-13T11:46:48Z</time>
      </trkpt>
      <trkpt lat="44.05818" lon="7.44314">
        <ele>2167</ele>
        <time>2025-06-13T11:46:54Z</time>
      </trkpt>
      <trkpt lat="44.05806" lon="7.44331">
        <ele>2166</ele>
        <time>2025-06-13T11:47:03Z</time>
      </trkpt>
      <trkpt lat="44.05806" lon="7.44331">
        <ele>2166</ele>
        <time>2025-06-13T11:47:03Z</time>
      </trkpt>
      <trkpt lat="44.05806" lon="7.44337">
        <ele>2165</ele>
        <time>2025-06-13T11:47:05Z</time>
      </trkpt>
      <trkpt lat="44.05802" lon="7.44357">
        <ele>2164</ele>
        <time>2025-06-13T11:47:13Z</time>
      </trkpt>
      <trkpt lat="44.058" lon="7.44363">
        <ele>2164</ele>
        <time>2025-06-13T11:47:15Z</time>
      </trkpt>
      <trkpt lat="44.05798" lon="7.44371">
        <ele>2164</ele>
        <time>2025-06-13T11:47:18Z</time>
      </trkpt>
      <trkpt lat="44.05792" lon="7.4439">
        <ele>2164</ele>
        <time>2025-06-13T11:47:25Z</time>
      </trkpt>
      <trkpt lat="44.05782" lon="7.44405">
        <ele>2165</ele>
        <time>2025-06-13T11:47:33Z</time>
      </trkpt>
      <trkpt lat="44.05778" lon="7.44414">
        <ele>2165</ele>
        <time>2025-06-13T11:47:37Z</time>
      </trkpt>
      <trkpt lat="44.05778" lon="7.44414">
        <ele>2165</ele>
        <time>2025-06-13T11:47:37Z</time>
      </trkpt>
      <trkpt lat="44.05778" lon="7.44428">
        <ele>2164</ele>
        <time>2025-06-13T11:47:42Z</time>
      </trkpt>
      <trkpt lat="44.05776" lon="7.4444">
        <ele>2163</ele>
        <time>2025-06-13T11:47:46Z</time>
      </trkpt>
      <trkpt lat="44.05772" lon="7.44451">
        <ele>2163</ele>
        <time>2025-06-13T11:47:50Z</time>
      </trkpt>
      <trkpt lat="44.05765" lon="7.44472">
        <ele>2163</ele>
        <time>2025-06-13T11:47:59Z</time>
      </trkpt>
      <trkpt lat="44.05763" lon="7.44492">
        <ele>2162</ele>
        <time>2025-06-13T11:48:06Z</time>
      </trkpt>
      <trkpt lat="44.0576" lon="7.44504">
        <ele>2162</ele>
        <time>2025-06-13T11:48:11Z</time>
      </trkpt>
      <trkpt lat="44.05757" lon="7.44511">
        <ele>2162</ele>
        <time>2025-06-13T11:48:14Z</time>
      </trkpt>
      <trkpt lat="44.05754" lon="7.44526">
        <ele>2162</ele>
        <time>2025-06-13T11:48:19Z</time>
      </trkpt>
      <trkpt lat="44.05748" lon="7.44545">
        <ele>2163</ele>
        <time>2025-06-13T11:48:27Z</time>
      </trkpt>
      <trkpt lat="44.05747" lon="7.4455">
        <ele>2163</ele>
        <time>2025-06-13T11:48:29Z</time>
      </trkpt>
      <trkpt lat="44.0574" lon="7.4457">
        <ele>2164</ele>
        <time>2025-06-13T11:48:37Z</time>
      </trkpt>
      <trkpt lat="44.05734" lon="7.4458">
        <ele>2165</ele>
        <time>2025-06-13T11:48:41Z</time>
      </trkpt>
      <trkpt lat="44.05719" lon="7.4463">
        <ele>2165</ele>
        <time>2025-06-13T11:49:01Z</time>
      </trkpt>
      <trkpt lat="44.05713" lon="7.44654">
        <ele>2164</ele>
        <time>2025-06-13T11:49:10Z</time>
      </trkpt>
      <trkpt lat="44.05706" lon="7.44708">
        <ele>2161</ele>
        <time>2025-06-13T11:49:30Z</time>
      </trkpt>
      <trkpt lat="44.05707" lon="7.44732">
        <ele>2159</ele>
        <time>2025-06-13T11:49:38Z</time>
      </trkpt>
      <trkpt lat="44.05705" lon="7.44826">
        <ele>2146</ele>
        <time>2025-06-13T11:50:12Z</time>
      </trkpt>
      <trkpt lat="44.05706" lon="7.44835">
        <ele>2144</ele>
        <time>2025-06-13T11:50:15Z</time>
      </trkpt>
      <trkpt lat="44.05706" lon="7.44846">
        <ele>2143</ele>
        <time>2025-06-13T11:50:19Z</time>
      </trkpt>
      <trkpt lat="44.05701" lon="7.44883">
        <ele>2141</ele>
        <time>2025-06-13T11:50:33Z</time>
      </trkpt>
      <trkpt lat="44.05701" lon="7.44893">
        <ele>2140</ele>
        <time>2025-06-13T11:50:36Z</time>
      </trkpt>
      <trkpt lat="44.05702" lon="7.44897">
        <ele>2139</ele>
        <time>2025-06-13T11:50:38Z</time>
      </trkpt>
      <trkpt lat="44.05701" lon="7.44906">
        <ele>2138</ele>
        <time>2025-06-13T11:50:41Z</time>
      </trkpt>
      <trkpt lat="44.05702" lon="7.44946">
        <ele>2134</ele>
        <time>2025-06-13T11:50:56Z</time>
      </trkpt>
      <trkpt lat="44.05702" lon="7.44954">
        <ele>2133</ele>
        <time>2025-06-13T11:50:58Z</time>
      </trkpt>
      <trkpt lat="44.05698" lon="7.44966">
        <ele>2134</ele>
        <time>2025-06-13T11:51:03Z</time>
      </trkpt>
      <trkpt lat="44.05698" lon="7.44969">
        <ele>2134</ele>
        <time>2025-06-13T11:51:04Z</time>
      </trkpt>
      <trkpt lat="44.057" lon="7.44969">
        <ele>2133</ele>
        <time>2025-06-13T11:51:05Z</time>
      </trkpt>
      <trkpt lat="44.05702" lon="7.44964">
        <ele>2132</ele>
        <time>2025-06-13T11:51:07Z</time>
      </trkpt>
      <trkpt lat="44.05704" lon="7.44964">
        <ele>2132</ele>
        <time>2025-06-13T11:51:08Z</time>
      </trkpt>
      <trkpt lat="44.05704" lon="7.44966">
        <ele>2131</ele>
        <time>2025-06-13T11:51:09Z</time>
      </trkpt>
      <trkpt lat="44.05703" lon="7.4497">
        <ele>2131</ele>
        <time>2025-06-13T11:51:11Z</time>
      </trkpt>
      <trkpt lat="44.05702" lon="7.45001">
        <ele>2129</ele>
        <time>2025-06-13T11:51:22Z</time>
      </trkpt>
      <trkpt lat="44.05699" lon="7.4502">
        <ele>2129</ele>
        <time>2025-06-13T11:51:29Z</time>
      </trkpt>
      <trkpt lat="44.05696" lon="7.45031">
        <ele>2130</ele>
        <time>2025-06-13T11:51:33Z</time>
      </trkpt>
      <trkpt lat="44.05691" lon="7.45041">
        <ele>2131</ele>
        <time>2025-06-13T11:51:37Z</time>
      </trkpt>
      <trkpt lat="44.05689" lon="7.4505">
        <ele>2131</ele>
        <time>2025-06-13T11:51:41Z</time>
      </trkpt>
      <trkpt lat="44.05688" lon="7.45066">
        <ele>2131</ele>
        <time>2025-06-13T11:51:47Z</time>
      </trkpt>
      <trkpt lat="44.05684" lon="7.45084">
        <ele>2131</ele>
        <time>2025-06-13T11:51:53Z</time>
      </trkpt>
      <trkpt lat="44.05683" lon="7.45095">
        <ele>2131</ele>
        <time>2025-06-13T11:51:57Z</time>
      </trkpt>
      <trkpt lat="44.05685" lon="7.45102">
        <ele>2131</ele>
        <time>2025-06-13T11:52:00Z</time>
      </trkpt>
      <trkpt lat="44.05685" lon="7.45102">
        <ele>2131</ele>
        <time>2025-06-13T11:52:00Z</time>
      </trkpt>
      <trkpt lat="44.05687" lon="7.45115">
        <ele>2130</ele>
        <time>2025-06-13T11:52:05Z</time>
      </trkpt>
      <trkpt lat="44.05683" lon="7.45114">
        <ele>2131</ele>
        <time>2025-06-13T11:52:07Z</time>
      </trkpt>
      <trkpt lat="44.05667" lon="7.45117">
        <ele>2136</ele>
        <time>2025-06-13T11:52:15Z</time>
      </trkpt>
      <trkpt lat="44.05663" lon="7.45115">
        <ele>2137</ele>
        <time>2025-06-13T11:52:17Z</time>
      </trkpt>
      <trkpt lat="44.05659" lon="7.45116">
        <ele>2138</ele>
        <time>2025-06-13T11:52:19Z</time>
      </trkpt>
      <trkpt lat="44.05658" lon="7.45123">
        <ele>2138</ele>
        <time>2025-06-13T11:52:22Z</time>
      </trkpt>
      <trkpt lat="44.05658" lon="7.45133">
        <ele>2137</ele>
        <time>2025-06-13T11:52:25Z</time>
      </trkpt>
      <trkpt lat="44.05654" lon="7.45143">
        <ele>2138</ele>
        <time>2025-06-13T11:52:29Z</time>
      </trkpt>
      <trkpt lat="44.05651" lon="7.45163">
        <ele>2137</ele>
        <time>2025-06-13T11:52:37Z</time>
      </trkpt>
      <trkpt lat="44.05646" lon="7.45178">
        <ele>2137</ele>
        <time>2025-06-13T11:52:43Z</time>
      </trkpt>
      <trkpt lat="44.05642" lon="7.45185">
        <ele>2138</ele>
        <time>2025-06-13T11:52:46Z</time>
      </trkpt>
      <trkpt lat="44.05638" lon="7.45191">
        <ele>2138</ele>
        <time>2025-06-13T11:52:49Z</time>
      </trkpt>
      <trkpt lat="44.05632" lon="7.45198">
        <ele>2138</ele>
        <time>2025-06-13T11:52:53Z</time>
      </trkpt>
      <trkpt lat="44.05626" lon="7.45211">
        <ele>2138</ele>
        <time>2025-06-13T11:52:58Z</time>
      </trkpt>
      <trkpt lat="44.05622" lon="7.45213">
        <ele>2139</ele>
        <time>2025-06-13T11:53:00Z</time>
      </trkpt>
      <trkpt lat="44.05617" lon="7.45211">
        <ele>2139</ele>
        <time>2025-06-13T11:53:03Z</time>
      </trkpt>
      <trkpt lat="44.05602" lon="7.45196">
        <ele>2142</ele>
        <time>2025-06-13T11:53:12Z</time>
      </trkpt>
      <trkpt lat="44.05596" lon="7.4519">
        <ele>2143</ele>
        <time>2025-06-13T11:53:16Z</time>
      </trkpt>
      <trkpt lat="44.05592" lon="7.45183">
        <ele>2144</ele>
        <time>2025-06-13T11:53:19Z</time>
      </trkpt>
      <trkpt lat="44.05586" lon="7.45173">
        <ele>2145</ele>
        <time>2025-06-13T11:53:24Z</time>
      </trkpt>
      <trkpt lat="44.05583" lon="7.45155">
        <ele>2147</ele>
        <time>2025-06-13T11:53:30Z</time>
      </trkpt>
      <trkpt lat="44.0558" lon="7.45153">
        <ele>2148</ele>
        <time>2025-06-13T11:53:32Z</time>
      </trkpt>
      <trkpt lat="44.05557" lon="7.45201">
        <ele>2150</ele>
        <time>2025-06-13T11:53:53Z</time>
      </trkpt>
      <trkpt lat="44.05553" lon="7.45187">
        <ele>2152</ele>
        <time>2025-06-13T11:53:58Z</time>
      </trkpt>
      <trkpt lat="44.05553" lon="7.45175">
        <ele>2153</ele>
        <time>2025-06-13T11:54:03Z</time>
      </trkpt>
      <trkpt lat="44.05549" lon="7.45163">
        <ele>2154</ele>
        <time>2025-06-13T11:54:07Z</time>
      </trkpt>
      <trkpt lat="44.0555" lon="7.45153">
        <ele>2154</ele>
        <time>2025-06-13T11:54:11Z</time>
      </trkpt>
      <trkpt lat="44.05547" lon="7.45134">
        <ele>2156</ele>
        <time>2025-06-13T11:54:18Z</time>
      </trkpt>
      <trkpt lat="44.05532" lon="7.45142">
        <ele>2158</ele>
        <time>2025-06-13T11:54:26Z</time>
      </trkpt>
      <trkpt lat="44.05521" lon="7.45144">
        <ele>2160</ele>
        <time>2025-06-13T11:54:32Z</time>
      </trkpt>
      <trkpt lat="44.05516" lon="7.45148">
        <ele>2161</ele>
        <time>2025-06-13T11:54:34Z</time>
      </trkpt>
      <trkpt lat="44.05502" lon="7.45154">
        <ele>2165</ele>
        <time>2025-06-13T11:54:42Z</time>
      </trkpt>
      <trkpt lat="44.05482" lon="7.45135">
        <ele>2165</ele>
        <time>2025-06-13T11:54:54Z</time>
      </trkpt>
      <trkpt lat="44.05478" lon="7.45124">
        <ele>2165</ele>
        <time>2025-06-13T11:54:58Z</time>
      </trkpt>
      <trkpt lat="44.0547" lon="7.45117">
        <ele>2165</ele>
        <time>2025-06-13T11:55:03Z</time>
      </trkpt>
      <trkpt lat="44.05463" lon="7.45111">
        <ele>2166</ele>
        <time>2025-06-13T11:55:07Z</time>
      </trkpt>
      <trkpt lat="44.05455" lon="7.45112">
        <ele>2166</ele>
        <time>2025-06-13T11:55:11Z</time>
      </trkpt>
      <trkpt lat="44.05442" lon="7.45119">
        <ele>2168</ele>
        <time>2025-06-13T11:55:18Z</time>
      </trkpt>
      <trkpt lat="44.0543" lon="7.4513">
        <ele>2170</ele>
        <time>2025-06-13T11:55:25Z</time>
      </trkpt>
      <trkpt lat="44.05422" lon="7.45132">
        <ele>2170</ele>
        <time>2025-06-13T11:55:29Z</time>
      </trkpt>
      <trkpt lat="44.05413" lon="7.45128">
        <ele>2170</ele>
        <time>2025-06-13T11:55:34Z</time>
      </trkpt>
      <trkpt lat="44.05411" lon="7.4512">
        <ele>2170</ele>
        <time>2025-06-13T11:55:37Z</time>
      </trkpt>
      <trkpt lat="44.05405" lon="7.45109">
        <ele>2170</ele>
        <time>2025-06-13T11:55:42Z</time>
      </trkpt>
      <trkpt lat="44.05398" lon="7.45094">
        <ele>2170</ele>
        <time>2025-06-13T11:55:49Z</time>
      </trkpt>
      <trkpt lat="44.05385" lon="7.45077">
        <ele>2170</ele>
        <time>2025-06-13T11:55:58Z</time>
      </trkpt>
      <trkpt lat="44.05376" lon="7.4507">
        <ele>2170</ele>
        <time>2025-06-13T11:56:03Z</time>
      </trkpt>
      <trkpt lat="44.05376" lon="7.4506">
        <ele>2170</ele>
        <time>2025-06-13T11:56:06Z</time>
      </trkpt>
      <trkpt lat="44.05377" lon="7.4505">
        <ele>2170</ele>
        <time>2025-06-13T11:56:10Z</time>
      </trkpt>
      <trkpt lat="44.05372" lon="7.45035">
        <ele>2171</ele>
        <time>2025-06-13T11:56:16Z</time>
      </trkpt>
      <trkpt lat="44.05369" lon="7.45031">
        <ele>2171</ele>
        <time>2025-06-13T11:56:18Z</time>
      </trkpt>
      <trkpt lat="44.05368" lon="7.45025">
        <ele>2171</ele>
        <time>2025-06-13T11:56:20Z</time>
      </trkpt>
      <trkpt lat="44.05361" lon="7.45019">
        <ele>2172</ele>
        <time>2025-06-13T11:56:24Z</time>
      </trkpt>
      <trkpt lat="44.05358" lon="7.45013">
        <ele>2173</ele>
        <time>2025-06-13T11:56:27Z</time>
      </trkpt>
      <trkpt lat="44.05358" lon="7.45001">
        <ele>2173</ele>
        <time>2025-06-13T11:56:31Z</time>
      </trkpt>
      <trkpt lat="44.05357" lon="7.44994">
        <ele>2174</ele>
        <time>2025-06-13T11:56:34Z</time>
      </trkpt>
      <trkpt lat="44.05358" lon="7.44963">
        <ele>2177</ele>
        <time>2025-06-13T11:56:45Z</time>
      </trkpt>
      <trkpt lat="44.05356" lon="7.44946">
        <ele>2180</ele>
        <time>2025-06-13T11:56:51Z</time>
      </trkpt>
      <trkpt lat="44.05359" lon="7.44929">
        <ele>2181</ele>
        <time>2025-06-13T11:56:57Z</time>
      </trkpt>
      <trkpt lat="44.05363" lon="7.44899">
        <ele>2183</ele>
        <time>2025-06-13T11:57:08Z</time>
      </trkpt>
      <trkpt lat="44.05371" lon="7.44881">
        <ele>2183</ele>
        <time>2025-06-13T11:57:16Z</time>
      </trkpt>
      <trkpt lat="44.05373" lon="7.44864">
        <ele>2184</ele>
        <time>2025-06-13T11:57:22Z</time>
      </trkpt>
      <trkpt lat="44.05384" lon="7.44839">
        <ele>2183</ele>
        <time>2025-06-13T11:57:33Z</time>
      </trkpt>
      <trkpt lat="44.05388" lon="7.44823">
        <ele>2184</ele>
        <time>2025-06-13T11:57:39Z</time>
      </trkpt>
      <trkpt lat="44.05388" lon="7.44812">
        <ele>2185</ele>
        <time>2025-06-13T11:57:43Z</time>
      </trkpt>
      <trkpt lat="44.05386" lon="7.44812">
        <ele>2186</ele>
        <time>2025-06-13T11:57:44Z</time>
      </trkpt>
      <trkpt lat="44.05377" lon="7.44819">
        <ele>2188</ele>
        <time>2025-06-13T11:57:49Z</time>
      </trkpt>
      <trkpt lat="44.05376" lon="7.4481">
        <ele>2190</ele>
        <time>2025-06-13T11:57:52Z</time>
      </trkpt>
      <trkpt lat="44.05371" lon="7.44816">
        <ele>2191</ele>
        <time>2025-06-13T11:57:56Z</time>
      </trkpt>
      <trkpt lat="44.05353" lon="7.44805">
        <ele>2198</ele>
        <time>2025-06-13T11:58:05Z</time>
      </trkpt>
      <trkpt lat="44.05345" lon="7.44798">
        <ele>2202</ele>
        <time>2025-06-13T11:58:10Z</time>
      </trkpt>
      <trkpt lat="44.05339" lon="7.44796">
        <ele>2204</ele>
        <time>2025-06-13T11:58:13Z</time>
      </trkpt>
      <trkpt lat="44.05325" lon="7.4478">
        <ele>2210</ele>
        <time>2025-06-13T11:58:22Z</time>
      </trkpt>
      <trkpt lat="44.05322" lon="7.44773">
        <ele>2212</ele>
        <time>2025-06-13T11:58:25Z</time>
      </trkpt>
      <trkpt lat="44.05292" lon="7.44772">
        <ele>2220</ele>
        <time>2025-06-13T11:58:40Z</time>
      </trkpt>
      <trkpt lat="44.05286" lon="7.44777">
        <ele>2221</ele>
        <time>2025-06-13T11:58:44Z</time>
      </trkpt>
      <trkpt lat="44.05283" lon="7.44772">
        <ele>2223</ele>
        <time>2025-06-13T11:58:46Z</time>
      </trkpt>
      <trkpt lat="44.05284" lon="7.44752">
        <ele>2224</ele>
        <time>2025-06-13T11:58:53Z</time>
      </trkpt>
      <trkpt lat="44.05282" lon="7.44748">
        <ele>2226</ele>
        <time>2025-06-13T11:58:55Z</time>
      </trkpt>
      <trkpt lat="44.05274" lon="7.4475">
        <ele>2227</ele>
        <time>2025-06-13T11:58:59Z</time>
      </trkpt>
      <trkpt lat="44.05274" lon="7.44743">
        <ele>2229</ele>
        <time>2025-06-13T11:59:02Z</time>
      </trkpt>
      <trkpt lat="44.05271" lon="7.4474">
        <ele>2230</ele>
        <time>2025-06-13T11:59:03Z</time>
      </trkpt>
      <trkpt lat="44.05275" lon="7.44732">
        <ele>2230</ele>
        <time>2025-06-13T11:59:07Z</time>
      </trkpt>
      <trkpt lat="44.0527" lon="7.44731">
        <ele>2232</ele>
        <time>2025-06-13T11:59:10Z</time>
      </trkpt>
      <trkpt lat="44.05268" lon="7.44727">
        <ele>2233</ele>
        <time>2025-06-13T11:59:11Z</time>
      </trkpt>
      <trkpt lat="44.05261" lon="7.44729">
        <ele>2234</ele>
        <time>2025-06-13T11:59:15Z</time>
      </trkpt>
      <trkpt lat="44.05258" lon="7.44726">
        <ele>2236</ele>
        <time>2025-06-13T11:59:17Z</time>
      </trkpt>
      <trkpt lat="44.05258" lon="7.44721">
        <ele>2236</ele>
        <time>2025-06-13T11:59:19Z</time>
      </trkpt>
      <trkpt lat="44.05261" lon="7.44718">
        <ele>2236</ele>
        <time>2025-06-13T11:59:20Z</time>
      </trkpt>
      <trkpt lat="44.05267" lon="7.44716">
        <ele>2235</ele>
        <time>2025-06-13T11:59:23Z</time>
      </trkpt>
      <trkpt lat="44.05276" lon="7.44718">
        <ele>2233</ele>
        <time>2025-06-13T11:59:28Z</time>
      </trkpt>
      <trkpt lat="44.05277" lon="7.44714">
        <ele>2233</ele>
        <time>2025-06-13T11:59:30Z</time>
      </trkpt>
      <trkpt lat="44.05276" lon="7.44705">
        <ele>2235</ele>
        <time>2025-06-13T11:59:33Z</time>
      </trkpt>
      <trkpt lat="44.05279" lon="7.44698">
        <ele>2236</ele>
        <time>2025-06-13T11:59:36Z</time>
      </trkpt>
      <trkpt lat="44.05276" lon="7.44693">
        <ele>2238</ele>
        <time>2025-06-13T11:59:38Z</time>
      </trkpt>
      <trkpt lat="44.05277" lon="7.44671">
        <ele>2242</ele>
        <time>2025-06-13T11:59:46Z</time>
      </trkpt>
      <trkpt lat="44.05274" lon="7.44665">
        <ele>2243</ele>
        <time>2025-06-13T11:59:49Z</time>
      </trkpt>
      <trkpt lat="44.0527" lon="7.44663">
        <ele>2244</ele>
        <time>2025-06-13T11:59:51Z</time>
      </trkpt>
      <trkpt lat="44.05268" lon="7.44638">
        <ele>2247</ele>
        <time>2025-06-13T12:00:00Z</time>
      </trkpt>
      <trkpt lat="44.05264" lon="7.4463">
        <ele>2249</ele>
        <time>2025-06-13T12:00:03Z</time>
      </trkpt>
      <trkpt lat="44.05269" lon="7.44623">
        <ele>2249</ele>
        <time>2025-06-13T12:00:07Z</time>
      </trkpt>
      <trkpt lat="44.05269" lon="7.44618">
        <ele>2250</ele>
        <time>2025-06-13T12:00:09Z</time>
      </trkpt>
      <trkpt lat="44.05266" lon="7.44609">
        <ele>2251</ele>
        <time>2025-06-13T12:00:12Z</time>
      </trkpt>
      <trkpt lat="44.05267" lon="7.44602">
        <ele>2252</ele>
        <time>2025-06-13T12:00:15Z</time>
      </trkpt>
      <trkpt lat="44.05265" lon="7.44595">
        <ele>2253</ele>
        <time>2025-06-13T12:00:18Z</time>
      </trkpt>
      <trkpt lat="44.05262" lon="7.44588">
        <ele>2254</ele>
        <time>2025-06-13T12:00:20Z</time>
      </trkpt>
      <trkpt lat="44.05261" lon="7.4458">
        <ele>2255</ele>
        <time>2025-06-13T12:00:23Z</time>
      </trkpt>
      <trkpt lat="44.05265" lon="7.44572">
        <ele>2255</ele>
        <time>2025-06-13T12:00:27Z</time>
      </trkpt>
      <trkpt lat="44.05262" lon="7.44562">
        <ele>2256</ele>
        <time>2025-06-13T12:00:31Z</time>
      </trkpt>
      <trkpt lat="44.05255" lon="7.44559">
        <ele>2256</ele>
        <time>2025-06-13T12:00:34Z</time>
      </trkpt>
      <trkpt lat="44.05241" lon="7.44551">
        <ele>2258</ele>
        <time>2025-06-13T12:00:42Z</time>
      </trkpt>
      <trkpt lat="44.05229" lon="7.44539">
        <ele>2261</ele>
        <time>2025-06-13T12:00:49Z</time>
      </trkpt>
      <trkpt lat="44.05221" lon="7.44526">
        <ele>2263</ele>
        <time>2025-06-13T12:00:56Z</time>
      </trkpt>
      <trkpt lat="44.05218" lon="7.44512">
        <ele>2265</ele>
        <time>2025-06-13T12:01:01Z</time>
      </trkpt>
      <trkpt lat="44.05211" lon="7.44503">
        <ele>2267</ele>
        <time>2025-06-13T12:01:06Z</time>
      </trkpt>
      <trkpt lat="44.05209" lon="7.44491">
        <ele>2267</ele>
        <time>2025-06-13T12:01:10Z</time>
      </trkpt>
      <trkpt lat="44.05205" lon="7.44479">
        <ele>2267</ele>
        <time>2025-06-13T12:01:15Z</time>
      </trkpt>
      <trkpt lat="44.05199" lon="7.44481">
        <ele>2268</ele>
        <time>2025-06-13T12:01:18Z</time>
      </trkpt>
      <trkpt lat="44.0519" lon="7.44477">
        <ele>2269</ele>
        <time>2025-06-13T12:01:23Z</time>
      </trkpt>
      <trkpt lat="44.05183" lon="7.44468">
        <ele>2270</ele>
        <time>2025-06-13T12:01:27Z</time>
      </trkpt>
      <trkpt lat="44.05176" lon="7.44464">
        <ele>2270</ele>
        <time>2025-06-13T12:01:31Z</time>
      </trkpt>
      <trkpt lat="44.05174" lon="7.44457">
        <ele>2270</ele>
        <time>2025-06-13T12:01:34Z</time>
      </trkpt>
      <trkpt lat="44.05177" lon="7.44431">
        <ele>2268</ele>
        <time>2025-06-13T12:01:43Z</time>
      </trkpt>
      <trkpt lat="44.05181" lon="7.44429">
        <ele>2268</ele>
        <time>2025-06-13T12:01:45Z</time>
      </trkpt>
      <trkpt lat="44.05186" lon="7.44432">
        <ele>2267</ele>
        <time>2025-06-13T12:01:48Z</time>
      </trkpt>
      <trkpt lat="44.0519" lon="7.44431">
        <ele>2266</ele>
        <time>2025-06-13T12:01:50Z</time>
      </trkpt>
      <trkpt lat="44.05191" lon="7.44416">
        <ele>2265</ele>
        <time>2025-06-13T12:01:56Z</time>
      </trkpt>
      <trkpt lat="44.05189" lon="7.44401">
        <ele>2265</ele>
        <time>2025-06-13T12:02:01Z</time>
      </trkpt>
      <trkpt lat="44.0519" lon="7.44396">
        <ele>2265</ele>
        <time>2025-06-13T12:02:03Z</time>
      </trkpt>
      <trkpt lat="44.05197" lon="7.44396">
        <ele>2264</ele>
        <time>2025-06-13T12:02:06Z</time>
      </trkpt>
      <trkpt lat="44.05203" lon="7.44399">
        <ele>2263</ele>
        <time>2025-06-13T12:02:10Z</time>
      </trkpt>
      <trkpt lat="44.05207" lon="7.44403">
        <ele>2263</ele>
        <time>2025-06-13T12:02:12Z</time>
      </trkpt>
      <trkpt lat="44.05209" lon="7.44402">
        <ele>2263</ele>
        <time>2025-06-13T12:02:13Z</time>
      </trkpt>
      <trkpt lat="44.05209" lon="7.44398">
        <ele>2262</ele>
        <time>2025-06-13T12:02:15Z</time>
      </trkpt>
      <trkpt lat="44.05206" lon="7.4439">
        <ele>2263</ele>
        <time>2025-06-13T12:02:18Z</time>
      </trkpt>
      <trkpt lat="44.05205" lon="7.44376">
        <ele>2262</ele>
        <time>2025-06-13T12:02:23Z</time>
      </trkpt>
      <trkpt lat="44.05207" lon="7.4437">
        <ele>2262</ele>
        <time>2025-06-13T12:02:25Z</time>
      </trkpt>
      <trkpt lat="44.0521" lon="7.44366">
        <ele>2262</ele>
        <time>2025-06-13T12:02:27Z</time>
      </trkpt>
      <trkpt lat="44.05209" lon="7.44355">
        <ele>2261</ele>
        <time>2025-06-13T12:02:31Z</time>
      </trkpt>
      <trkpt lat="44.0521" lon="7.44341">
        <ele>2261</ele>
        <time>2025-06-13T12:02:36Z</time>
      </trkpt>
      <trkpt lat="44.05206" lon="7.44334">
        <ele>2261</ele>
        <time>2025-06-13T12:02:40Z</time>
      </trkpt>
      <trkpt lat="44.05201" lon="7.44332">
        <ele>2262</ele>
        <time>2025-06-13T12:02:42Z</time>
      </trkpt>
      <trkpt lat="44.05198" lon="7.44324">
        <ele>2263</ele>
        <time>2025-06-13T12:02:46Z</time>
      </trkpt>
      <trkpt lat="44.05201" lon="7.44307">
        <ele>2265</ele>
        <time>2025-06-13T12:02:52Z</time>
      </trkpt>
      <trkpt lat="44.05198" lon="7.44297">
        <ele>2266</ele>
        <time>2025-06-13T12:02:56Z</time>
      </trkpt>
      <trkpt lat="44.05198" lon="7.44286">
        <ele>2267</ele>
        <time>2025-06-13T12:03:00Z</time>
      </trkpt>
      <trkpt lat="44.0517" lon="7.44257">
        <ele>2270</ele>
        <time>2025-06-13T12:03:17Z</time>
      </trkpt>
      <trkpt lat="44.05171" lon="7.44237">
        <ele>2271</ele>
        <time>2025-06-13T12:03:24Z</time>
      </trkpt>
      <trkpt lat="44.05171" lon="7.44216">
        <ele>2272</ele>
        <time>2025-06-13T12:03:32Z</time>
      </trkpt>
      <trkpt lat="44.05179" lon="7.44175">
        <ele>2276</ele>
        <time>2025-06-13T12:03:47Z</time>
      </trkpt>
      <trkpt lat="44.05169" lon="7.44132">
        <ele>2278</ele>
        <time>2025-06-13T12:04:03Z</time>
      </trkpt>
      <trkpt lat="44.05169" lon="7.44083">
        <ele>2283</ele>
        <time>2025-06-13T12:04:21Z</time>
      </trkpt>
      <trkpt lat="44.05167" lon="7.44077">
        <ele>2283</ele>
        <time>2025-06-13T12:04:23Z</time>
      </trkpt>
      <trkpt lat="44.05168" lon="7.44066">
        <ele>2284</ele>
        <time>2025-06-13T12:04:27Z</time>
      </trkpt>
      <trkpt lat="44.05166" lon="7.44058">
        <ele>2285</ele>
        <time>2025-06-13T12:04:30Z</time>
      </trkpt>
      <trkpt lat="44.05161" lon="7.44049">
        <ele>2285</ele>
        <time>2025-06-13T12:04:35Z</time>
      </trkpt>
      <trkpt lat="44.05157" lon="7.44049">
        <ele>2284</ele>
        <time>2025-06-13T12:04:37Z</time>
      </trkpt>
      <trkpt lat="44.05154" lon="7.44052">
        <ele>2284</ele>
        <time>2025-06-13T12:04:38Z</time>
      </trkpt>
      <trkpt lat="44.0515" lon="7.44047">
        <ele>2284</ele>
        <time>2025-06-13T12:04:41Z</time>
      </trkpt>
      <trkpt lat="44.05147" lon="7.44022">
        <ele>2286</ele>
        <time>2025-06-13T12:04:50Z</time>
      </trkpt>
      <trkpt lat="44.05144" lon="7.44024">
        <ele>2285</ele>
        <time>2025-06-13T12:04:52Z</time>
      </trkpt>
      <trkpt lat="44.05141" lon="7.44032">
        <ele>2284</ele>
        <time>2025-06-13T12:04:55Z</time>
      </trkpt>
      <trkpt lat="44.05139" lon="7.44028">
        <ele>2284</ele>
        <time>2025-06-13T12:04:57Z</time>
      </trkpt>
      <trkpt lat="44.05133" lon="7.43984">
        <ele>2286</ele>
        <time>2025-06-13T12:05:13Z</time>
      </trkpt>
      <trkpt lat="44.05127" lon="7.43982">
        <ele>2285</ele>
        <time>2025-06-13T12:05:16Z</time>
      </trkpt>
      <trkpt lat="44.05122" lon="7.43978">
        <ele>2284</ele>
        <time>2025-06-13T12:05:19Z</time>
      </trkpt>
      <trkpt lat="44.0512" lon="7.43966">
        <ele>2284</ele>
        <time>2025-06-13T12:05:23Z</time>
      </trkpt>
      <trkpt lat="44.05116" lon="7.43961">
        <ele>2284</ele>
        <time>2025-06-13T12:05:26Z</time>
      </trkpt>
      <trkpt lat="44.05128" lon="7.43943">
        <ele>2286</ele>
        <time>2025-06-13T12:05:35Z</time>
      </trkpt>
      <trkpt lat="44.05128" lon="7.43918">
        <ele>2287</ele>
        <time>2025-06-13T12:05:44Z</time>
      </trkpt>
      <trkpt lat="44.05137" lon="7.43903">
        <ele>2289</ele>
        <time>2025-06-13T12:05:51Z</time>
      </trkpt>
      <trkpt lat="44.05138" lon="7.4389">
        <ele>2289</ele>
        <time>2025-06-13T12:05:56Z</time>
      </trkpt>
      <trkpt lat="44.0514" lon="7.43881">
        <ele>2290</ele>
        <time>2025-06-13T12:05:59Z</time>
      </trkpt>
      <trkpt lat="44.05132" lon="7.43853">
        <ele>2289</ele>
        <time>2025-06-13T12:06:10Z</time>
      </trkpt>
      <trkpt lat="44.05133" lon="7.43829">
        <ele>2290</ele>
        <time>2025-06-13T12:06:18Z</time>
      </trkpt>
      <trkpt lat="44.05138" lon="7.43789">
        <ele>2295</ele>
        <time>2025-06-13T12:06:33Z</time>
      </trkpt>
      <trkpt lat="44.05135" lon="7.43766">
        <ele>2297</ele>
        <time>2025-06-13T12:06:42Z</time>
      </trkpt>
      <trkpt lat="44.05133" lon="7.43762">
        <ele>2297</ele>
        <time>2025-06-13T12:06:43Z</time>
      </trkpt>
      <trkpt lat="44.05133" lon="7.43756">
        <ele>2297</ele>
        <time>2025-06-13T12:06:45Z</time>
      </trkpt>
      <trkpt lat="44.0513" lon="7.43752">
        <ele>2297</ele>
        <time>2025-06-13T12:06:48Z</time>
      </trkpt>
      <trkpt lat="44.05123" lon="7.43752">
        <ele>2297</ele>
        <time>2025-06-13T12:06:51Z</time>
      </trkpt>
      <trkpt lat="44.05125" lon="7.43748">
        <ele>2297</ele>
        <time>2025-06-13T12:06:53Z</time>
      </trkpt>
      <trkpt lat="44.05121" lon="7.43743">
        <ele>2298</ele>
        <time>2025-06-13T12:06:55Z</time>
      </trkpt>
      <trkpt lat="44.05124" lon="7.4374">
        <ele>2299</ele>
        <time>2025-06-13T12:06:57Z</time>
      </trkpt>
      <trkpt lat="44.05126" lon="7.4373">
        <ele>2302</ele>
        <time>2025-06-13T12:07:01Z</time>
      </trkpt>
      <trkpt lat="44.05123" lon="7.43721">
        <ele>2304</ele>
        <time>2025-06-13T12:07:05Z</time>
      </trkpt>
      <trkpt lat="44.05117" lon="7.43716">
        <ele>2304</ele>
        <time>2025-06-13T12:07:08Z</time>
      </trkpt>
      <trkpt lat="44.05118" lon="7.43709">
        <ele>2306</ele>
        <time>2025-06-13T12:07:11Z</time>
      </trkpt>
      <trkpt lat="44.05114" lon="7.43707">
        <ele>2306</ele>
        <time>2025-06-13T12:07:13Z</time>
      </trkpt>
      <trkpt lat="44.05114" lon="7.43699">
        <ele>2308</ele>
        <time>2025-06-13T12:07:16Z</time>
      </trkpt>
      <trkpt lat="44.0511" lon="7.43696">
        <ele>2308</ele>
        <time>2025-06-13T12:07:18Z</time>
      </trkpt>
      <trkpt lat="44.05109" lon="7.43685">
        <ele>2311</ele>
        <time>2025-06-13T12:07:22Z</time>
      </trkpt>
      <trkpt lat="44.05107" lon="7.43677">
        <ele>2313</ele>
        <time>2025-06-13T12:07:25Z</time>
      </trkpt>
      <trkpt lat="44.05107" lon="7.43671">
        <ele>2314</ele>
        <time>2025-06-13T12:07:27Z</time>
      </trkpt>
      <trkpt lat="44.05102" lon="7.4367">
        <ele>2314</ele>
        <time>2025-06-13T12:07:30Z</time>
      </trkpt>
      <trkpt lat="44.05098" lon="7.43657">
        <ele>2317</ele>
        <time>2025-06-13T12:07:35Z</time>
      </trkpt>
      <trkpt lat="44.05096" lon="7.43643">
        <ele>2319</ele>
        <time>2025-06-13T12:07:40Z</time>
      </trkpt>
      <trkpt lat="44.05097" lon="7.43638">
        <ele>2320</ele>
        <time>2025-06-13T12:07:42Z</time>
      </trkpt>
      <trkpt lat="44.05094" lon="7.43627">
        <ele>2322</ele>
        <time>2025-06-13T12:07:46Z</time>
      </trkpt>
      <trkpt lat="44.05086" lon="7.43626">
        <ele>2321</ele>
        <time>2025-06-13T12:07:50Z</time>
      </trkpt>
      <trkpt lat="44.0508" lon="7.43611">
        <ele>2324</ele>
        <time>2025-06-13T12:07:56Z</time>
      </trkpt>
      <trkpt lat="44.05076" lon="7.43611">
        <ele>2324</ele>
        <time>2025-06-13T12:07:58Z</time>
      </trkpt>
      <trkpt lat="44.05066" lon="7.43597">
        <ele>2328</ele>
        <time>2025-06-13T12:08:05Z</time>
      </trkpt>
      <trkpt lat="44.05061" lon="7.43594">
        <ele>2329</ele>
        <time>2025-06-13T12:08:08Z</time>
      </trkpt>
      <trkpt lat="44.05051" lon="7.43579">
        <ele>2333</ele>
        <time>2025-06-13T12:08:15Z</time>
      </trkpt>
      <trkpt lat="44.05045" lon="7.43585">
        <ele>2333</ele>
        <time>2025-06-13T12:08:19Z</time>
      </trkpt>
      <trkpt lat="44.0504" lon="7.43576">
        <ele>2336</ele>
        <time>2025-06-13T12:08:23Z</time>
      </trkpt>
      <trkpt lat="44.05043" lon="7.43545">
        <ele>2341</ele>
        <time>2025-06-13T12:08:34Z</time>
      </trkpt>
      <trkpt lat="44.05039" lon="7.4354">
        <ele>2342</ele>
        <time>2025-06-13T12:08:37Z</time>
      </trkpt>
      <trkpt lat="44.05033" lon="7.43518">
        <ele>2347</ele>
        <time>2025-06-13T12:08:46Z</time>
      </trkpt>
      <trkpt lat="44.05027" lon="7.4351">
        <ele>2349</ele>
        <time>2025-06-13T12:08:50Z</time>
      </trkpt>
      <trkpt lat="44.05032" lon="7.43492">
        <ele>2351</ele>
        <time>2025-06-13T12:08:57Z</time>
      </trkpt>
      <trkpt lat="44.05029" lon="7.43484">
        <ele>2353</ele>
        <time>2025-06-13T12:09:00Z</time>
      </trkpt>
      <trkpt lat="44.0503" lon="7.43474">
        <ele>2354</ele>
        <time>2025-06-13T12:09:04Z</time>
      </trkpt>
      <trkpt lat="44.05027" lon="7.43464">
        <ele>2356</ele>
        <time>2025-06-13T12:09:07Z</time>
      </trkpt>
      <trkpt lat="44.05024" lon="7.43435">
        <ele>2360</ele>
        <time>2025-06-13T12:09:18Z</time>
      </trkpt>
      <trkpt lat="44.05025" lon="7.43433">
        <ele>2360</ele>
        <time>2025-06-13T12:09:19Z</time>
      </trkpt>
      <trkpt lat="44.05022" lon="7.4341">
        <ele>2364</ele>
        <time>2025-06-13T12:09:27Z</time>
      </trkpt>
      <trkpt lat="44.05014" lon="7.43382">
        <ele>2369</ele>
        <time>2025-06-13T12:09:38Z</time>
      </trkpt>
      <trkpt lat="44.05016" lon="7.43369">
        <ele>2372</ele>
        <time>2025-06-13T12:09:43Z</time>
      </trkpt>
      <trkpt lat="44.05014" lon="7.43364">
        <ele>2373</ele>
        <time>2025-06-13T12:09:45Z</time>
      </trkpt>
      <trkpt lat="44.05014" lon="7.43361">
        <ele>2374</ele>
        <time>2025-06-13T12:09:46Z</time>
      </trkpt>
      <trkpt lat="44.05016" lon="7.4336">
        <ele>2374</ele>
        <time>2025-06-13T12:09:47Z</time>
      </trkpt>
      <trkpt lat="44.05015" lon="7.43345">
        <ele>2377</ele>
        <time>2025-06-13T12:09:52Z</time>
      </trkpt>
      <trkpt lat="44.05009" lon="7.43343">
        <ele>2376</ele>
        <time>2025-06-13T12:09:56Z</time>
      </trkpt>
      <trkpt lat="44.05003" lon="7.43344">
        <ele>2375</ele>
        <time>2025-06-13T12:09:59Z</time>
      </trkpt>
      <trkpt lat="44.05" lon="7.43341">
        <ele>2375</ele>
        <time>2025-06-13T12:10:00Z</time>
      </trkpt>
      <trkpt lat="44.04993" lon="7.43343">
        <ele>2374</ele>
        <time>2025-06-13T12:10:04Z</time>
      </trkpt>
      <trkpt lat="44.04986" lon="7.43338">
        <ele>2375</ele>
        <time>2025-06-13T12:10:08Z</time>
      </trkpt>
      <trkpt lat="44.04982" lon="7.43338">
        <ele>2374</ele>
        <time>2025-06-13T12:10:10Z</time>
      </trkpt>
      <trkpt lat="44.04977" lon="7.43344">
        <ele>2373</ele>
        <time>2025-06-13T12:10:13Z</time>
      </trkpt>
      <trkpt lat="44.04973" lon="7.43343">
        <ele>2373</ele>
        <time>2025-06-13T12:10:15Z</time>
      </trkpt>
      <trkpt lat="44.04972" lon="7.43328">
        <ele>2376</ele>
        <time>2025-06-13T12:10:21Z</time>
      </trkpt>
      <trkpt lat="44.04968" lon="7.43308">
        <ele>2379</ele>
        <time>2025-06-13T12:10:28Z</time>
      </trkpt>
      <trkpt lat="44.04968" lon="7.43297">
        <ele>2380</ele>
        <time>2025-06-13T12:10:32Z</time>
      </trkpt>
      <trkpt lat="44.04949" lon="7.43267">
        <ele>2383</ele>
        <time>2025-06-13T12:10:47Z</time>
      </trkpt>
      <trkpt lat="44.04948" lon="7.43246">
        <ele>2386</ele>
        <time>2025-06-13T12:10:54Z</time>
      </trkpt>
      <trkpt lat="44.04942" lon="7.43226">
        <ele>2389</ele>
        <time>2025-06-13T12:11:02Z</time>
      </trkpt>
      <trkpt lat="44.04943" lon="7.4321">
        <ele>2392</ele>
        <time>2025-06-13T12:11:08Z</time>
      </trkpt>
      <trkpt lat="44.04938" lon="7.43192">
        <ele>2394</ele>
        <time>2025-06-13T12:11:15Z</time>
      </trkpt>
      <trkpt lat="44.04929" lon="7.43184">
        <ele>2394</ele>
        <time>2025-06-13T12:11:20Z</time>
      </trkpt>
      <trkpt lat="44.04927" lon="7.43176">
        <ele>2395</ele>
        <time>2025-06-13T12:11:23Z</time>
      </trkpt>
      <trkpt lat="44.04928" lon="7.43169">
        <ele>2396</ele>
        <time>2025-06-13T12:11:26Z</time>
      </trkpt>
      <trkpt lat="44.04927" lon="7.43163">
        <ele>2397</ele>
        <time>2025-06-13T12:11:28Z</time>
      </trkpt>
      <trkpt lat="44.04931" lon="7.43148">
        <ele>2400</ele>
        <time>2025-06-13T12:11:34Z</time>
      </trkpt>
      <trkpt lat="44.04932" lon="7.43133">
        <ele>2402</ele>
        <time>2025-06-13T12:11:39Z</time>
      </trkpt>
      <trkpt lat="44.04928" lon="7.43124">
        <ele>2402</ele>
        <time>2025-06-13T12:11:43Z</time>
      </trkpt>
      <trkpt lat="44.04928" lon="7.43107">
        <ele>2405</ele>
        <time>2025-06-13T12:11:49Z</time>
      </trkpt>
      <trkpt lat="44.04925" lon="7.43096">
        <ele>2405</ele>
        <time>2025-06-13T12:11:53Z</time>
      </trkpt>
      <trkpt lat="44.04923" lon="7.43086">
        <ele>2406</ele>
        <time>2025-06-13T12:11:57Z</time>
      </trkpt>
      <trkpt lat="44.0492" lon="7.43075">
        <ele>2406</ele>
        <time>2025-06-13T12:12:01Z</time>
      </trkpt>
      <trkpt lat="44.04921" lon="7.43064">
        <ele>2407</ele>
        <time>2025-06-13T12:12:05Z</time>
      </trkpt>
      <trkpt lat="44.04863" lon="7.43068">
        <ele>2413</ele>
        <time>2025-06-13T12:12:34Z</time>
      </trkpt>
      <trkpt lat="44.04843" lon="7.43069">
        <ele>2416</ele>
        <time>2025-06-13T12:12:44Z</time>
      </trkpt>
      <trkpt lat="44.0483" lon="7.43052">
        <ele>2420</ele>
        <time>2025-06-13T12:12:53Z</time>
      </trkpt>
      <trkpt lat="44.04812" lon="7.43044">
        <ele>2422</ele>
        <time>2025-06-13T12:13:03Z</time>
      </trkpt>
      <trkpt lat="44.04801" lon="7.43037">
        <ele>2422</ele>
        <time>2025-06-13T12:13:09Z</time>
      </trkpt>
      <trkpt lat="44.04777" lon="7.43042">
        <ele>2423</ele>
        <time>2025-06-13T12:13:21Z</time>
      </trkpt>
      <trkpt lat="44.0475" lon="7.4308">
        <ele>2427</ele>
        <time>2025-06-13T12:13:40Z</time>
      </trkpt>
      <trkpt lat="44.04746" lon="7.43076">
        <ele>2424</ele>
        <time>2025-06-13T12:13:42Z</time>
      </trkpt>
      <trkpt lat="44.04742" lon="7.43082">
        <ele>2423</ele>
        <time>2025-06-13T12:13:45Z</time>
      </trkpt>
      <trkpt lat="44.04738" lon="7.4308">
        <ele>2421</ele>
        <time>2025-06-13T12:13:47Z</time>
      </trkpt>
      <trkpt lat="44.04734" lon="7.43082">
        <ele>2420</ele>
        <time>2025-06-13T12:13:50Z</time>
      </trkpt>
      <trkpt lat="44.04723" lon="7.43086">
        <ele>2416</ele>
        <time>2025-06-13T12:13:55Z</time>
      </trkpt>
      <trkpt lat="44.04724" lon="7.43079">
        <ele>2415</ele>
        <time>2025-06-13T12:13:58Z</time>
      </trkpt>
      <trkpt lat="44.04715" lon="7.43079">
        <ele>2411</ele>
        <time>2025-06-13T12:14:02Z</time>
      </trkpt>
      <trkpt lat="44.04719" lon="7.43067">
        <ele>2410</ele>
        <time>2025-06-13T12:14:07Z</time>
      </trkpt>
      <trkpt lat="44.04716" lon="7.43053">
        <ele>2406</ele>
        <time>2025-06-13T12:14:12Z</time>
      </trkpt>
      <trkpt lat="44.04705" lon="7.43064">
        <ele>2403</ele>
        <time>2025-06-13T12:14:19Z</time>
      </trkpt>
      <trkpt lat="44.04701" lon="7.43056">
        <ele>2398</ele>
        <time>2025-06-13T12:14:23Z</time>
      </trkpt>
      <trkpt lat="44.04679" lon="7.43075">
        <ele>2393</ele>
        <time>2025-06-13T12:14:36Z</time>
      </trkpt>
      <trkpt lat="44.04671" lon="7.43081">
        <ele>2392</ele>
        <time>2025-06-13T12:14:40Z</time>
      </trkpt>
      <trkpt lat="44.04668" lon="7.43079">
        <ele>2390</ele>
        <time>2025-06-13T12:14:42Z</time>
      </trkpt>
      <trkpt lat="44.04654" lon="7.43088">
        <ele>2389</ele>
        <time>2025-06-13T12:14:50Z</time>
      </trkpt>
      <trkpt lat="44.04648" lon="7.43088">
        <ele>2386</ele>
        <time>2025-06-13T12:14:53Z</time>
      </trkpt>
      <trkpt lat="44.04632" lon="7.43076">
        <ele>2374</ele>
        <time>2025-06-13T12:15:02Z</time>
      </trkpt>
      <trkpt lat="44.04622" lon="7.43073">
        <ele>2369</ele>
        <time>2025-06-13T12:15:07Z</time>
      </trkpt>
      <trkpt lat="44.04612" lon="7.43074">
        <ele>2365</ele>
        <time>2025-06-13T12:15:12Z</time>
      </trkpt>
      <trkpt lat="44.04568" lon="7.43076">
        <ele>2351</ele>
        <time>2025-06-13T12:15:34Z</time>
      </trkpt>
      <trkpt lat="44.04536" lon="7.43097">
        <ele>2358</ele>
        <time>2025-06-13T12:15:52Z</time>
      </trkpt>
      <trkpt lat="44.04497" lon="7.4309">
        <ele>2346</ele>
        <time>2025-06-13T12:16:11Z</time>
      </trkpt>
      <trkpt lat="44.04451" lon="7.43088">
        <ele>2336</ele>
        <time>2025-06-13T12:16:34Z</time>
      </trkpt>
      <trkpt lat="44.04445" lon="7.43084">
        <ele>2333</ele>
        <time>2025-06-13T12:16:38Z</time>
      </trkpt>
      <trkpt lat="44.04424" lon="7.43088">
        <ele>2331</ele>
        <time>2025-06-13T12:16:48Z</time>
      </trkpt>
      <trkpt lat="44.04422" lon="7.43079">
        <ele>2327</ele>
        <time>2025-06-13T12:16:52Z</time>
      </trkpt>
      <trkpt lat="44.04417" lon="7.43082">
        <ele>2327</ele>
        <time>2025-06-13T12:16:54Z</time>
      </trkpt>
      <trkpt lat="44.04413" lon="7.43079">
        <ele>2325</ele>
        <time>2025-06-13T12:16:57Z</time>
      </trkpt>
      <trkpt lat="44.04409" lon="7.4308">
        <ele>2326</ele>
        <time>2025-06-13T12:16:59Z</time>
      </trkpt>
      <trkpt lat="44.04404" lon="7.43079">
        <ele>2325</ele>
        <time>2025-06-13T12:17:01Z</time>
      </trkpt>
      <trkpt lat="44.04399" lon="7.43069">
        <ele>2322</ele>
        <time>2025-06-13T12:17:05Z</time>
      </trkpt>
      <trkpt lat="44.04388" lon="7.4307">
        <ele>2321</ele>
        <time>2025-06-13T12:17:11Z</time>
      </trkpt>
      <trkpt lat="44.04372" lon="7.43064">
        <ele>2318</ele>
        <time>2025-06-13T12:17:19Z</time>
      </trkpt>
      <trkpt lat="44.04349" lon="7.43063">
        <ele>2317</ele>
        <time>2025-06-13T12:17:31Z</time>
      </trkpt>
      <trkpt lat="44.04314" lon="7.43053">
        <ele>2310</ele>
        <time>2025-06-13T12:17:49Z</time>
      </trkpt>
      <trkpt lat="44.04261" lon="7.43047">
        <ele>2302</ele>
        <time>2025-06-13T12:18:15Z</time>
      </trkpt>
      <trkpt lat="44.04251" lon="7.43044">
        <ele>2300</ele>
        <time>2025-06-13T12:18:20Z</time>
      </trkpt>
      <trkpt lat="44.04243" lon="7.43014">
        <ele>2287</ele>
        <time>2025-06-13T12:18:32Z</time>
      </trkpt>
      <trkpt lat="44.04231" lon="7.4298">
        <ele>2277</ele>
        <time>2025-06-13T12:18:46Z</time>
      </trkpt>
      <trkpt lat="44.04215" lon="7.42964">
        <ele>2272</ele>
        <time>2025-06-13T12:18:55Z</time>
      </trkpt>
      <trkpt lat="44.04212" lon="7.42949">
        <ele>2270</ele>
        <time>2025-06-13T12:19:01Z</time>
      </trkpt>
      <trkpt lat="44.04194" lon="7.42951">
        <ele>2265</ele>
        <time>2025-06-13T12:19:10Z</time>
      </trkpt>
      <trkpt lat="44.04186" lon="7.42944">
        <ele>2263</ele>
        <time>2025-06-13T12:19:15Z</time>
      </trkpt>
      <trkpt lat="44.04189" lon="7.42937">
        <ele>2263</ele>
        <time>2025-06-13T12:19:18Z</time>
      </trkpt>
      <trkpt lat="44.04176" lon="7.4292">
        <ele>2259</ele>
        <time>2025-06-13T12:19:27Z</time>
      </trkpt>
      <trkpt lat="44.04168" lon="7.42917">
        <ele>2256</ele>
        <time>2025-06-13T12:19:31Z</time>
      </trkpt>
      <trkpt lat="44.04162" lon="7.42921">
        <ele>2254</ele>
        <time>2025-06-13T12:19:34Z</time>
      </trkpt>
      <trkpt lat="44.0416" lon="7.42918">
        <ele>2253</ele>
        <time>2025-06-13T12:19:36Z</time>
      </trkpt>
      <trkpt lat="44.04157" lon="7.4292">
        <ele>2252</ele>
        <time>2025-06-13T12:19:37Z</time>
      </trkpt>
      <trkpt lat="44.0415" lon="7.42906">
        <ele>2249</ele>
        <time>2025-06-13T12:19:43Z</time>
      </trkpt>
      <trkpt lat="44.04142" lon="7.42905">
        <ele>2245</ele>
        <time>2025-06-13T12:19:47Z</time>
      </trkpt>
      <trkpt lat="44.04139" lon="7.42897">
        <ele>2244</ele>
        <time>2025-06-13T12:19:51Z</time>
      </trkpt>
      <trkpt lat="44.04124" lon="7.42906">
        <ele>2238</ele>
        <time>2025-06-13T12:19:59Z</time>
      </trkpt>
      <trkpt lat="44.04121" lon="7.42899">
        <ele>2236</ele>
        <time>2025-06-13T12:20:02Z</time>
      </trkpt>
      <trkpt lat="44.04104" lon="7.42901">
        <ele>2229</ele>
        <time>2025-06-13T12:20:10Z</time>
      </trkpt>
      <trkpt lat="44.04093" lon="7.42909">
        <ele>2225</ele>
        <time>2025-06-13T12:20:17Z</time>
      </trkpt>
      <trkpt lat="44.04095" lon="7.42895">
        <ele>2225</ele>
        <time>2025-06-13T12:20:22Z</time>
      </trkpt>
      <trkpt lat="44.04103" lon="7.42881">
        <ele>2229</ele>
        <time>2025-06-13T12:20:28Z</time>
      </trkpt>
      <trkpt lat="44.04093" lon="7.4289">
        <ele>2224</ele>
        <time>2025-06-13T12:20:34Z</time>
      </trkpt>
      <trkpt lat="44.04086" lon="7.42891">
        <ele>2222</ele>
        <time>2025-06-13T12:20:38Z</time>
      </trkpt>
      <trkpt lat="44.04075" lon="7.42907">
        <ele>2218</ele>
        <time>2025-06-13T12:20:46Z</time>
      </trkpt>
      <trkpt lat="44.04057" lon="7.42915">
        <ele>2211</ele>
        <time>2025-06-13T12:20:55Z</time>
      </trkpt>
      <trkpt lat="44.04038" lon="7.42909">
        <ele>2204</ele>
        <time>2025-06-13T12:21:05Z</time>
      </trkpt>
      <trkpt lat="44.04024" lon="7.42907">
        <ele>2198</ele>
        <time>2025-06-13T12:21:12Z</time>
      </trkpt>
      <trkpt lat="44.04024" lon="7.42891">
        <ele>2198</ele>
        <time>2025-06-13T12:21:18Z</time>
      </trkpt>
      <trkpt lat="44.04032" lon="7.4288">
        <ele>2201</ele>
        <time>2025-06-13T12:21:23Z</time>
      </trkpt>
      <trkpt lat="44.04016" lon="7.42866">
        <ele>2195</ele>
        <time>2025-06-13T12:21:33Z</time>
      </trkpt>
      <trkpt lat="44.04005" lon="7.42876">
        <ele>2191</ele>
        <time>2025-06-13T12:21:39Z</time>
      </trkpt>
      <trkpt lat="44.03999" lon="7.42882">
        <ele>2189</ele>
        <time>2025-06-13T12:21:43Z</time>
      </trkpt>
      <trkpt lat="44.03991" lon="7.42896">
        <ele>2186</ele>
        <time>2025-06-13T12:21:49Z</time>
      </trkpt>
      <trkpt lat="44.03975" lon="7.42901">
        <ele>2179</ele>
        <time>2025-06-13T12:21:58Z</time>
      </trkpt>
      <trkpt lat="44.03946" lon="7.42926">
        <ele>2167</ele>
        <time>2025-06-13T12:22:15Z</time>
      </trkpt>
      <trkpt lat="44.03931" lon="7.42938">
        <ele>2161</ele>
        <time>2025-06-13T12:22:23Z</time>
      </trkpt>
      <trkpt lat="44.03916" lon="7.42942">
        <ele>2155</ele>
        <time>2025-06-13T12:22:31Z</time>
      </trkpt>
      <trkpt lat="44.0389" lon="7.4296">
        <ele>2147</ele>
        <time>2025-06-13T12:22:45Z</time>
      </trkpt>
      <trkpt lat="44.03903" lon="7.42927">
        <ele>2150</ele>
        <time>2025-06-13T12:22:59Z</time>
      </trkpt>
      <trkpt lat="44.03901" lon="7.42902">
        <ele>2150</ele>
        <time>2025-06-13T12:23:08Z</time>
      </trkpt>
      <trkpt lat="44.03889" lon="7.42888">
        <ele>2148</ele>
        <time>2025-06-13T12:23:16Z</time>
      </trkpt>
      <trkpt lat="44.03864" lon="7.42884">
        <ele>2139</ele>
        <time>2025-06-13T12:23:28Z</time>
      </trkpt>
      <trkpt lat="44.03837" lon="7.42865">
        <ele>2131</ele>
        <time>2025-06-13T12:23:44Z</time>
      </trkpt>
      <trkpt lat="44.03748" lon="7.42772">
        <ele>2105</ele>
        <time>2025-06-13T12:24:39Z</time>
      </trkpt>
      <trkpt lat="44.03704" lon="7.42729">
        <ele>2097</ele>
        <time>2025-06-13T12:25:06Z</time>
      </trkpt>
      <trkpt lat="44.03689" lon="7.427">
        <ele>2102</ele>
        <time>2025-06-13T12:25:19Z</time>
      </trkpt>
      <trkpt lat="44.03679" lon="7.42702">
        <ele>2096</ele>
        <time>2025-06-13T12:25:24Z</time>
      </trkpt>
      <trkpt lat="44.03668" lon="7.42692">
        <ele>2095</ele>
        <time>2025-06-13T12:25:31Z</time>
      </trkpt>
      <trkpt lat="44.03642" lon="7.42686">
        <ele>2088</ele>
        <time>2025-06-13T12:25:44Z</time>
      </trkpt>
      <trkpt lat="44.03606" lon="7.42689">
        <ele>2073</ele>
        <time>2025-06-13T12:26:02Z</time>
      </trkpt>
      <trkpt lat="44.03547" lon="7.42672">
        <ele>2061</ele>
        <time>2025-06-13T12:26:32Z</time>
      </trkpt>
      <trkpt lat="44.0354" lon="7.42669">
        <ele>2060</ele>
        <time>2025-06-13T12:26:36Z</time>
      </trkpt>
      <trkpt lat="44.03525" lon="7.42656">
        <ele>2061</ele>
        <time>2025-06-13T12:26:45Z</time>
      </trkpt>
      <trkpt lat="44.03502" lon="7.42627">
        <ele>2065</ele>
        <time>2025-06-13T12:27:00Z</time>
      </trkpt>
      <trkpt lat="44.03484" lon="7.42614">
        <ele>2068</ele>
        <time>2025-06-13T12:27:10Z</time>
      </trkpt>
      <trkpt lat="44.0345" lon="7.42601">
        <ele>2068</ele>
        <time>2025-06-13T12:27:28Z</time>
      </trkpt>
      <trkpt lat="44.03438" lon="7.42588">
        <ele>2071</ele>
        <time>2025-06-13T12:27:36Z</time>
      </trkpt>
      <trkpt lat="44.03426" lon="7.42592">
        <ele>2068</ele>
        <time>2025-06-13T12:27:42Z</time>
      </trkpt>
      <trkpt lat="44.0341" lon="7.42584">
        <ele>2071</ele>
        <time>2025-06-13T12:27:50Z</time>
      </trkpt>
      <trkpt lat="44.03391" lon="7.42588">
        <ele>2071</ele>
        <time>2025-06-13T12:28:00Z</time>
      </trkpt>
      <trkpt lat="44.03384" lon="7.42582">
        <ele>2074</ele>
        <time>2025-06-13T12:28:04Z</time>
      </trkpt>
      <trkpt lat="44.03364" lon="7.42588">
        <ele>2074</ele>
        <time>2025-06-13T12:28:14Z</time>
      </trkpt>
      <trkpt lat="44.03329" lon="7.42602">
        <ele>2071</ele>
        <time>2025-06-13T12:28:32Z</time>
      </trkpt>
      <trkpt lat="44.03305" lon="7.42611">
        <ele>2066</ele>
        <time>2025-06-13T12:28:45Z</time>
      </trkpt>
      <trkpt lat="44.03263" lon="7.42592">
        <ele>2073</ele>
        <time>2025-06-13T12:29:07Z</time>
      </trkpt>
      <trkpt lat="44.03224" lon="7.42569">
        <ele>2070</ele>
        <time>2025-06-13T12:29:28Z</time>
      </trkpt>
      <trkpt lat="44.03214" lon="7.42527">
        <ele>2075</ele>
        <time>2025-06-13T12:29:44Z</time>
      </trkpt>
      <trkpt lat="44.03205" lon="7.42514">
        <ele>2074</ele>
        <time>2025-06-13T12:29:51Z</time>
      </trkpt>
      <trkpt lat="44.03203" lon="7.4247">
        <ele>2082</ele>
        <time>2025-06-13T12:30:06Z</time>
      </trkpt>
      <trkpt lat="44.03204" lon="7.42448">
        <ele>2087</ele>
        <time>2025-06-13T12:30:14Z</time>
      </trkpt>
      <trkpt lat="44.03198" lon="7.42425">
        <ele>2089</ele>
        <time>2025-06-13T12:30:23Z</time>
      </trkpt>
      <trkpt lat="44.03194" lon="7.42413">
        <ele>2090</ele>
        <time>2025-06-13T12:30:28Z</time>
      </trkpt>
      <trkpt lat="44.03193" lon="7.4239">
        <ele>2094</ele>
        <time>2025-06-13T12:30:36Z</time>
      </trkpt>
      <trkpt lat="44.03188" lon="7.42376">
        <ele>2095</ele>
        <time>2025-06-13T12:30:42Z</time>
      </trkpt>
      <trkpt lat="44.03187" lon="7.42342">
        <ele>2103</ele>
        <time>2025-06-13T12:30:54Z</time>
      </trkpt>
      <trkpt lat="44.03175" lon="7.42332">
        <ele>2101</ele>
        <time>2025-06-13T12:31:01Z</time>
      </trkpt>
      <trkpt lat="44.03168" lon="7.42298">
        <ele>2098</ele>
        <time>2025-06-13T12:31:14Z</time>
      </trkpt>
      <trkpt lat="44.03137" lon="7.42227">
        <ele>2094</ele>
        <time>2025-06-13T12:31:44Z</time>
      </trkpt>
      <trkpt lat="44.03099" lon="7.42169">
        <ele>2091</ele>
        <time>2025-06-13T12:32:12Z</time>
      </trkpt>
      <trkpt lat="44.03077" lon="7.42126">
        <ele>2088</ele>
        <time>2025-06-13T12:32:31Z</time>
      </trkpt>
      <trkpt lat="44.03064" lon="7.42081">
        <ele>2088</ele>
        <time>2025-06-13T12:32:48Z</time>
      </trkpt>
      <trkpt lat="44.03053" lon="7.42017">
        <ele>2086</ele>
        <time>2025-06-13T12:33:12Z</time>
      </trkpt>
      <trkpt lat="44.03038" lon="7.41965">
        <ele>2080</ele>
        <time>2025-06-13T12:33:32Z</time>
      </trkpt>
      <trkpt lat="44.03006" lon="7.41917">
        <ele>2076</ele>
        <time>2025-06-13T12:33:56Z</time>
      </trkpt>
      <trkpt lat="44.02995" lon="7.41914">
        <ele>2079</ele>
        <time>2025-06-13T12:34:01Z</time>
      </trkpt>
      <trkpt lat="44.02991" lon="7.41894">
        <ele>2073</ele>
        <time>2025-06-13T12:34:09Z</time>
      </trkpt>
      <trkpt lat="44.02964" lon="7.41874">
        <ele>2075</ele>
        <time>2025-06-13T12:34:24Z</time>
      </trkpt>
      <trkpt lat="44.02952" lon="7.41852">
        <ele>2071</ele>
        <time>2025-06-13T12:34:34Z</time>
      </trkpt>
      <trkpt lat="44.02941" lon="7.41813">
        <ele>2059</ele>
        <time>2025-06-13T12:34:49Z</time>
      </trkpt>
      <trkpt lat="44.02918" lon="7.41781">
        <ele>2054</ele>
        <time>2025-06-13T12:35:05Z</time>
      </trkpt>
      <trkpt lat="44.02903" lon="7.4178">
        <ele>2059</ele>
        <time>2025-06-13T12:35:13Z</time>
      </trkpt>
      <trkpt lat="44.02892" lon="7.41769">
        <ele>2059</ele>
        <time>2025-06-13T12:35:20Z</time>
      </trkpt>
      <trkpt lat="44.02875" lon="7.41747">
        <ele>2056</ele>
        <time>2025-06-13T12:35:31Z</time>
      </trkpt>
      <trkpt lat="44.02862" lon="7.41739">
        <ele>2058</ele>
        <time>2025-06-13T12:35:38Z</time>
      </trkpt>
      <trkpt lat="44.02831" lon="7.41686">
        <ele>2043</ele>
        <time>2025-06-13T12:36:03Z</time>
      </trkpt>
      <trkpt lat="44.02817" lon="7.41675">
        <ele>2044</ele>
        <time>2025-06-13T12:36:11Z</time>
      </trkpt>
      <trkpt lat="44.02778" lon="7.41599">
        <ele>2032</ele>
        <time>2025-06-13T12:36:45Z</time>
      </trkpt>
      <trkpt lat="44.02711" lon="7.41505">
        <ele>2020</ele>
        <time>2025-06-13T12:37:32Z</time>
      </trkpt>
      <trkpt lat="44.02689" lon="7.41484">
        <ele>2016</ele>
        <time>2025-06-13T12:37:46Z</time>
      </trkpt>
      <trkpt lat="44.0256" lon="7.41431">
        <ele>2000</ele>
        <time>2025-06-13T12:38:53Z</time>
      </trkpt>
      <trkpt lat="44.02541" lon="7.41417">
        <ele>1996</ele>
        <time>2025-06-13T12:39:04Z</time>
      </trkpt>
      <trkpt lat="44.02513" lon="7.41412">
        <ele>1995</ele>
        <time>2025-06-13T12:39:18Z</time>
      </trkpt>
      <trkpt lat="44.0251" lon="7.41419">
        <ele>1994</ele>
        <time>2025-06-13T12:39:21Z</time>
      </trkpt>
      <trkpt lat="44.02509" lon="7.41431">
        <ele>1993</ele>
        <time>2025-06-13T12:39:25Z</time>
      </trkpt>
      <trkpt lat="44.02497" lon="7.41433">
        <ele>1992</ele>
        <time>2025-06-13T12:39:31Z</time>
      </trkpt>
      <trkpt lat="44.0248" lon="7.41442">
        <ele>1989</ele>
        <time>2025-06-13T12:39:40Z</time>
      </trkpt>
      <trkpt lat="44.02465" lon="7.41443">
        <ele>1988</ele>
        <time>2025-06-13T12:39:48Z</time>
      </trkpt>
      <trkpt lat="44.02446" lon="7.41448">
        <ele>1985</ele>
        <time>2025-06-13T12:39:57Z</time>
      </trkpt>
      <trkpt lat="44.024" lon="7.41466">
        <ele>1977</ele>
        <time>2025-06-13T12:40:21Z</time>
      </trkpt>
      <trkpt lat="44.02355" lon="7.41489">
        <ele>1971</ele>
        <time>2025-06-13T12:40:45Z</time>
      </trkpt>
      <trkpt lat="44.02167" lon="7.41602">
        <ele>1946</ele>
        <time>2025-06-13T12:42:28Z</time>
      </trkpt>
      <trkpt lat="44.02083" lon="7.41665">
        <ele>1938</ele>
        <time>2025-06-13T12:43:16Z</time>
      </trkpt>
      <trkpt lat="44.01957" lon="7.41787">
        <ele>1911</ele>
        <time>2025-06-13T12:44:32Z</time>
      </trkpt>
      <trkpt lat="44.01927" lon="7.41823">
        <ele>1905</ele>
        <time>2025-06-13T12:44:52Z</time>
      </trkpt>
      <trkpt lat="44.01914" lon="7.41854">
        <ele>1896</ele>
        <time>2025-06-13T12:45:05Z</time>
      </trkpt>
      <trkpt lat="44.01886" lon="7.4192">
        <ele>1876</ele>
        <time>2025-06-13T12:45:33Z</time>
      </trkpt>
      <trkpt lat="44.01837" lon="7.41957">
        <ele>1872</ele>
        <time>2025-06-13T12:46:01Z</time>
      </trkpt>
      <trkpt lat="44.01816" lon="7.41985">
        <ele>1859</ele>
        <time>2025-06-13T12:46:15Z</time>
      </trkpt>
      <trkpt lat="44.01811" lon="7.42001">
        <ele>1854</ele>
        <time>2025-06-13T12:46:22Z</time>
      </trkpt>
      <trkpt lat="44.01758" lon="7.42063">
        <ele>1835</ele>
        <time>2025-06-13T12:46:56Z</time>
      </trkpt>
      <trkpt lat="44.01735" lon="7.42077">
        <ele>1829</ele>
        <time>2025-06-13T12:47:09Z</time>
      </trkpt>
      <trkpt lat="44.01715" lon="7.42107">
        <ele>1821</ele>
        <time>2025-06-13T12:47:23Z</time>
      </trkpt>
      <trkpt lat="44.01677" lon="7.42192">
        <ele>1825</ele>
        <time>2025-06-13T12:47:59Z</time>
      </trkpt>
      <trkpt lat="44.01675" lon="7.42206">
        <ele>1827</ele>
        <time>2025-06-13T12:48:05Z</time>
      </trkpt>
      <trkpt lat="44.01668" lon="7.42217">
        <ele>1831</ele>
        <time>2025-06-13T12:48:10Z</time>
      </trkpt>
      <trkpt lat="44.01666" lon="7.4223">
        <ele>1834</ele>
        <time>2025-06-13T12:48:15Z</time>
      </trkpt>
      <trkpt lat="44.01657" lon="7.42247">
        <ele>1838</ele>
        <time>2025-06-13T12:48:22Z</time>
      </trkpt>
      <trkpt lat="44.01654" lon="7.42258">
        <ele>1840</ele>
        <time>2025-06-13T12:48:27Z</time>
      </trkpt>
      <trkpt lat="44.01627" lon="7.42268">
        <ele>1847</ele>
        <time>2025-06-13T12:48:41Z</time>
      </trkpt>
      <trkpt lat="44.0162" lon="7.4228">
        <ele>1850</ele>
        <time>2025-06-13T12:48:46Z</time>
      </trkpt>
      <trkpt lat="44.01616" lon="7.42283">
        <ele>1851</ele>
        <time>2025-06-13T12:48:48Z</time>
      </trkpt>
      <trkpt lat="44.01609" lon="7.42293">
        <ele>1854</ele>
        <time>2025-06-13T12:48:53Z</time>
      </trkpt>
      <trkpt lat="44.01605" lon="7.42303">
        <ele>1857</ele>
        <time>2025-06-13T12:48:57Z</time>
      </trkpt>
      <trkpt lat="44.01602" lon="7.4231">
        <ele>1859</ele>
        <time>2025-06-13T12:49:00Z</time>
      </trkpt>
      <trkpt lat="44.0159" lon="7.42318">
        <ele>1864</ele>
        <time>2025-06-13T12:49:07Z</time>
      </trkpt>
      <trkpt lat="44.01573" lon="7.42327">
        <ele>1872</ele>
        <time>2025-06-13T12:49:16Z</time>
      </trkpt>
      <trkpt lat="44.01548" lon="7.42312">
        <ele>1876</ele>
        <time>2025-06-13T12:49:30Z</time>
      </trkpt>
      <trkpt lat="44.01533" lon="7.42312">
        <ele>1881</ele>
        <time>2025-06-13T12:49:37Z</time>
      </trkpt>
      <trkpt lat="44.01506" lon="7.42321">
        <ele>1893</ele>
        <time>2025-06-13T12:49:51Z</time>
      </trkpt>
      <trkpt lat="44.01487" lon="7.42312">
        <ele>1893</ele>
        <time>2025-06-13T12:50:01Z</time>
      </trkpt>
      <trkpt lat="44.01456" lon="7.42311">
        <ele>1897</ele>
        <time>2025-06-13T12:50:17Z</time>
      </trkpt>
      <trkpt lat="44.0143" lon="7.42317">
        <ele>1904</ele>
        <time>2025-06-13T12:50:30Z</time>
      </trkpt>
      <trkpt lat="44.01406" lon="7.42322">
        <ele>1911</ele>
        <time>2025-06-13T12:50:42Z</time>
      </trkpt>
      <trkpt lat="44.01367" lon="7.4232">
        <ele>1916</ele>
        <time>2025-06-13T12:51:02Z</time>
      </trkpt>
      <trkpt lat="44.0134" lon="7.42317">
        <ele>1919</ele>
        <time>2025-06-13T12:51:15Z</time>
      </trkpt>
      <trkpt lat="44.01297" lon="7.42318">
        <ele>1924</ele>
        <time>2025-06-13T12:51:37Z</time>
      </trkpt>
      <trkpt lat="44.01289" lon="7.42308">
        <ele>1922</ele>
        <time>2025-06-13T12:51:42Z</time>
      </trkpt>
      <trkpt lat="44.01267" lon="7.42298">
        <ele>1922</ele>
        <time>2025-06-13T12:51:54Z</time>
      </trkpt>
      <trkpt lat="44.01259" lon="7.42283">
        <ele>1919</ele>
        <time>2025-06-13T12:52:00Z</time>
      </trkpt>
      <trkpt lat="44.01249" lon="7.42297">
        <ele>1923</ele>
        <time>2025-06-13T12:52:07Z</time>
      </trkpt>
      <trkpt lat="44.01241" lon="7.42316">
        <ele>1925</ele>
        <time>2025-06-13T12:52:15Z</time>
      </trkpt>
      <trkpt lat="44.0123" lon="7.42336">
        <ele>1927</ele>
        <time>2025-06-13T12:52:24Z</time>
      </trkpt>
      <trkpt lat="44.0121" lon="7.42361">
        <ele>1934</ele>
        <time>2025-06-13T12:52:38Z</time>
      </trkpt>
      <trkpt lat="44.0118" lon="7.42386">
        <ele>1937</ele>
        <time>2025-06-13T12:52:55Z</time>
      </trkpt>
      <trkpt lat="44.01151" lon="7.42401">
        <ele>1935</ele>
        <time>2025-06-13T12:53:11Z</time>
      </trkpt>
      <trkpt lat="44.01134" lon="7.42402">
        <ele>1930</ele>
        <time>2025-06-13T12:53:19Z</time>
      </trkpt>
      <trkpt lat="44.01078" lon="7.42441">
        <ele>1930</ele>
        <time>2025-06-13T12:53:51Z</time>
      </trkpt>
      <trkpt lat="44.01052" lon="7.42444">
        <ele>1920</ele>
        <time>2025-06-13T12:54:04Z</time>
      </trkpt>
      <trkpt lat="44.01043" lon="7.42462">
        <ele>1926</ele>
        <time>2025-06-13T12:54:12Z</time>
      </trkpt>
      <trkpt lat="44.01037" lon="7.42491">
        <ele>1938</ele>
        <time>2025-06-13T12:54:23Z</time>
      </trkpt>
      <trkpt lat="44.01024" lon="7.42512">
        <ele>1942</ele>
        <time>2025-06-13T12:54:33Z</time>
      </trkpt>
      <trkpt lat="44.01006" lon="7.42536">
        <ele>1946</ele>
        <time>2025-06-13T12:54:45Z</time>
      </trkpt>
      <trkpt lat="44.00978" lon="7.42548">
        <ele>1939</ele>
        <time>2025-06-13T12:55:00Z</time>
      </trkpt>
      <trkpt lat="44.00965" lon="7.42586">
        <ele>1951</ele>
        <time>2025-06-13T12:55:15Z</time>
      </trkpt>
      <trkpt lat="44.00946" lon="7.42611">
        <ele>1952</ele>
        <time>2025-06-13T12:55:28Z</time>
      </trkpt>
      <trkpt lat="44.00928" lon="7.42619">
        <ele>1946</ele>
        <time>2025-06-13T12:55:37Z</time>
      </trkpt>
      <trkpt lat="44.00923" lon="7.42627">
        <ele>1947</ele>
        <time>2025-06-13T12:55:41Z</time>
      </trkpt>
      <trkpt lat="44.00897" lon="7.42651">
        <ele>1944</ele>
        <time>2025-06-13T12:55:57Z</time>
      </trkpt>
      <trkpt lat="44.00878" lon="7.4266">
        <ele>1937</ele>
        <time>2025-06-13T12:56:07Z</time>
      </trkpt>
      <trkpt lat="44.00866" lon="7.42699">
        <ele>1946</ele>
        <time>2025-06-13T12:56:22Z</time>
      </trkpt>
      <trkpt lat="44.00866" lon="7.42715">
        <ele>1952</ele>
        <time>2025-06-13T12:56:28Z</time>
      </trkpt>
      <trkpt lat="44.00855" lon="7.42736">
        <ele>1955</ele>
        <time>2025-06-13T12:56:37Z</time>
      </trkpt>
      <trkpt lat="44.00848" lon="7.42747">
        <ele>1955</ele>
        <time>2025-06-13T12:56:43Z</time>
      </trkpt>
      <trkpt lat="44.00838" lon="7.42757">
        <ele>1953</ele>
        <time>2025-06-13T12:56:49Z</time>
      </trkpt>
      <trkpt lat="44.00825" lon="7.42777">
        <ele>1953</ele>
        <time>2025-06-13T12:56:58Z</time>
      </trkpt>
      <trkpt lat="44.00805" lon="7.42823">
        <ele>1958</ele>
        <time>2025-06-13T12:57:18Z</time>
      </trkpt>
      <trkpt lat="44.00763" lon="7.42883">
        <ele>1960</ele>
        <time>2025-06-13T12:57:48Z</time>
      </trkpt>
      <trkpt lat="44.00743" lon="7.42899">
        <ele>1963</ele>
        <time>2025-06-13T12:57:59Z</time>
      </trkpt>
      <trkpt lat="44.00637" lon="7.42958">
        <ele>1959</ele>
        <time>2025-06-13T12:58:57Z</time>
      </trkpt>
      <trkpt lat="44.00613" lon="7.42987">
        <ele>1962</ele>
        <time>2025-06-13T12:59:12Z</time>
      </trkpt>
      <trkpt lat="44.00611" lon="7.43005">
        <ele>1967</ele>
        <time>2025-06-13T12:59:19Z</time>
      </trkpt>
      <trkpt lat="44.00588" lon="7.43029">
        <ele>1966</ele>
        <time>2025-06-13T12:59:33Z</time>
      </trkpt>
      <trkpt lat="44.00582" lon="7.43043">
        <ele>1968</ele>
        <time>2025-06-13T12:59:39Z</time>
      </trkpt>
      <trkpt lat="44.00502" lon="7.43087">
        <ele>1956</ele>
        <time>2025-06-13T13:00:22Z</time>
      </trkpt>
      <trkpt lat="44.00474" lon="7.43095">
        <ele>1957</ele>
        <time>2025-06-13T13:00:37Z</time>
      </trkpt>
      <trkpt lat="44.00424" lon="7.43122">
        <ele>1965</ele>
        <time>2025-06-13T13:01:03Z</time>
      </trkpt>
      <trkpt lat="44.00376" lon="7.43127">
        <ele>1973</ele>
        <time>2025-06-13T13:01:28Z</time>
      </trkpt>
      <trkpt lat="44.00352" lon="7.43139">
        <ele>1982</ele>
        <time>2025-06-13T13:01:40Z</time>
      </trkpt>
      <trkpt lat="44.00332" lon="7.43143">
        <ele>1986</ele>
        <time>2025-06-13T13:01:50Z</time>
      </trkpt>
      <trkpt lat="44.00327" lon="7.43145">
        <ele>1987</ele>
        <time>2025-06-13T13:01:53Z</time>
      </trkpt>
      <trkpt lat="44.0032" lon="7.43148">
        <ele>1988</ele>
        <time>2025-06-13T13:01:57Z</time>
      </trkpt>
      <trkpt lat="44.00275" lon="7.43159">
        <ele>1993</ele>
        <time>2025-06-13T13:02:20Z</time>
      </trkpt>
      <trkpt lat="44.00253" lon="7.43167">
        <ele>1997</ele>
        <time>2025-06-13T13:02:31Z</time>
      </trkpt>
      <trkpt lat="44.00153" lon="7.43197">
        <ele>2024</ele>
        <time>2025-06-13T13:03:22Z</time>
      </trkpt>
      <trkpt lat="44.00116" lon="7.43198">
        <ele>2032</ele>
        <time>2025-06-13T13:03:41Z</time>
      </trkpt>
      <trkpt lat="44.00065" lon="7.43231">
        <ele>2044</ele>
        <time>2025-06-13T13:04:09Z</time>
      </trkpt>
      <trkpt lat="44.00054" lon="7.43228">
        <ele>2044</ele>
        <time>2025-06-13T13:04:14Z</time>
      </trkpt>
      <trkpt lat="44.00047" lon="7.43216">
        <ele>2043</ele>
        <time>2025-06-13T13:04:20Z</time>
      </trkpt>
      <trkpt lat="44.00043" lon="7.43188">
        <ele>2041</ele>
        <time>2025-06-13T13:04:30Z</time>
      </trkpt>
      <trkpt lat="44.00032" lon="7.43165">
        <ele>2040</ele>
        <time>2025-06-13T13:04:40Z</time>
      </trkpt>
      <trkpt lat="44.00019" lon="7.43122">
        <ele>2044</ele>
        <time>2025-06-13T13:04:57Z</time>
      </trkpt>
      <trkpt lat="43.99986" lon="7.43051">
        <ele>2047</ele>
        <time>2025-06-13T13:05:27Z</time>
      </trkpt>
      <trkpt lat="43.99927" lon="7.42962">
        <ele>2042</ele>
        <time>2025-06-13T13:06:11Z</time>
      </trkpt>
      <trkpt lat="43.99908" lon="7.42927">
        <ele>2044</ele>
        <time>2025-06-13T13:06:27Z</time>
      </trkpt>
      <trkpt lat="43.999" lon="7.42903">
        <ele>2043</ele>
        <time>2025-06-13T13:06:36Z</time>
      </trkpt>
      <trkpt lat="43.99898" lon="7.42884">
        <ele>2043</ele>
        <time>2025-06-13T13:06:43Z</time>
      </trkpt>
      <trkpt lat="43.99894" lon="7.4288">
        <ele>2041</ele>
        <time>2025-06-13T13:06:46Z</time>
      </trkpt>
      <trkpt lat="43.99886" lon="7.42857">
        <ele>2040</ele>
        <time>2025-06-13T13:06:55Z</time>
      </trkpt>
      <trkpt lat="43.99868" lon="7.42844">
        <ele>2035</ele>
        <time>2025-06-13T13:07:05Z</time>
      </trkpt>
      <trkpt lat="43.99854" lon="7.42818">
        <ele>2033</ele>
        <time>2025-06-13T13:07:17Z</time>
      </trkpt>
      <trkpt lat="43.99847" lon="7.42809">
        <ele>2032</ele>
        <time>2025-06-13T13:07:21Z</time>
      </trkpt>
      <trkpt lat="43.99842" lon="7.428">
        <ele>2032</ele>
        <time>2025-06-13T13:07:26Z</time>
      </trkpt>
      <trkpt lat="43.99838" lon="7.42787">
        <ele>2032</ele>
        <time>2025-06-13T13:07:31Z</time>
      </trkpt>
      <trkpt lat="43.9983" lon="7.42785">
        <ele>2031</ele>
        <time>2025-06-13T13:07:35Z</time>
      </trkpt>
      <trkpt lat="43.99827" lon="7.42777">
        <ele>2032</ele>
        <time>2025-06-13T13:07:38Z</time>
      </trkpt>
      <trkpt lat="43.99819" lon="7.42776">
        <ele>2032</ele>
        <time>2025-06-13T13:07:42Z</time>
      </trkpt>
    </trkseg>
  </trk>
</gpx>